[[{"header":{"parameterUnit":"m.s-1","parameterCategory":1,"la1":30.6,"la2":28.766,"lo1":-90.7593,"lo2":-88.6598,"dx":0.0162,"dy":0.0183,"nx":116,"ny":114,"refTime":"2023-01-29T18:00:00:Z","depth":0,"parameterNumber":2,"parameterNumberName":"U-component_of_WINDS"},"data":[0.0,0.0,0.0,0.0,0.0,0.0,0.0,0.0,0.0,0.0,0.0,0.0,0.0,0.0,0.0,0.0,0.0,0.0,0.0,0.0,0.0,0.0,0.0,0.0,0.0,0.0,0.0,0.0,0.0,0.0,0.0,0.0,0.0,0.0,0.0,0.0,0.0,0.0,0.0,0.0,0.0,0.0,0.0,0.0,0.0,0.0,0.0,0.0,0.0,0.0,0.0,0.0,0.0,0.0,0.0,0.0,0.0,0.0,0.0,0.0,0.0,0.0,0.0,0.0,0.0,0.0,0.0,0.0,0.0,0.0,0.0,0.0,0.0,0.0,0.0,0.0,0.0,0.0,0.0,0.0,0.0,0.0,0.0,0.0,0.0,0.0,0.0,0.0,0.0,0.0,0.0,0.0,0.0,0.0,0.0,0.0,0.0,0.0,0.0,0.0,0.0,0.0,0.0,0.0,0.0,0.0,0.0,0.0,0.0,0.0,0.0,0.0,0.0,0.0,0.0,0.0,0.0,0.0,0.0,0.0,0.0,0.0,0.0,0.0,0.0,0.0,0.0,0.0,0.0,0.0,0.0,0.0,0.0,0.0,0.0,0.0,0.0,0.0,0.0,0.0,0.0,0.0,0.0,0.0,0.0,0.0,0.0,0.0,0.0,0.0,0.0,0.0,0.0,0.0,0.0,0.0,0.0,0.0,0.0,0.0,0.0,0.0,0.0,0.0,0.0,0.0,0.0,0.0,0.0,0.0,0.0,0.0,0.0,0.0,0.0,0.0,0.0,0.0,0.0,0.0,0.0,0.0,0.0,0.0,0.0,0.0,0.0,0.0,0.0,0.0,0.0,0.0,0.0,0.0,0.0,0.0,0.0,0.0,0.0,0.0,0.0,0.0,0.0,0.0,0.0,0.0,0.0,0.0,0.0,0.0,0.0,0.0,0.0,0.0,0.0,0.0,0.0,0.0,0.0,0.0,0.0,0.0,0.0,0.0,0.0,0.0,0.0,0.0,0.0,0.0,0.0,0.0,0.0,0.0,0.0,0.0,0.0,0.0,0.0,0.0,0.0,0.0,0.0,0.0,0.0,0.0,0.0,0.0,0.0,0.0,0.0,0.0,0.0,0.0,0.0,0.0,0.0,0.0,0.0,0.0,0.0,0.0,0.0,0.0,0.0,0.0,0.0,0.0,0.0,0.0,0.0,0.0,0.0,0.0,0.0,0.0,0.0,0.0,0.0,0.0,0.0,0.0,0.0,0.0,0.0,0.0,0.0,0.0,0.0,0.0,0.0,0.0,0.0,0.0,0.0,0.0,0.0,0.0,0.0,0.0,0.0,0.0,0.0,0.0,0.0,0.0,0.0,0.0,0.0,0.0,0.0,0.0,0.0,0.0,0.0,0.0,0.0,0.0,0.0,0.0,0.0,0.0,0.0,0.0,0.0,0.0,0.0,0.0,0.0,0.0,0.0,0.0,0.0,0.0,0.0,0.0,0.0,0.0,0.0,0.0,0.0,0.0,0.0,0.0,0.0,0.0,0.0,0.0,0.0,0.0,0.0,0.0,0.0,0.0,0.0,0.0,0.0,0.0,0.0,0.0,0.0,0.0,0.0,0.0,0.0,0.0,0.0,0.0,0.0,0.0,0.0,0.0,0.0,0.0,0.0,0.0,0.0,0.0,0.0,0.0,0.0,0.0,0.0,0.0,0.0,0.0,0.0,0.0,0.0,0.0,0.0,0.0,0.0,0.0,0.0,0.0,0.0,0.0,0.0,0.0,0.0,0.0,0.0,0.0,0.0,0.0,0.0,0.0,0.0,0.0,0.0,0.0,0.0,0.0,0.0,0.0,0.0,0.0,0.0,0.0,0.0,0.0,0.0,0.0,0.0,0.0,0.0,0.0,0.0,0.0,0.0,0.0,0.0,0.0,0.0,0.0,0.0,0.0,0.0,0.0,0.0,0.0,0.0,0.0,0.0,0.0,0.0,0.0,0.0,0.0,0.0,0.0,0.0,0.0,0.0,0.0,0.0,0.0,0.0,0.0,0.0,0.0,0.0,0.0,0.0,0.0,0.0,0.0,0.0,0.0,0.0,0.0,0.0,0.0,0.0,0.0,0.0,0.0,0.0,0.0,0.0,0.0,0.0,0.0,0.0,0.0,0.0,0.0,0.0,0.0,0.0,0.0,0.0,0.0,0.0,0.0,0.0,0.0,0.0,0.0,0.0,0.0,0.0,0.0,0.0,0.0,0.0,0.0,0.0,0.0,0.0,0.0,0.0,0.0,0.0,0.0,0.0,0.0,0.0,0.0,0.0,0.0,0.0,0.0,0.0,0.0,0.0,0.0,0.0,0.0,0.0,0.0,0.0,0.0,0.0,0.0,0.0,0.0,0.0,0.0,0.0,0.0,0.0,0.0,0.0,0.0,0.0,0.0,0.0,0.0,0.0,0.0,0.0,0.0,0.0,0.0,0.0,0.0,0.0,0.0,0.0,0.0,0.0,0.0,0.0,0.0,0.0,0.0,0.0,0.0,0.0,0.0,0.0,0.0,0.0,0.0,0.0,0.0,0.0,0.0,0.0,0.0,0.0,0.0,0.0,0.0,0.0,0.0,0.0,0.0,0.0,0.0,0.0,0.0,0.0,0.0,0.0,0.0,0.0,0.0,0.0,0.0,0.0,0.0,0.0,0.0,0.0,0.0,0.0,0.0,0.0,0.0,0.0,0.0,0.0,0.0,0.0,0.0,0.0,0.0,0.0,0.0,0.0,0.0,0.0,0.0,0.0,0.0,0.0,0.0,0.0,0.0,0.0,0.0,0.0,0.0,0.0,0.0,0.0,0.0,0.0,0.0,0.0,0.0,0.0,0.0,0.0,0.0,0.0,0.0,0.0,0.0,0.0,0.0,0.0,0.0,0.0,0.0,0.0,0.0,0.0,0.0,0.0,0.0,0.0,0.0,0.0,0.0,0.0,0.0,0.0,0.0,0.0,0.0,0.0,0.0,0.0,0.0,0.0,0.0,0.0,0.0,0.0,0.0,0.0,0.0,0.0,0.0,0.0,0.0,0.0,0.0,0.0,0.0,0.0,0.0,0.0,0.0,0.0,0.0,0.0,0.0,0.0,0.0,0.0,0.0,0.0,0.0,0.0,0.0,0.0,0.0,0.0,0.0,0.0,0.0,0.0,0.0,0.0,0.0,0.0,0.0,0.0,0.0,0.0,0.0,0.0,0.0,0.0,0.0,0.0,0.0,0.0,0.0,0.0,0.0,0.0,0.0,0.0,0.0,0.0,0.0,0.0,0.0,0.0,0.0,0.0,0.0,0.0,0.0,0.0,0.0,0.0,0.0,0.0,0.0,0.0,0.0,0.0,0.0,0.0,0.0,0.0,0.0,0.0,0.0,0.0,0.0,0.0,0.0,0.0,0.0,0.0,0.0,0.0,0.0,0.0,0.0,0.0,0.0,0.0,0.0,0.0,0.0,0.0,0.0,0.0,0.0,0.0,0.0,0.0,0.0,0.0,0.0,0.0,0.0,0.0,0.0,0.0,0.0,0.0,0.0,0.0,0.0,0.0,0.0,0.0,0.0,0.0,0.0,0.0,0.0,0.0,0.0,0.0,0.0,0.0,0.0,0.0,0.0,0.0,0.0,0.0,0.0,0.0,0.0,0.0,0.0,0.0,0.0,0.0,0.0,0.0,0.0,0.0,0.0,0.0,0.0,0.0,0.0,0.0,0.0,0.0,0.0,0.0,0.0,0.0,0.0,0.0,0.0,0.0,0.0,0.0,0.0,0.0,0.0,0.0,0.0,0.0,0.0,0.0,0.0,0.0,0.0,0.0,0.0,0.0,0.0,0.0,0.0,0.0,0.0,0.0,0.0,0.0,0.0,0.0,0.0,0.0,0.0,0.0,0.0,0.0,0.0,0.0,0.0,0.0,0.0,0.0,0.0,0.0,0.0,0.0,0.0,0.0,0.0,0.0,0.0,0.0,0.0,0.0,0.0,0.0,0.0,0.0,0.0,0.0,0.0,0.0,0.0,0.0,0.0,0.0,0.0,0.0,0.0,0.0,0.0,0.0,0.0,0.0,0.0,0.0,0.0,0.0,0.0,0.0,0.0,0.0,0.0,0.0,0.0,0.0,0.0,0.0,0.0,0.0,0.0,0.0,0.0,0.0,0.0,0.0,0.0,0.0,0.0,0.0,0.0,0.0,0.0,0.0,0.0,0.0,0.0,0.0,0.0,0.0,0.0,0.0,0.0,0.0,0.0,0.0,0.0,0.0,0.0,0.0,0.0,0.0,0.0,0.0,0.0,0.0,0.0,0.0,0.0,0.0,0.0,0.0,0.0,0.0,0.0,0.0,0.0,0.0,0.0,0.0,0.0,0.0,0.0,0.0,0.0,0.0,0.0,0.0,0.0,0.0,0.0,0.0,0.0,0.0,0.0,0.0,0.0,0.0,0.0,0.0,0.0,0.0,0.0,0.0,0.0,0.0,0.0,0.0,0.0,0.0,0.0,0.0,0.0,0.0,0.0,0.0,0.0,0.0,0.0,0.0,0.0,0.0,0.0,0.0,0.0,0.0,0.0,0.0,0.0,0.0,0.0,0.0,0.0,0.0,0.0,0.0,0.0,0.0,0.0,0.0,0.0,0.0,0.0,0.0,0.0,0.0,0.0,0.0,0.0,0.0,0.0,0.0,0.0,0.0,0.0,0.0,0.0,0.0,0.0,0.0,0.0,0.0,0.0,0.0,0.0,0.0,0.0,0.0,0.0,0.0,0.0,0.0,0.0,0.0,0.0,0.0,0.0,0.0,0.0,0.0,0.0,0.0,0.0,0.0,0.0,0.0,0.0,0.0,0.0,0.0,0.0,0.0,0.0,0.0,0.0,0.0,0.0,0.0,0.0,0.0,0.0,0.0,0.0,0.0,0.0,0.0,0.0,0.0,0.0,0.0,0.0,0.0,0.0,0.0,0.0,0.0,0.0,0.0,0.0,0.0,0.0,0.0,0.0,0.0,0.0,0.0,0.0,0.0,0.0,0.0,0.0,0.0,0.0,0.0,0.0,0.0,0.0,0.0,0.0,0.0,0.0,0.0,0.0,0.0,0.0,0.0,0.0,0.0,0.0,0.0,0.0,0.0,0.0,0.0,0.0,0.0,0.0,0.0,0.0,0.0,0.0,0.0,0.0,0.0,0.0,0.0,0.0,0.0,0.0,0.0,0.0,0.0,0.0,0.0,0.0,0.0,0.0,0.0,0.0,0.0,0.0,0.0,0.0,0.0,0.0,0.0,0.0,0.0,0.0,0.0,0.0,0.0,0.0,0.0,0.0,0.0,0.0,0.0,0.0,0.0,0.0,0.0,0.0,0.0,0.0,0.0,0.0,0.0,0.0,0.0,0.0,0.0,0.0,0.0,0.0,0.0,0.0,0.0,0.0,0.0,0.0,0.0,0.0,0.0,0.0,0.0,0.0,0.0,0.0,0.0,0.0,0.0,0.0,0.0,0.0,0.0,0.0,0.0,0.0,0.0,0.0,0.0,0.0,0.0,0.0,0.0,0.0,0.0,0.0,0.0,0.0,0.0,0.0,0.0,0.0,0.0,0.0,0.0,0.0,0.0,0.0,0.0,0.0,0.0,0.0,0.0,0.0,0.0,0.0,0.0,0.0,0.0,0.0,0.0,0.0,0.0,0.0,0.0,0.0,0.0,0.0,0.0,0.0,0.0,0.0,0.0,0.0,0.0,0.0,0.0,0.0,0.0,0.0,0.0,0.0,0.0,0.0,0.0,0.0,0.0,0.0,0.0,0.0,0.0,0.0,0.0,0.0,0.0,0.0,0.0,0.0,0.0,0.0,0.0,0.0,0.0,0.0,0.0,0.0,0.0,0.0,0.0,0.0,0.0,0.0,0.0,0.0,0.0,0.0,0.0,0.0,0.0,0.0,0.0,0.0,0.0,0.0,0.0,0.0,0.0,0.0,0.0,0.0,0.0,0.0,0.0,0.0,0.0,0.0,0.0,0.0,0.0,0.0,0.0,0.0,0.0,0.0,0.0,0.0,0.0,0.0,0.0,0.0,0.0,0.0,0.0,0.0,0.0,0.0,0.0,0.0,0.0,0.0,-1.7703,-1.776,0.0,0.0,0.0,0.0,0.0,0.0,0.0,0.0,0.0,0.0,0.0,0.0,0.0,0.0,0.0,0.0,0.0,0.0,0.0,0.0,0.0,0.0,0.0,0.0,0.0,0.0,0.0,0.0,0.0,0.0,0.0,0.0,0.0,0.0,0.0,0.0,0.0,0.0,0.0,0.0,0.0,0.0,0.0,0.0,0.0,0.0,0.0,0.0,0.0,0.0,0.0,0.0,0.0,0.0,0.0,0.0,0.0,0.0,0.0,0.0,0.0,0.0,0.0,0.0,0.0,0.0,0.0,0.0,0.0,0.0,0.0,0.0,0.0,0.0,0.0,0.0,0.0,0.0,0.0,0.0,0.0,0.0,0.0,0.0,0.0,0.0,0.0,0.0,0.0,0.0,0.0,0.0,0.0,0.0,0.0,0.0,0.0,0.0,0.0,0.0,0.0,0.0,0.0,0.0,0.0,0.0,0.0,0.0,0.0,0.0,0.0,0.0,0.0,0.0,-1.7153,-1.7186,0.0,0.0,0.0,0.0,0.0,0.0,0.0,0.0,0.0,0.0,0.0,0.0,0.0,0.0,0.0,0.0,0.0,0.0,0.0,0.0,0.0,0.0,0.0,0.0,0.0,0.0,0.0,0.0,0.0,0.0,0.0,0.0,0.0,0.0,0.0,0.0,0.0,0.0,0.0,0.0,0.0,0.0,0.0,0.0,0.0,0.0,0.0,0.0,0.0,0.0,0.0,0.0,0.0,0.0,0.0,0.0,0.0,0.0,0.0,0.0,0.0,0.0,0.0,0.0,0.0,0.0,0.0,0.0,0.0,0.0,0.0,0.0,0.0,0.0,0.0,0.0,0.0,0.0,0.0,0.0,0.0,0.0,0.0,0.0,0.0,0.0,0.0,0.0,0.0,0.0,0.0,0.0,0.0,0.0,0.0,0.0,0.0,0.0,0.0,0.0,0.0,0.0,0.0,0.0,0.0,0.0,0.0,0.0,-1.7506,-1.7405,-1.7355,-1.7012,-1.6877,-1.6844,-1.6549,-1.656,-1.6811,-1.6791,0.0,0.0,0.0,0.0,0.0,0.0,0.0,0.0,0.0,0.0,0.0,0.0,0.0,0.0,0.0,0.0,0.0,0.0,0.0,0.0,0.0,0.0,0.0,0.0,0.0,0.0,0.0,0.0,0.0,0.0,0.0,0.0,0.0,0.0,0.0,0.0,0.0,0.0,0.0,0.0,0.0,0.0,0.0,0.0,0.0,0.0,0.0,0.0,0.0,0.0,0.0,0.0,0.0,0.0,0.0,0.0,0.0,0.0,0.0,0.0,0.0,0.0,0.0,0.0,0.0,0.0,0.0,0.0,0.0,0.0,0.0,0.0,0.0,0.0,0.0,0.0,0.0,0.0,0.0,0.0,0.0,0.0,0.0,0.0,0.0,0.0,-1.5171,-1.5222,0.0,0.0,0.0,0.0,0.0,0.0,0.0,0.0,0.0,0.0,0.0,0.0,0.0,-1.7388,-1.7229,-1.7582,-1.7629,-1.7347,-1.7797,-1.7871,-1.7644,-1.7013,-1.6728,-1.6673,-1.5661,0.0,-1.6357,-1.608,0.0,0.0,0.0,0.0,0.0,0.0,0.0,0.0,0.0,0.0,0.0,0.0,0.0,0.0,0.0,0.0,0.0,0.0,0.0,0.0,0.0,0.0,0.0,0.0,0.0,0.0,0.0,0.0,0.0,0.0,0.0,0.0,0.0,0.0,0.0,0.0,0.0,0.0,0.0,0.0,0.0,0.0,0.0,0.0,0.0,0.0,0.0,0.0,0.0,0.0,0.0,0.0,0.0,0.0,0.0,0.0,0.0,0.0,0.0,0.0,0.0,0.0,0.0,0.0,0.0,0.0,0.0,0.0,0.0,0.0,0.0,0.0,0.0,0.0,0.0,0.0,0.0,0.0,0.0,0.0,0.0,0.0,0.0,0.0,0.0,-1.4435,-1.4714,-1.484,-1.5143,-1.5392,0.0,0.0,0.0,0.0,0.0,0.0,0.0,0.0,0.0,-1.7166,-1.7393,-1.7412,-1.7172,-1.7321,-1.7288,-1.7011,-1.7059,-1.7034,-1.6894,-1.6451,-1.6255,-1.6213,-1.5201,-1.4987,-1.5339,-1.514,-1.5141,-1.5299,0.0,0.0,0.0,0.0,-1.5545,-1.532,0.0,0.0,0.0,0.0,0.0,0.0,0.0,0.0,0.0,0.0,0.0,0.0,0.0,0.0,0.0,0.0954,0.0,0.0,0.0,0.0,0.0,0.0,0.0,0.0,0.0,0.0,0.0,0.0,0.0,0.0,0.0,0.0,0.0,0.0,0.0,0.0,0.0,0.0,0.0,0.0,0.0,0.0,0.0,0.0,0.0,0.0,0.0,0.0,0.0,0.0,0.0,0.0,0.0,0.0,0.0,0.0,0.0,0.0,0.0,0.0,0.0,0.0,0.0,0.0,0.0,0.0,0.0,0.0,0.0,0.0,0.0,0.0,0.0,0.0,0.0,0.0,0.0,-1.4194,-1.441,-1.4674,-1.4959,-1.5219,0.0,0.0,0.0,0.0,0.0,0.0,-1.6101,-1.6518,-1.6731,-1.6688,-1.7093,-1.714,-1.687,-1.6814,-1.6673,-1.6438,-1.6151,-1.5968,-1.5882,-1.5661,-1.5467,-1.5291,-1.448,-1.4089,-1.4028,-1.4173,-1.4281,-1.4376,-1.4513,-1.464,-1.4709,-1.4686,-1.4513,-1.4306,0.0,0.0,0.0,0.0,0.0,0.0,0.0,0.0,0.0,0.0,0.0,0.0,0.0,0.0,0.0813,0.0477,0.0421,0.0364,0.0,0.0,0.0,0.0,0.0,0.0,0.0,0.0,0.0,0.0,0.0,0.0,0.0,0.0,0.0,0.0,0.0,0.0,0.0,0.0,0.0,0.0,0.0,0.0,0.0,0.0,0.0,0.0,0.0,0.0,0.0,0.0,0.0,0.0,0.0,0.0,0.0,0.0,0.0,0.0,0.0,0.0,0.0,0.0,0.0,0.0,0.0,0.0,0.0,0.0,0.0,0.0,0.0,0.0,0.0,0.0,0.0,0.0,0.0,0.0,0.0,-1.5209,-1.5552,0.0,0.0,0.0,0.0,-1.6457,-1.6239,-1.6099,-1.6099,-1.6242,-1.628,-1.613,-1.6161,-1.6104,-1.596,-1.5796,-1.5623,-1.5468,-1.5313,-1.5079,-1.4765,-1.4617,-1.4288,-1.3768,-1.3147,-1.2699,-1.2472,-1.3165,-1.3457,-1.3481,-1.361,-1.3658,-1.3658,-1.3539,-1.3409,-1.3256,0.0,0.0,0.0,0.0,0.0,0.0,0.0,0.0,0.0,0.0,0.0,0.0,0.0,0.0589,0.0505,0.028,0.028,0.0224,0.0084,0.0,0.0,0.0,0.0,0.0,0.0,0.0,0.0,0.0,0.0,0.0,0.0,0.0,0.0,0.0,0.0,0.0,0.0,0.0,0.0,0.0,0.0,0.0,0.0,0.0,0.0,0.0,0.0,0.0,0.0,0.0,0.0,0.0,0.0,0.0,0.0,0.0,0.0,0.0,0.0,0.0,0.0,0.0,0.0,0.0,0.0,0.0,0.0,0.0,0.0,0.0,0.0,0.0,0.0,0.0,0.0,0.0,0.0,0.0,0.0,-1.4937,-1.5078,0.0,-1.5523,-1.5606,-1.5713,-1.5902,-1.5916,-1.5869,-1.571,-1.5751,-1.5595,-1.5216,-1.5206,-1.5079,-1.4805,-1.4737,-1.456,-1.4312,-1.4163,-1.388,-1.3465,-1.3193,-1.29,-1.2504,-1.1902,-1.156,-1.1464,-1.148,-1.1857,-1.2452,-1.2448,-1.2438,-1.2438,-1.2282,-1.2159,-1.2012,0.0,0.0,0.0,0.0,0.0,0.0,0.0,0.0,0.0,0.0,0.0,0.0617,0.0364,0.0336,0.028,0.014,0.014,0.0084,0.0,0.0,0.0,0.0,0.0,0.0,0.0,0.0,0.0,0.0,0.0,0.0,0.0,0.0,0.0,0.0,0.0,0.0,0.0,0.0,0.0,0.0,0.0,0.0,-1.008,0.0,0.0,0.0,0.0,0.0,0.0,0.0,0.0,0.0,0.0,0.0,0.0,0.0,0.0,0.0,0.0,0.0,0.0,0.0,0.0,0.0,0.0,0.0,0.0,0.0,0.0,0.0,0.0,0.0,0.0,0.0,0.0,0.0,0.0,0.0,-1.4022,-1.4513,-1.4621,-1.4739,-1.4958,-1.5031,-1.5127,-1.525,-1.5225,-1.5104,-1.4826,-1.4839,-1.4597,-1.4142,-1.4133,-1.4004,-1.3734,-1.3674,-1.3502,-1.323,-1.2923,-1.2584,-1.2209,-1.1847,-1.148,-1.1067,-1.0678,-1.0401,-1.0227,-0.9974,-1.0244,-1.0812,-1.1149,-1.1241,-1.1191,-1.104,-1.0939,-1.0838,0.0,0.0,0.0,0.0,0.0,0.0,0.0,0.0,0.0,0.0,0.0393,0.0336,0.0196,0.0196,0.014,0.0,0.0,0.0,0.0,0.0,0.0,0.0,0.0,0.0,0.0,0.0,0.0,0.0,0.0,0.0,0.0,0.0,0.0,0.0,0.0,0.0,0.0,0.0,0.0,0.0,0.0,0.0,-1.0146,0.0,0.0,0.0,0.0,0.0,0.0,0.0,0.0,0.0,0.0,0.0,0.0,0.0,0.0,0.0,0.0,0.0,0.0,0.0,0.0,0.0,0.0,0.0,0.0,0.0,0.0,0.0,0.0,0.0,0.0,0.0,0.0,0.0,-1.2947,-1.327,-1.3642,-1.4016,-1.4236,-1.4512,-1.4835,-1.4681,-1.4555,-1.4581,-1.4212,-1.3844,-1.3499,-1.3475,-1.3303,-1.2956,-1.2948,-1.2887,-1.2734,-1.2536,-1.239,-1.222,-1.1631,-1.1256,-1.1004,-1.0617,-1.0066,-0.9446,-0.9446,-0.9173,-0.8751,-0.8751,-0.8672,-0.8646,-0.9729,-1.0064,-0.9909,-0.9788,-0.9736,-0.9684,0.0,0.0,0.0,0.0,0.0,0.0,0.0,0.0,0.0,0.0,0.0252,0.0196,0.0056,0.0056,0.0028,0.0,0.0084,0.014,0.014,0.0,0.0,0.0,0.0,0.0,0.0,0.0,0.0,0.0,0.0,0.0,0.0,0.0,0.0,0.0,0.0,0.0,0.0,0.0,0.0,0.0,0.0,0.0,-0.9774,0.0,0.0,0.0,0.0,0.0,0.0,0.0,0.0,0.0,0.0,0.0,0.0,0.0,0.0,0.0,0.0,0.0,0.0,0.0,0.0,0.0,0.0,0.0,0.0,0.0,0.0,0.0,0.0,0.0,0.0,0.0,0.0,-1.2386,-1.291,-1.3095,-1.3274,-1.3603,-1.372,-1.3786,-1.3876,-1.3837,-1.3856,-1.4019,-1.3935,-1.3585,-1.3027,-1.2989,-1.263,-1.1778,-1.1763,-1.1663,-1.1507,-1.1327,-1.1088,-1.0763,-1.046,-0.9955,-0.9276,-0.9084,-0.8703,-0.8174,-0.7979,-0.783,-0.7717,-0.761,-0.7396,-0.7257,-0.8435,-0.8797,-0.86,-0.8475,-0.829,-0.8098,0.0,0.0,0.0,0.0,0.0,0.0,0.0,0.0,0.0,0.0,0.0112,0.0084,0.0,0.0056,0.0084,0.0084,0.0196,0.028,0.028,0.0,0.0,0.0,0.0,0.0,0.0,0.0,0.0,0.0,0.0,0.0,0.0,0.0,0.0,0.0,0.0,0.0,0.0,0.0,0.0,0.0,0.0,0.0,-0.9349,-0.9751,-1.0335,-1.0945,-1.1152,-1.1537,-1.1961,-1.186,0.0,0.0,0.0,0.0,0.0,0.0,0.0,0.0,0.0,0.0,0.0,0.0,0.0,0.0,0.0,0.0,0.0,0.0,0.0,0.0,0.0,0.0,0.0,0.0,-1.1421,-1.1719,-1.2024,-1.2368,-1.2625,-1.2725,-1.2746,-1.2746,-1.2746,-1.2746,-1.2783,-1.2915,-1.2832,-1.2551,-1.2017,-1.1896,-1.1469,-1.0713,-1.0667,-1.0512,-1.0168,-1.0012,-0.9741,-0.9364,-0.8978,-0.8532,-0.7953,-0.7683,-0.7346,-0.6972,-0.6777,-0.6637,-0.6561,-0.6426,-0.6154,-0.6014,0.0,0.0,0.0,0.0,-0.6923,-0.6654,0.0,0.0,0.0,0.0,0.0,0.0,0.0,0.0,0.0,0.0,0.0,0.0028,0.0028,0.014,0.0224,0.0224,0.0364,0.0477,0.0,0.0,0.0,0.0,0.0,0.0,0.0,0.0,0.0,0.0,0.0,0.0,0.0,0.0,0.0,0.0,0.0,0.0,0.0,0.0,0.0,0.0,0.0,0.0,-0.8871,-0.9469,-1.0091,-1.0706,-1.117,-1.1584,-1.1888,-1.1699,0.0,0.0,0.0,0.0,0.0,0.0,0.0,0.0,0.0,0.0,0.0,0.0,0.0,0.0,0.0,0.0,0.0,0.0,0.0,0.0,0.0,0.0,0.0,0.0,-1.0773,-1.073,-1.0634,-1.1223,-1.1626,-1.1558,-1.1558,-1.1558,-1.1558,-1.1558,-1.1558,-1.1558,-1.1379,-1.1108,-1.072,-1.0466,0.0,0.0,0.0,-0.9298,-0.8844,-0.86,-0.8306,-0.7966,-0.7406,-0.7041,-0.6846,-0.6409,-0.6082,-0.5837,-0.5664,-0.5527,-0.5399,-0.5171,-0.4921,-0.4787,-0.5905,-0.6177,-0.5959,-0.5819,-0.5569,-0.5296,0.0,0.0,0.0,0.0,0.0,0.0,0.0,0.0,0.0,0.0,0.0084,0.0168,0.0168,0.028,0.0364,0.0364,0.0645,0.0898,0.0,0.0,0.0,0.0,0.0,0.0,0.0,0.0,0.0,0.0,0.0,0.0,0.0,0.0,0.0,0.0,0.0,0.0,0.0,0.0,0.0,0.0,0.0,0.0,-0.8393,-0.8815,-0.9322,-0.9805,-1.0168,-1.0516,-1.0856,-1.1107,-1.131,-1.1481,-1.1691,0.0,0.0,0.0,0.0,0.0,0.0,0.0,0.0,0.0,0.0,0.0,0.0,0.0,0.0,0.0,0.0,0.0,0.0,0.0,0.0,-1.0022,-0.9913,-0.9793,-0.9614,-0.9571,-0.9868,-1.0625,-1.0738,-1.0738,-1.0738,-1.0738,-1.0738,-1.0738,-1.0535,-1.0165,-0.9567,-0.931,-0.8931,-0.8376,-0.8091,-0.7913,-0.7804,-0.7335,-0.6929,-0.6573,-0.6306,0.0,-0.5329,-0.5242,-0.5038,-0.4763,-0.4477,-0.434,-0.4284,-0.3868,-0.3539,-0.3375,-0.4312,-0.4642,-0.4563,-0.4315,-0.4177,-0.4095,0.0,0.0,0.0,0.0,0.0,0.0,0.0,0.0,0.0,0.0,0.0168,0.0224,0.028,0.0449,0.0589,0.0645,0.0926,0.0,0.0,0.0,0.0,0.0,0.0,0.0,0.0,0.0,0.0,0.0,0.0,0.0,0.0,0.0,0.0,0.0,0.0,0.0,0.0,0.0,0.0,0.0,0.0,0.0,-0.69,-0.7819,-0.8431,-0.8877,-0.9172,-0.9588,-1.0034,-1.0225,-1.0471,-1.0692,-1.0958,-1.0909,-1.0755,0.0,0.0,0.0,0.0,0.0,0.0,0.0,0.0,0.0,0.0,0.0,0.0,0.0,0.0,-0.9271,0.0,0.0,-0.9196,-0.9236,-0.9128,-0.8937,-0.8713,-0.8513,-0.8699,-0.9496,-0.9609,-0.9609,-0.9609,-0.9496,-0.9412,-0.9368,-0.9031,-0.8664,-0.828,-0.7957,-0.7579,-0.7118,-0.6885,-0.6582,-0.6267,-0.5927,-0.5525,-0.5093,-0.4932,-0.4556,-0.3987,-0.3987,-0.3849,-0.3569,-0.3236,-0.3098,-0.3067,-0.251,-0.2176,-0.2011,-0.2232,-0.2679,-0.3181,-0.2961,-0.2822,-0.2674,0.0,0.0,0.0,0.0,0.0,0.0,0.0,0.0,0.0,0.0,0.0,0.0336,0.0449,0.0645,0.087,0.0,0.0,0.0,0.0,0.0,0.0,0.0,0.0,0.0,0.0,0.0,0.0,0.0,0.0,0.0,0.0,0.0,0.0,0.0,0.0,0.0,0.0,0.0,0.0,0.0,0.0,0.0,-0.5259,-0.647,-0.7321,-0.7907,-0.8199,-0.8646,-0.9134,-0.9262,-0.948,-0.9735,-0.9977,-1.0047,-1.0034,-0.9928,-0.9855,0.0,0.0,0.0,0.0,0.0,0.0,0.0,0.0,0.0,-0.8776,-0.8661,-0.8578,-0.852,-0.8447,-0.8411,-0.8393,-0.8447,-0.8284,-0.8059,-0.7906,-0.7633,-0.7668,-0.8165,-0.8356,-0.8437,-0.8399,-0.8248,-0.8087,-0.7922,-0.7471,-0.7137,-0.6997,-0.6606,-0.6226,-0.5895,-0.5665,-0.5286,-0.468,-0.4503,-0.4175,-0.3649,-0.3544,-0.3241,-0.2796,-0.2766,-0.2625,-0.2373,-0.2014,-0.1792,-0.1651,-0.1174,-0.0866,-0.0671,-0.0224,-0.0672,-0.1538,-0.1595,-0.1476,-0.1241,0.0,0.0,0.0,0.0,0.0,0.0,0.0,0.0,0.0,0.0,0.0,0.0,0.0,0.0,0.0,0.0,0.0,0.0,0.0,0.0,0.0,0.0,0.0,0.0,0.0,0.0,0.0,0.0,0.0,0.0,0.0,0.0,0.0,0.0,0.0,0.0,0.0,0.0,0.0,0.0,0.0,0.0,-0.4228,-0.4725,-0.5613,-0.6695,-0.7354,-0.7652,-0.7814,-0.8425,-0.8651,-0.8716,-0.9043,-0.9145,-0.9139,-0.9111,0.0,-0.8763,-0.8703,-0.8471,-0.828,-0.8489,-0.8323,-0.81,0.0,0.0,-0.7911,-0.8055,-0.7787,-0.7607,-0.7833,-0.7753,-0.7613,-0.7633,-0.7326,-0.7057,-0.7019,-0.6668,-0.6395,-0.6472,-0.7169,-0.7561,-0.7373,-0.7229,-0.7088,-0.6875,-0.6391,-0.6035,-0.5886,-0.5439,-0.5049,-0.4686,-0.4267,-0.3896,-0.3571,-0.3275,-0.286,-0.2406,-0.2378,-0.2153,-0.1761,-0.1593,-0.1425,-0.1257,-0.0812,-0.0336,0.0112,0.0168,0.0392,0.0698,0.1006,0.1034,0.081,0.0056,-0.0165,-0.008,0.0,0.0,0.0,0.0,0.0,0.0,0.0,0.0,0.0,0.0,0.0,0.0,0.0,0.0,0.0,0.0,0.0,0.0,0.0,0.0,0.0,0.0,0.0,0.0,0.0,0.0,0.0,0.0,0.0,0.0,0.0,0.0,0.0,0.0,0.0,0.0,0.0,0.0,0.0,0.0,0.0,0.0,-0.3121,-0.3591,-0.4256,-0.5047,-0.6178,-0.6704,0.0,0.0,-0.7587,-0.7782,-0.8042,-0.8177,-0.8279,-0.8376,-0.834,0.0,-0.8,-0.7676,-0.7402,0.0,-0.7418,-0.7299,-0.7069,-0.7119,-0.7173,-0.6987,-0.6956,-0.6939,-0.6884,-0.6784,-0.6745,0.0,-0.6395,-0.6128,-0.6128,-0.5777,-0.5467,-0.5356,-0.5596,-0.5964,-0.6345,-0.6136,-0.5805,-0.5487,-0.5116,-0.4742,-0.4394,-0.41,-0.3793,-0.3448,-0.3064,-0.2735,-0.248,-0.2138,-0.1789,-0.1429,-0.1232,-0.098,-0.0672,-0.042,-0.0084,0.0307,0.0503,0.0924,0.1456,0.1456,0.1649,0.1983,0.2235,0.229,0.2115,0.1248,0.1049,0.1216,0.0,0.0,0.0,0.0,0.0,0.0,0.0,0.0,0.0,0.0,0.0,0.0,0.0,0.0,0.0,0.0,0.0,0.0,0.0,0.0,0.0,0.0,0.0,0.0,0.0,0.0,0.0,0.0,0.0,0.0,0.0,0.0,0.0,0.0,0.0,0.0,0.0,0.0,0.0,0.0,0.0,0.0,-0.2149,-0.2654,-0.3123,-0.3656,-0.4987,-0.5683,0.0,0.0,-0.6544,-0.6802,-0.7003,-0.7134,-0.7237,-0.7363,-0.7428,-0.7363,-0.7134,0.0,0.0,-0.6379,-0.6382,-0.6348,-0.6047,-0.6198,-0.6332,-0.5999,-0.6058,-0.6093,-0.5896,-0.5854,-0.5854,-0.5854,-0.5544,-0.5276,-0.5276,-0.4927,-0.4577,-0.4384,-0.4256,-0.4365,-0.4813,-0.4783,-0.4548,-0.4206,-0.3848,-0.3448,-0.3061,-0.2808,-0.2546,-0.2234,-0.1893,-0.1577,-0.1315,-0.0979,-0.07,-0.0393,-0.0084,0.0196,0.0448,0.0756,0.1175,0.1704,0.176,0.2096,0.2599,0.2655,0.2832,0.3055,0.3356,0.3393,0.318,0.2581,0.2368,0.2354,0.0,0.0,0.0,0.0,0.0,0.0,0.0,0.0,0.0,0.0,0.0,0.0,0.0,0.0,0.0,0.0,0.0,0.0,0.0,0.0,0.0,0.0,0.0,0.0,0.0,0.0,0.0,0.0,0.0,0.0,0.0,0.0,0.0,0.0,0.0,0.0,0.0,0.0,0.0,0.0,0.0,0.0,-0.1379,-0.1783,-0.2285,-0.2887,-0.3954,0.0,0.0,0.0,-0.5524,-0.5683,-0.5888,-0.5954,0.0,-0.5958,-0.5954,0.0,0.0,0.0,-0.5617,-0.5458,-0.5335,-0.5234,-0.5227,-0.5179,-0.5199,-0.5289,-0.5198,-0.504,-0.504,-0.504,-0.504,-0.504,-0.4693,-0.4421,-0.4421,-0.4073,-0.3722,-0.3487,-0.3262,-0.296,0.0,-0.3094,-0.336,-0.3151,-0.2525,-0.2157,-0.213,-0.1629,-0.1276,-0.1058,-0.0656,-0.0337,-0.0056,0.0224,0.0505,0.0842,0.1119,0.1342,0.1566,0.1959,0.2322,0.2681,0.2933,0.3241,0.3569,0.3843,0.3908,0.3904,0.4311,0.4346,0.4172,0.4285,0.3876,0.3263,0.0,0.0,0.0,0.0,0.0,0.0,0.0,0.0,0.0,0.0,0.0,0.0,0.0,0.0,0.0,0.0,0.0,0.0,0.0,0.0,0.0,0.0,0.0,0.0,0.0,0.0,0.0,0.0,0.0,0.0,0.0,0.0,0.0,0.0,0.0,0.0,0.0,0.0,0.0,0.0,0.0,0.0,-0.047,-0.084,-0.1378,-0.2016,0.0,0.0,0.0,0.0,0.0,0.0,-0.488,0.0,0.0,-0.5064,0.0,0.0,0.0,0.0,-0.4389,-0.4359,-0.4384,-0.4399,-0.4298,-0.4338,-0.4374,-0.4327,-0.4268,-0.419,-0.419,-0.419,-0.419,-0.419,-0.3837,-0.3522,-0.3522,-0.3095,-0.2649,-0.2414,-0.206,0.0,0.0,0.0,0.0,-0.1809,-0.156,-0.1225,-0.0721,-0.0578,-0.0324,0.0114,0.0338,0.0588,0.0867,0.1175,0.1483,0.1764,0.2265,0.2653,0.2931,0.3262,0.3569,0.3904,0.4181,0.4453,0.4718,0.4774,0.488,0.503,0.5119,0.5127,0.5085,0.525,0.5161,0.4888,0.0,0.0,0.0,0.0,0.0,0.0,0.0,0.0,0.0,0.0,0.0,0.0,0.0,0.0,0.0,0.0,0.0,0.0,0.0,0.0,0.0,0.0,0.0,0.0,0.0,0.0,0.0,0.0,0.0,0.0,0.0,0.0,0.0,0.0,0.0,0.0,0.0,0.0,0.0,0.0,0.0,0.0,0.0269,-0.0034,-0.0571,0.0,0.0,0.0,0.0,0.0,0.0,0.0,0.0,0.0,0.0,0.0,0.0,0.0,0.0,-0.3487,-0.3389,-0.3322,-0.3391,-0.3445,-0.3289,-0.3333,-0.3418,-0.335,-0.3328,-0.3337,-0.3327,-0.3333,-0.3333,-0.3333,-0.2978,-0.2663,-0.2663,-0.2141,-0.1693,-0.1477,-0.1064,-0.0714,0.0,0.0,0.0,-0.0706,-0.0524,-0.0191,0.0309,0.0479,0.0724,0.1093,0.14,0.1623,0.1788,0.2235,0.2627,0.3016,0.3408,0.3793,0.4153,0.4367,0.4646,0.4983,0.5254,0.5523,0.5756,0.572,0.5798,0.5916,0.5931,0.5867,0.5812,0.6035,0.6161,0.6093,0.0,0.0,0.0,0.0,0.0,0.0,0.0,0.0,0.0,0.0,0.0,0.0,0.0,0.0,0.0,0.0,0.0,0.0,0.0,0.0,0.0,0.0,0.4138,0.4301,0.0,0.0,0.0,0.0,0.0,0.0,0.0,0.0,0.0,0.0,0.0,0.0,0.0,0.0,0.0,0.0,0.0,0.0,0.084,0.0605,0.0,0.0,0.0,0.0,0.0,0.0,0.0,0.0,0.0,0.0,0.0,0.0,0.0,-0.2619,-0.2619,-0.2619,-0.2586,-0.2383,-0.2431,-0.2481,-0.2279,-0.2286,-0.2379,-0.2441,-0.2453,-0.2471,0.0,0.0,-0.2427,-0.2427,-0.2116,-0.1843,-0.1843,-0.1306,-0.087,0.0,0.0,0.0,0.0,0.0,0.0,0.0201,0.0653,0.0951,0.0984,0.152,0.185,0.1903,0.2458,0.2764,0.2792,0.3375,0.3987,0.4546,0.457,0.4794,0.5152,0.5308,0.5578,0.5882,0.6154,0.6426,0.6676,0.6655,0.6604,0.6594,0.6677,0.6567,0.6395,0.6662,0.6838,0.6851,0.0,0.0,0.0,0.0,0.0,0.0,0.0,0.0,0.0,0.0,0.0,0.0,0.0,0.0,0.0,0.0,0.0,0.0,0.0,0.0,0.0,0.0,0.0,0.0,0.0,0.0,0.0,0.0,0.0,0.0,0.0,0.0,0.0,0.0,0.0,0.0,0.0,0.0,0.0,0.0,0.0,0.0,0.158,0.0,0.0,0.0,0.0,0.0,0.0,0.0,0.0,0.0,0.0,0.0,-0.1848,0.0,0.0,-0.1647,-0.1545,-0.1511,-0.1511,-0.1444,-0.1452,-0.1468,-0.1465,-0.1585,-0.1676,-0.1757,-0.1878,-0.1918,0.0,0.0,0.0,-0.1605,-0.1241,0.0,-0.0942,-0.0307,0.0,0.0184,0.0,0.1251,0.1532,0.1991,0.0,0.0,0.1869,0.1783,0.2087,0.2335,0.2675,0.3125,0.3292,0.3597,0.4042,0.4591,0.4948,0.5089,0.5555,0.5828,0.5937,0.6431,0.6701,0.6783,0.7155,0.7423,0.7543,0.7249,0.7291,0.7495,0.7092,0.7045,0.7203,0.7384,0.7538,0.7621,0.0,0.0,0.0,0.0,0.0,0.0,0.0,0.0,0.0,0.0,0.0,0.0,0.0,0.0,0.0,0.0,0.0,0.0,0.0,0.0,0.0,0.0,0.0,0.0,0.0,0.0,0.0,0.0,0.0,0.0,0.0,0.0,0.0,0.0,0.0,0.0,0.0,0.0,0.0,0.0,0.0,0.0,0.0,0.0,0.0,0.0,0.0,0.0,0.0,0.0,0.0,-0.0937,-0.0948,-0.0863,-0.0739,-0.0638,0.0,-0.0504,-0.0504,-0.047,-0.0504,-0.0605,-0.0605,-0.0641,-0.0789,-0.0861,-0.0937,-0.1069,-0.1182,0.0,0.0,0.0,0.0,0.0,0.0,0.0,-0.0114,0.0521,0.102,0.0,0.1678,0.0,0.2458,0.2889,0.3234,0.0,0.289,0.2703,0.3001,0.3187,0.3489,0.3987,0.4098,0.4457,0.5066,0.5496,0.5773,0.5909,0.6372,0.6647,0.6777,0.7235,0.7536,0.7702,0.8037,0.8302,0.8455,0.8159,0.8136,0.8255,0.7858,0.7737,0.7829,0.7995,0.8139,0.8255,0.0,0.0,0.0,0.0,0.0,0.0,0.0,0.0,0.0,0.0,0.0,0.0,0.0,0.0,0.0,0.0,0.0,0.0,0.0,0.0,0.0,0.0,0.0,0.0,0.0,0.0,0.0,0.0,0.0,0.0,0.0,0.0,0.0,0.0,0.0,0.0,0.0,0.0,0.0,0.0,0.0,0.0,0.0,0.0,0.0,0.0,0.0,0.0,0.0,0.0,0.0662,-0.0033,-0.01,0.0134,0.0437,0.0437,0.0538,0.0605,0.047,0.0437,0.0403,0.0202,0.0134,0.0067,-0.0101,-0.0202,-0.0271,-0.0451,0.0,-0.0526,-0.0503,-0.0362,-0.0254,-0.0254,0.0,0.0656,0.0656,0.1282,0.1823,0.2033,0.2529,0.2987,0.336,0.3713,0.3948,0.4075,0.3828,0.371,0.3822,0.4054,0.4353,0.4708,0.4979,0.5418,0.5964,0.6236,0.6534,0.6864,0.7133,0.7408,0.7649,0.7931,0.8229,0.8527,0.8804,0.9066,0.9295,0.9159,0.9057,0.8973,0.8781,0.8557,0.8395,0.8557,0.8675,0.8805,0.0,0.0,0.0,0.0,0.0,0.0,0.0,0.0,0.0,0.0,0.0,0.0,0.0,0.0,0.0,0.0,0.0,0.0,0.0,0.0,0.0,0.0,0.0,0.0,0.0,0.0,0.0,0.0,0.0,0.0,0.0,0.0,0.0,0.0,0.0,0.0,0.0,0.0,0.0,0.0,0.0,0.0,0.0,0.0,0.0,0.0,0.0,0.0,0.0,0.0,0.1374,0.0868,0.0873,0.0975,0.1143,0.1143,0.1277,0.1379,0.1176,0.1143,0.1076,0.0941,0.0773,0.0638,0.0605,0.0404,0.0,0.0,0.0,-0.0068,0.0102,0.0243,0.0388,0.0564,0.0,0.0,0.0,0.0,0.2591,0.0,0.0,0.0,0.0,0.4431,0.0,0.0,0.5029,0.4855,0.4539,0.4888,0.5336,0.5882,0.6209,0.6539,0.6864,0.7139,0.7402,0.7685,0.8017,0.8256,0.8415,0.8811,0.8995,0.908,0.9458,0.9718,0.984,0.9709,0.9825,0.9978,0.9412,0.926,0.9351,0.922,0.9179,0.9219,0.0,0.0,0.0,0.0,0.0,0.0,0.0,0.0,0.0,0.0,0.0,0.0,0.0,0.0,0.0,0.0,0.0,0.0,0.0,0.0,0.0,0.0,0.0,0.0,0.0,0.0,0.0,0.0,0.0,0.0,0.0,0.0,0.0,0.0,0.0,0.0,0.0,0.0,0.0,0.0,0.0,0.0,0.0,0.0,0.0,0.0,0.0,0.0,0.0,0.0,0.215,0.1914,0.1715,0.1749,0.1884,0.1884,0.2017,0.2118,0.1918,0.1884,0.1817,0.158,0.1446,0.1311,0.1109,0.0,0.0,0.0,0.0471,0.0437,0.0538,0.0,0.0,0.0,0.0,0.0,0.0,0.0,0.0,0.0,0.0,0.0,0.0,0.5255,0.5419,0.584,0.5969,0.5806,0.5293,0.5746,0.6236,0.6647,0.6945,0.7241,0.7503,0.7809,0.8096,0.8375,0.8679,0.8896,0.9021,0.942,0.9603,0.9655,1.0138,1.0395,1.0472,1.0556,1.0589,1.0597,1.0346,1.0078,0.9853,0.9917,0.9809,0.9686,0.0,0.0,0.0,0.0,0.0,0.0,0.0,0.0,0.0,0.0,0.0,0.0,0.0,0.0,0.0,0.0,0.0,0.0,0.0,0.0,0.0,0.0,0.0,0.0,0.0,0.0,0.0,0.0,0.0,0.0,0.0,0.0,0.0,0.0,0.0,0.0,0.0,0.0,0.0,0.0,0.0,0.0,0.0,0.0,0.0,0.0,0.0,0.0,0.0,0.0,0.2743,0.2696,0.25,0.2511,0.2591,0.2626,0.279,0.2887,0.2691,0.2579,0.2468,0.2167,0.2023,0.1882,0.1518,0.1326,0.0,0.0,0.097,0.0975,0.1042,0.0,0.0,0.0,0.0,0.0,0.0,0.0,0.0,0.0,0.0,0.0,0.0,0.5997,0.0,0.6495,0.6745,0.6662,0.6191,0.662,0.7025,0.7381,0.7595,0.7857,0.817,0.8441,0.8732,0.9066,0.9256,0.9472,0.9647,1.0017,1.0205,1.0231,1.0794,1.1049,1.1099,1.1326,1.1353,1.1193,1.1205,1.0931,1.0551,1.0681,1.0514,1.0252,0.0,0.0,0.0,0.0,0.0,0.0,0.0,0.0,0.0,0.0,0.0,0.0,0.0,0.0,0.0,0.0,0.0,0.0,0.0,0.0,0.0,0.0,0.0,0.0,0.0,0.0,0.0,0.0,0.0,0.0,0.0,0.0,0.0,0.0,0.0,0.0,0.0,0.0,0.0,0.0,0.0,0.0,0.0,0.0,0.0,0.0,0.0,0.0,0.0,0.0,0.0,0.2842,0.3103,0.316,0.3161,0.333,0.0,0.0,0.3462,0.3232,0.2974,0.2779,0.244,0.2113,0.1895,0.0,0.0,0.1455,0.1486,0.158,0.1749,0.1985,0.0,0.0,0.0,0.0,0.0,0.0,0.0,0.0,0.0,0.0,0.0,0.6487,0.6504,0.7171,0.7342,0.7409,0.7354,0.7386,0.7676,0.8262,0.8315,0.8553,0.908,0.9106,0.9394,0.9895,0.9921,1.0102,1.0411,1.0693,1.082,1.0845,1.1251,1.1519,1.1653,1.1778,1.1974,1.2141,1.1793,1.1761,1.1881,1.1606,1.1294,1.1023,0.0,0.0,0.0,0.0,0.0,0.0,0.0,0.0,0.0,0.0,0.0,0.0,0.0,0.0,0.0,0.0,0.0,0.0,0.0,0.0,0.0,0.0,0.0,0.0,0.0,0.0,0.0,0.0,0.0,0.0,0.0,0.0,0.0,0.0,0.0,0.0,0.0,0.0,0.0,0.0,0.0,0.0,0.0,0.0,0.0,0.0,0.0,0.0,0.0,0.0,0.0,0.0,0.3151,0.3288,0.0,0.0,0.3512,0.3541,0.3448,0.3355,0.3199,0.2945,0.2733,0.2555,0.225,0.0,0.2031,0.1998,0.2045,0.2153,0.2353,0.2622,0.2924,0.0,0.0,0.0,0.0,0.0,0.0,0.0,0.0,0.0,0.0,0.0,0.7496,0.8034,0.8072,0.8182,0.8501,0.8209,0.8289,0.887,0.887,0.9133,0.9681,0.9681,0.9921,1.0411,1.0488,1.0641,1.0871,1.115,1.1301,1.1402,1.1728,1.1952,1.2076,1.22,1.2372,1.2535,1.2445,1.2357,1.2293,1.2306,1.2118,1.1838,0.0,0.0,0.0,0.0,0.0,0.0,0.0,0.0,0.0,0.0,0.0,0.0,0.0,0.0,0.0,0.0,0.0,0.0,0.0,0.0,0.0,0.0,0.0,0.0,0.0,0.0,0.0,0.0,0.0,0.0,0.0,0.0,0.0,0.0,0.0,0.0,0.0,0.0,0.0,0.0,0.0,0.0,0.0,0.0,0.0,0.0,0.0,0.0,0.0,0.0,0.0,0.0,0.0,0.0,0.0,0.0,0.3508,0.3541,0.3541,0.3488,0.3374,0.3127,0.2985,0.2817,0.0,0.0,0.242,0.2418,0.2491,0.2658,0.2889,0.319,0.3491,0.0,0.0,0.4664,0.0,0.0,0.0,0.0,0.0,0.7433,0.0,0.8195,0.8408,0.8708,0.8662,0.8844,0.9283,0.9028,0.9028,0.9368,0.942,0.9655,1.0128,1.0231,1.0462,1.0871,1.1023,1.115,1.1301,1.1553,1.1728,1.1828,1.2101,1.2323,1.248,1.2578,1.27,1.2861,1.2992,1.2928,1.2778,1.3006,1.2922,1.2678,0.0,0.0,0.0,0.0,0.0,0.0,0.0,0.0,0.0,0.0,0.0,0.0,0.0,0.0,0.0,0.0,0.0,0.0,0.0,0.0,0.0,0.0,0.0,0.0,0.0,0.0,0.0,0.0,0.0,0.0,0.0,0.0,0.0,0.0,0.0,0.0,0.0,0.0,0.0,0.0,0.0,0.0,0.0,0.0,0.0,0.0,0.0,0.0,0.0,0.0,0.0,0.0,0.0,0.0,0.0,0.0,0.3781,0.3903,0.3903,0.3702,0.3499,0.3499,0.319,0.2863,0.0,0.0,0.2684,0.2709,0.284,0.3092,0.3431,0.3661,0.3892,0.4233,0.0,0.0,0.0,0.0,0.0,0.0,0.0,0.8214,0.8738,0.9017,0.9138,0.9017,0.9112,0.9309,0.9588,0.9836,0.9921,0.9799,0.9921,1.0154,1.0496,1.0769,1.1023,1.1301,1.1427,1.1553,1.1703,1.1977,1.2101,1.2101,1.2382,1.2652,1.2881,1.2905,1.3007,1.3218,1.3338,1.3467,1.361,1.3739,1.3667,1.352,0.0,0.0,0.0,0.0,0.0,0.0,0.0,0.0,0.0,0.0,0.0,0.0,0.0,0.0,0.0,0.0,0.0,0.0,0.0,0.0,0.0,0.0,0.0,0.0,0.0,0.0,0.0,0.0,0.0,0.0,0.0,0.0,0.0,0.0,0.0,0.0,0.0,0.0,0.0,0.0,0.0,0.0,0.0,0.0,0.0,0.0,0.0,0.0,0.0,0.0,0.0,0.0,0.0,0.0,0.0,0.0,0.0,0.0,0.3548,0.3553,0.3555,0.3468,0.3329,0.3212,0.3139,0.0,0.3193,0.329,0.3435,0.3658,0.3997,0.4097,0.4331,0.4964,0.5256,0.0,0.0,0.0,0.0,0.0,0.8436,0.9081,0.0,0.9622,0.9677,0.9868,0.9802,0.9895,1.0198,1.0462,1.0514,1.029,1.0488,1.0744,1.1049,1.1226,1.1402,1.1578,1.1803,1.1927,1.1977,1.2249,1.2431,1.2529,1.27,1.2881,1.3051,1.3094,1.3252,1.3491,1.3515,1.3729,1.4035,1.4163,1.4239,1.4269,0.0,0.0,0.0,0.0,0.0,0.0,0.0,0.0,0.0,0.0,0.0,0.0,0.0,0.0,0.0,0.0,0.0,0.0,0.0,0.0,0.0,0.0,0.0,0.0,0.0,0.0,0.0,0.0,0.0,0.0,0.0,0.0,0.0,0.0,0.0,0.0,0.0,0.0,0.0,0.0,0.0,0.0,0.0739,0.0,0.0,0.0,0.0,0.0,0.0,0.0,0.0,0.0,0.0,0.0,0.0,0.0,0.0,0.0,0.0,0.3357,0.3413,0.3413,0.3357,0.0,0.0,0.0,0.348,0.3778,0.3919,0.4095,0.4434,0.4597,0.4897,0.5392,0.5719,0.0,0.0,0.0,0.0,0.0,0.0,0.0,0.0,1.0295,1.0371,1.0558,1.0465,1.0449,1.0624,1.0896,1.0998,1.0871,1.1049,1.12,1.1368,1.1603,1.1778,1.1852,1.2126,1.2249,1.2249,1.248,1.2652,1.2783,1.2929,1.3075,0.0,1.33,1.3491,1.3692,1.3834,1.4035,1.4292,1.4501,1.4674,1.48,0.0,0.0,0.0,0.0,0.0,0.0,0.0,0.0,0.0,0.0,0.0,0.0,0.0,0.0,0.0,0.0,0.0,0.0,0.0,0.0,0.0,0.0,0.0,0.0,0.0,0.0,0.0,0.0,-0.048,-0.0295,-0.0088,0.0,0.0,0.0,0.0,0.0,0.0,0.0,0.0,0.0,0.0,0.0,0.0,0.0,0.0,0.0,0.0,0.0,0.0,0.0,0.0,0.0,0.0,0.0,0.0,0.0,0.0,0.0,0.0,0.0,0.0,0.0,0.0,0.0,0.0,0.0,0.0,0.0,0.4287,0.4434,0.4764,0.5163,0.5458,0.5617,0.6115,0.0,0.0,0.0,0.0,0.0,1.0009,0.0,1.0839,1.1016,1.1115,1.103,1.104,1.1029,1.0921,1.1192,1.1402,1.1553,1.1544,1.1544,1.1553,1.1927,1.2126,1.2126,1.2397,1.2529,1.2529,1.2686,1.2808,1.292,1.3075,1.3234,1.342,1.3573,1.3716,1.3892,1.4257,1.443,1.4489,1.48,1.5006,1.5153,0.0,0.0,0.0,0.0,0.0,0.0,0.0,0.0,0.0,0.0,0.0,0.0,0.0,0.0,0.0,0.0,0.0,0.0,0.0,0.0,0.0,0.0,0.0,0.0,0.0,0.0,0.0,-0.1595,-0.1331,-0.1144,-0.1001,-0.0797,0.0,0.0,0.0,0.0,0.0,0.0,0.0,0.0,0.0,0.0,0.0,0.0,0.0,0.0,0.0143,0.0257,0.0,0.0,0.0,0.0,0.0,0.0,0.0,0.0,0.199,0.0,0.0,0.0,0.0,0.0,0.0,0.0,0.0,0.0,0.0,0.0,0.0,0.4694,0.5163,0.5425,0.5686,0.6148,0.6675,0.7204,0.7727,0.0,0.0,1.004,1.046,1.0863,1.1373,1.1533,1.1563,1.1401,1.154,1.1495,1.1217,1.1553,1.1828,1.1952,1.2051,1.2051,1.1952,1.2249,1.2406,1.2406,1.2578,1.271,1.2808,1.2929,1.3065,1.3132,1.3382,1.3501,1.3563,1.3821,1.4057,1.4267,1.435,1.4628,1.4949,1.5017,1.5198,1.5424,0.0,0.0,0.0,0.0,0.0,0.0,0.0,0.0,0.0,0.0,0.0,0.0,0.0,0.0,0.0,0.0,0.0,0.0,0.0,0.0,0.0,0.0,0.0,0.0,0.0,0.0,0.0,0.0,0.0,-0.1865,0.0,0.0,0.0,0.0,0.0,0.0,0.0,0.0,0.0,0.0,0.0,0.0,0.0,0.0,0.0,0.0,-0.0364,-0.0224,0.0,0.014,0.0364,0.0617,0.0,0.0,0.0,0.0,0.157,0.0,0.0,0.0,0.0,0.0,0.0,0.0,0.0,0.0,0.0,0.0,0.0,0.0,0.5425,0.5752,0.0,0.6552,0.7073,0.0,0.0,0.0,0.0,1.046,1.0902,1.1373,1.1872,1.2073,1.216,1.2192,1.2119,1.2033,1.1953,1.1977,1.2076,1.2274,1.2397,1.2431,1.2274,1.248,1.2627,1.2686,1.2832,1.2944,1.3045,1.3104,1.3238,1.3386,1.3539,1.3705,1.3894,1.4093,1.4314,1.45,1.4651,1.488,1.5108,1.5323,1.5503,1.5647,0.0,0.0,0.0,0.0,0.0,0.0,0.0,0.0,0.0,0.0,0.0,0.0,0.0,0.0,0.0,0.0,0.0,0.0,0.0,0.0,0.0,0.0,0.0,0.0,0.0,0.0,0.0,0.0,0.0,0.0,0.0,0.0,0.0,0.0,0.0,0.0,0.0,0.0,0.0,0.0,-0.1738,0.0,0.0,0.0,0.0,0.0,0.0,0.0,0.0,-0.0224,0.0,0.0224,0.0505,0.0,0.0,0.0,0.0,0.0,0.0,0.0,0.0,0.0,0.0,0.0,0.0,0.0,0.0,0.0,0.0,0.0,0.0,0.0,0.0,0.0,0.0,0.0,0.9274,0.9786,1.0301,1.087,1.1373,1.184,1.2305,1.259,1.2811,1.2976,1.2696,1.2581,1.269,1.2362,1.2274,1.2529,1.2627,1.2686,1.2603,1.27,1.2832,1.2929,1.3051,1.3176,1.3266,1.3266,1.342,1.3668,1.3692,1.3918,1.4246,1.4396,1.4546,1.4685,1.4994,1.5131,1.5221,1.5592,1.5748,1.5859,0.0,0.0,0.0,0.0,0.0,0.0,0.0,0.0,0.0,0.0,0.0,0.0,0.0,0.0,0.0,0.0,0.0,0.0,0.0,0.0,0.0,0.0,0.0,0.0,0.0,0.0,0.0,0.0,0.0,0.0,-0.3293,-0.2912,-0.2657,0.0,0.0,0.0,0.0,0.0,0.0,0.0,0.0,0.0,0.0,0.0,0.0,0.0,0.0,0.0,0.0,-0.0785,-0.0421,0.0028,0.0084,0.0,0.0,0.0,0.0,0.0,0.1515,0.1803,0.0,0.0,0.0,0.0,0.0,0.0,0.0,0.0,0.0,0.0,0.0,0.0,0.0,0.0,0.0,0.9049,0.0,0.0,1.0751,1.1404,1.1809,1.2151,1.2529,1.3033,1.3275,1.3006,1.3061,1.2959,1.2716,1.2523,1.2505,1.2652,1.2686,1.2808,1.3012,1.3036,1.3061,1.3075,1.3142,1.3324,1.3539,1.3539,1.3692,1.3939,1.4174,1.4303,1.4384,1.4627,1.4857,1.5017,1.5085,1.5323,1.5626,1.5748,1.5859,1.5988,0.0,0.0,0.0,0.0,0.0,0.0,0.0,0.0,0.0,0.0,0.0,0.0,0.0,0.0,0.0,0.0,0.0,0.0,0.0,0.0,0.0,0.0,0.0,0.0,0.0,0.0,0.0,0.0,0.0,-0.4052,-0.3871,-0.3462,-0.3218,-0.3081,0.0,0.0,0.0,0.0,0.0,0.0,0.0,0.0,0.0,0.0,0.0,0.0,0.0,0.0,0.0,0.0,-0.0589,-0.0196,-0.014,0.0,0.0,0.0,0.0,0.0,0.1319,0.1522,0.1773,0.0,0.0,0.0,0.0,0.0,0.0,0.0,0.0,0.0,0.0,0.0,0.0,0.8079,0.0,0.9492,1.0079,1.0555,1.109,1.1654,1.2096,1.2521,1.2942,1.3299,1.3592,1.3773,1.3666,1.3506,1.3357,1.308,1.2882,1.2808,1.2881,1.2978,1.3109,1.3282,1.3368,1.3368,1.3396,1.3563,1.3821,1.3905,1.4022,1.4221,1.443,1.4616,1.4789,1.4914,1.5097,1.5334,1.539,1.5547,1.577,1.6035,1.6154,1.6241,0.0,0.0,0.0,0.0,0.0,0.0,0.0,0.0,0.0,0.0,0.0,0.0,0.0,0.0,0.0,0.0,0.0,0.0,0.0,0.0,0.0,0.0,0.0,0.0,0.0,0.0,0.0,-0.5318,-0.4951,-0.4607,-0.4324,-0.3907,-0.3694,0.0,0.0,0.0,0.0,0.0,0.0,0.0,0.0,0.0,0.0,0.0,0.0,0.0,0.0,0.0,0.0,0.0,0.0,0.0,0.0,0.0,0.0,0.0,0.0505,0.0729,0.1178,0.1387,0.1648,0.0,0.0,0.3406,0.3768,0.0,0.0,0.0,0.0,0.0,0.0,0.7073,0.0,0.8705,0.9274,0.9811,1.0333,1.087,1.1404,1.1872,1.2375,1.2858,1.3299,1.3541,1.3902,1.4469,1.4198,1.4026,1.4053,1.3606,1.3258,1.3086,1.311,1.3123,1.322,1.3478,1.3597,1.3597,1.3692,1.3858,1.4114,1.4233,1.4373,1.4535,1.4662,1.4891,1.5153,1.5176,1.5334,1.5558,1.5681,1.5814,1.5991,1.6284,1.6414,1.6436,0.0,0.0,0.0,0.0,0.0,0.0,0.0,0.0,0.0,0.0,0.0,0.0,0.0,0.0,0.0,0.0,0.0,0.0,0.0,0.0,0.0,0.0,0.0,0.0,0.0,-0.6815,-0.6554,-0.6014,-0.5751,-0.5295,-0.465,-0.4311,-0.4138,0.0,0.0,0.0,0.0,0.0,0.0,0.0,0.0,0.0,0.0,0.0,0.0,0.0,0.0,0.0,0.0,0.0,0.0,0.0,0.0,0.0,0.0,0.0,0.0421,0.0561,0.115,0.1526,0.1874,0.2373,0.0,0.0,0.387,0.0,0.0,0.0,0.0,0.0,0.0,0.7699,0.8544,0.892,0.9536,1.0142,1.0681,1.1216,1.1747,1.2212,1.2674,1.3103,1.345,1.395,1.4318,1.4499,1.4371,1.4355,1.4541,1.3876,1.3522,1.3644,1.3293,1.3234,1.3573,1.3597,1.3597,1.3597,1.3988,1.4222,1.4384,1.45,1.4674,1.4869,1.5017,1.5165,1.5312,1.5424,1.557,1.5693,1.577,1.6022,1.6349,1.6392,1.6436,1.65,0.0,0.0,0.0,0.0,0.0,0.0,0.0,0.0,0.0,0.0,0.0,0.0,0.0,0.0,0.0,0.0,0.0,0.0,0.0,0.0,0.0,0.0,0.0,-0.863,-0.809,-0.7629,-0.7076,-0.6406,-0.5893,-0.5394,-0.4936,-0.4825,0.0,0.0,0.0,0.0,0.0,0.0,0.0,0.0,0.0,0.0,0.0,0.0,0.0,0.0,0.0,0.0,0.0,0.0,0.0,0.0,0.0,0.0,0.0,0.0,0.0,0.0785,0.1206,0.1617,0.2033,0.2555,0.0,0.0,0.0,0.0,0.0,0.0,0.0,0.0,0.0,0.0,0.9152,0.952,1.0032,1.0523,1.0933,1.1529,1.2058,1.2436,1.2972,1.3398,1.367,1.4121,1.4517,1.4784,1.4848,1.4821,1.4739,1.4537,1.4222,1.3714,1.3701,1.3667,1.3597,1.3847,1.4012,1.4093,1.4257,1.4466,1.4709,1.4857,1.5006,1.5165,1.5289,1.5413,1.5559,1.5659,1.577,1.5925,1.61,1.6262,1.6414,1.6457,1.6479,1.65,0.0,0.0,0.0,0.0,0.0,0.0,0.0,0.0,0.0,0.0,0.0,0.0,0.0,0.0,0.0,0.0,0.0,0.0,0.0,0.0,0.0,0.0,0.0,-0.9312,-0.9022,-0.8399,-0.7694,-0.6927,-0.6173,-0.565,-0.5371,0.0,0.0,0.0,0.0,0.0,0.0,0.0,0.0,0.0,0.0,-0.3771,0.0,0.0,0.0,0.0,0.0,0.0,0.0,0.0,0.0,0.0,0.0,0.0,0.0,0.0,0.0,0.0,0.1334,0.1747,0.0,0.0,0.0,0.0,0.0,0.0,0.0,0.0,0.0,0.0,0.0,0.0,0.0,0.0,1.0393,1.0807,1.1185,1.1778,1.2305,1.2683,1.3246,1.37,1.3929,1.433,1.4686,1.497,1.5127,1.5139,1.5,1.5003,1.4681,1.3973,1.4099,1.4027,1.3716,1.4082,1.4362,1.4558,1.4605,1.4743,1.4983,1.5153,1.53,1.5425,1.5547,1.5681,1.5792,1.5881,1.6013,1.6141,1.6328,1.6414,1.6436,1.6479,1.65,1.65,0.0,0.0,0.0,0.0,0.0,0.0,0.0,0.0,0.0,0.0,0.0,0.0,0.0,0.0,0.0,0.0,0.0,0.0,0.0,0.0,0.0,0.0,0.0,-0.9696,-0.9518,-0.9109,-0.8478,-0.7601,-0.6651,-0.6146,-0.6,0.0,0.0,0.0,0.0,0.0,0.0,0.0,0.0,0.0,0.0,-0.391,-0.3741,0.0,0.0,0.0,0.0,0.0,0.0,0.0,0.0,0.0,0.0,0.0,0.0,0.0,0.0645,0.1017,0.1544,0.1987,0.0,0.0,0.0,0.0,0.0,0.0,0.0,0.0,0.0,0.0,0.9222,0.0,0.0,1.0367,1.0613,1.0996,1.1529,1.2027,1.249,1.295,1.3467,1.3929,1.4267,1.4547,1.4775,1.5,1.5127,1.5264,1.5391,1.5161,1.4847,1.4506,1.4374,1.4219,1.4007,1.4267,1.457,1.4903,1.5028,1.5108,1.5108,1.5379,1.5592,1.5715,1.577,1.5869,1.601,1.6144,1.6275,1.6392,1.6392,1.6436,1.65,1.65,1.65,1.65,0.0,0.0,0.0,0.0,0.0,0.0,0.0,0.0,0.0,0.0,0.0,0.0,0.0,0.0,0.0,0.0,0.0,0.0,0.0,0.0,0.0,0.0,0.0,0.0,0.0,0.0,-0.8138,-0.7467,-0.6942,-0.6549,0.0,0.0,0.0,-0.5631,0.0,0.0,0.0,0.0,0.0,0.0,-0.4162,-0.3965,-0.3882,0.0,0.0,0.0,0.0,0.0,0.0,0.0,0.0,0.0,0.0,0.0,0.0,0.0673,0.0954,0.1272,0.172,0.0,0.0,0.0,0.0,0.0,0.0,0.0,0.0,0.0,0.0,0.9487,1.0042,1.0225,0.0,1.1025,1.1135,1.1341,1.1872,1.2375,1.2828,1.3307,1.37,1.407,1.4428,1.4725,1.497,1.5127,1.5254,1.543,1.5604,1.564,1.5388,1.486,1.4888,1.4718,1.4302,1.4454,1.4708,1.5028,1.5266,1.5424,1.5537,1.5659,1.578,1.5913,1.6035,1.61,1.6144,1.6297,1.6392,1.6479,1.6479,1.6479,1.65,1.65,1.65,1.65,0.0,0.0,0.0,0.0,0.0,0.0,0.0,0.0,0.0,0.0,0.0,0.0,0.0,0.0,0.0,0.0,0.0,0.0,0.0,0.0,0.0,0.0,0.0,0.0,0.0,-0.8795,-0.8209,0.0,0.0,0.0,0.0,0.0,0.0,-0.5932,0.0,0.0,0.0,0.0,0.0,0.0,-0.419,-0.3996,-0.3938,0.0,0.0,0.0,0.0,0.0,0.0,0.0,0.0,0.0,0.0,0.0,0.0,0.0814,0.1217,0.1641,0.205,0.0,0.0,0.0,0.0,0.0,0.0,0.0,0.0,0.0,0.0,1.012,1.064,1.0906,1.1181,1.1546,1.1589,1.1738,1.2236,1.2621,1.3072,1.3549,1.3971,1.43,1.4558,1.4872,1.5117,1.5186,1.54,1.5575,1.5701,1.5875,1.5769,1.5297,1.5337,1.5128,1.4679,1.4762,1.4937,1.5187,1.5458,1.5659,1.5814,1.5859,1.5957,1.61,1.6231,1.6297,1.634,1.6414,1.6457,1.65,1.65,1.65,1.65,1.65,1.65,1.65,0.0,0.0,0.0,0.0,0.0,0.0,0.0,0.0,0.0,0.0,0.0,0.0,0.0,0.0,0.0,0.0,0.0,0.0,0.0,0.0,0.0,0.0,0.0,0.0,0.0,0.0,0.0,0.0,0.0,0.0,0.0,0.0,-0.626,0.0,0.0,0.0,0.0,0.0,0.0,-0.4688,-0.419,-0.3996,-0.3938,-0.3325,0.0,0.0,0.0,0.0,0.0,0.0,0.0,0.0,0.0,0.0,0.0757,0.0929,0.1409,0.2015,0.0,0.0,0.0,0.0,0.0,0.0,0.0,0.0,0.0,0.8865,0.0,1.0663,1.1074,1.1557,1.1911,1.195,1.2009,1.2183,1.2545,1.2858,1.3224,1.3769,1.421,1.4558,1.4715,1.5,1.5215,1.5215,1.5537,1.5711,1.5711,1.598,1.6005,1.5728,1.5658,1.547,1.5154,1.5129,1.5187,1.5335,1.5582,1.5814,1.6022,1.6022,1.6088,1.6244,1.6362,1.6436,1.65,1.65,1.65,1.65,1.65,1.65,1.65,1.65,1.65,1.65,0.0,0.0,0.0,0.0,0.0,0.0,0.0,0.0,0.0,0.0,0.0,0.0,0.0,0.0,0.0,0.0,0.0,0.0,0.0,0.0,0.0,0.0,0.0,0.0,0.0,0.0,0.0,0.0,0.0,0.0,0.0,0.0,0.0,0.0,0.0,0.0,0.0,0.0,0.0,-0.4818,-0.4242,-0.3996,-0.3938,-0.3325,-0.2938,0.0,0.0,0.0,0.0,0.0,0.0,0.0,0.0196,0.0561,0.0958,0.1387,0.1695,0.0,0.0,0.0,0.0,0.0,0.0,0.0,0.0,0.0,0.0,0.9379,1.0273,1.1074,1.1484,1.1738,1.1982,1.2332,1.238,1.2471,1.2731,1.3125,1.3541,1.392,1.427,1.4627,1.4911,1.5098,1.5235,1.5362,1.5575,1.574,1.5856,1.6173,1.6241,1.6018,1.5842,1.5661,1.5482,1.5222,1.5278,1.5626,1.5738,1.5903,1.6166,1.6166,1.6253,1.6436,1.6479,1.65,1.65,1.65,1.65,1.65,1.65,1.65,1.65,1.65,1.65,1.65,0.0,0.0,0.0,0.0,0.0,0.0,0.0,0.0,0.0,0.0,0.0,0.0,0.0,0.0,0.0,0.0,0.0,0.0,0.0,0.0,0.0,0.0,0.0,0.0,0.0,0.0,0.0,0.0,0.0,0.0,0.0,0.0,0.0,0.0,0.0,0.0,0.0,0.0,0.0,-0.4842,-0.4242,-0.3965,-0.3855,-0.3297,-0.2882,-0.2549,-0.2071,0.0,0.0,0.0,0.0,0.0,0.0,0.0,0.1153,0.1638,0.2071,0.0,0.0,0.0,0.0,0.0,0.0,0.0,0.0,0.0,0.9854,1.0228,1.0904,1.1521,1.1892,1.236,1.2735,1.2927,1.3019,1.3114,1.3387,1.3548,1.3791,1.4181,1.4547,1.4843,1.5059,1.5235,1.5371,1.5546,1.5701,1.5914,1.6116,1.6374,1.656,1.6677,1.6171,1.5947,1.6075,1.5545,1.5446,1.576,1.5859,1.6035,1.6297,1.634,1.6392,1.65,1.65,1.65,1.65,1.65,1.65,1.65,1.65,1.65,1.65,1.65,1.65,1.65,0.0,0.0,0.0,0.0,0.0,0.0,0.0,0.0,0.0,0.0,0.0,0.0,0.0,0.0,0.0,0.0,0.0,0.0,0.0,0.0,0.0,0.0,0.0,0.0,0.0,0.0,0.0,0.0,0.0,0.0,0.0,0.0,0.0,0.0,0.0,0.0,0.0,0.0,0.0,-0.4842,-0.4242,-0.391,-0.3741,-0.3241,-0.2826,-0.2437,-0.1931,-0.1484,-0.1038,-0.0533,0.0,0.0,0.0,0.0,0.1385,0.1866,0.0,0.0,0.0,0.0,0.0,0.0,0.0,0.0,0.0,0.0,1.0456,1.1069,1.1521,1.1929,1.2342,1.3046,1.3562,1.3599,1.3734,1.3884,1.4066,1.4074,1.4141,1.4449,1.4813,1.5098,1.5186,1.5313,1.5478,1.5672,1.5827,1.6058,1.6374,1.6581,1.6864,1.7278,1.6528,1.6261,1.6635,1.5893,1.5637,1.5836,1.6001,1.6185,1.6414,1.6479,1.65,1.65,1.65,1.65,1.65,1.65,1.65,1.65,1.65,1.65,1.65,1.65,1.65,1.65,0.0,0.0,0.0,0.0,0.0,0.0,0.0,0.0,0.0,0.0,0.0,0.0,0.0,0.0,0.0,0.0,0.0,0.0,0.0,0.0,0.0,0.0,0.0,0.0,0.0,0.0,0.0,0.0,0.0,0.0,0.0,0.0,0.0,0.0,0.0,0.0,0.0,0.0,0.0,0.0,-0.4242,-0.391,-0.3741,-0.3155,-0.274,-0.241,-0.1824,-0.1402,-0.101,-0.0421,-0.0056,0.0,0.0,0.0,0.1744,0.2342,0.0,0.0,0.0,0.0,0.0,0.0,0.0,0.0,0.0,0.0,1.0883,0.0,1.1929,1.2342,1.2746,1.3331,1.3835,1.3991,1.4405,1.4589,1.4164,1.4582,1.4821,1.4545,1.4902,1.5186,1.5215,1.5313,1.5478,1.5672,1.5827,1.6058,1.6374,1.6751,1.705,1.7306,1.68,1.661,1.6771,1.6032,1.577,1.5979,1.6241,1.6392,1.65,1.65,1.65,1.65,1.65,1.65,1.65,1.65,1.65,1.65,1.65,1.65,1.65,1.65,1.65,1.65,0.0,0.0,0.0,0.0,0.0,0.0,0.0,0.0,0.0,0.0,0.0,0.0,0.0,0.0,0.0,0.0,0.0,0.0,0.0,0.0,0.0,0.0,0.0,0.0,0.0,0.0,0.0,0.0,0.0,0.0,0.0,-0.7568,-0.7279,0.0,0.0,0.0,0.0,0.0,0.0,0.0,0.0,0.0,0.0,0.0,0.0,0.0,0.0,0.0,0.0,0.0,0.0,0.0533,0.0898,0.0,0.0,0.0,0.0,0.0,0.0,0.0,0.0,0.0,0.0,0.0,0.0,0.0,1.112,1.1896,1.2452,1.29,1.32,1.3811,1.4363,1.4673,1.4895,1.5086,1.5164,1.5124,1.509,1.5109,1.5172,1.5235,1.5313,1.5459,1.5643,1.5798,1.6029,1.6316,1.662,1.6987,1.7295,1.7529,1.693,1.6698,1.6908,1.6136,1.5903,1.6241,1.6392,1.6479,1.65,1.65,1.65,1.65,1.65,1.65,1.65,1.65,1.65,1.65,1.65,1.65,1.65,1.65,1.65,1.65,0.0,0.0,0.0,0.0,0.0,0.0,0.0,0.0,0.0,0.0,0.0,0.0,0.0,0.0,0.0,0.0,0.0,0.0,0.0,0.0,0.0,0.0,0.0,0.0,0.0,0.0,0.0,0.0,0.0,0.0,-0.7649,-0.7488,-0.7198,0.0,-0.668,0.0,0.0,0.0,0.0,0.0,0.0,0.0,0.0,0.0,0.0,0.0,0.0,0.0,0.0,0.0,0.0,0.0,0.0,0.1613,0.0,0.0,0.0,0.0,0.0,0.0,0.0,0.0,0.0,0.0,0.0,0.0,1.134,1.2245,1.2936,1.3455,1.3746,1.4281,1.482,1.5275,1.5436,1.5634,1.601,1.5748,1.5551,1.5635,1.5522,1.5409,1.5391,1.5575,1.5769,1.5885,1.6202,1.6516,1.679,1.7155,1.7462,1.7728,1.7074,1.6822,1.7056,1.6297,1.6078,1.6392,1.6479,1.65,1.65,1.65,1.65,1.65,1.65,1.65,1.65,1.65,1.65,1.65,1.65,1.65,1.65,1.65,1.65,1.65,0.0,0.0,0.0,0.0,0.0,0.0,0.0,0.0,0.0,0.0,0.0,0.0,0.0,0.0,0.0,0.0,0.0,0.0,0.0,0.0,0.0,0.0,0.0,0.0,0.0,0.0,0.0,0.0,0.0,0.0,-0.7494,-0.7246,-0.6977,-0.6701,-0.649,-0.6196,-0.5768,0.0,0.0,0.0,0.0,0.0,0.0,0.0,0.0,0.0,0.0,0.0,0.0,0.0,0.0,0.0,0.0,0.0,0.0,0.0,0.0,0.0,0.0,0.0,0.0,0.0,0.0,0.0,0.0,0.0,1.1592,1.2647,1.3346,1.3935,1.4461,1.4721,1.5086,1.5655,1.6053,1.626,1.6266,1.6542,1.6476,1.5865,1.5964,1.5869,1.5449,1.5575,1.5769,1.5885,1.6202,1.6516,1.679,1.7228,1.7606,1.7881,1.7305,1.7056,1.7191,1.6514,1.6253,1.6392,1.6479,1.65,1.65,1.65,1.65,1.65,1.65,1.65,1.65,1.65,1.65,1.65,1.65,1.65,1.65,1.65,1.65,1.65,0.0,0.0,0.0,0.0,0.0,0.0,0.0,0.0,0.0,0.0,0.0,0.0,0.0,0.0,0.0,0.0,0.0,0.0,0.0,0.0,0.0,0.0,0.0,0.0,0.0,0.0,0.0,0.0,0.0,-0.7714,-0.7365,-0.7198,-0.6842,-0.6391,-0.6309,-0.6059,-0.565,-0.5266,0.0,0.0,0.0,0.0,0.0,0.0,0.0,0.0,0.0,0.0,0.0,0.0,0.0,0.0,0.0,0.0,0.0,0.0,0.0,0.0,0.0,0.0,0.0,0.0,0.0,0.8964,0.9952,1.0732,1.153,1.2621,1.3453,1.4173,1.4685,1.5078,1.5434,1.5929,1.6386,1.6715,1.6843,1.693,1.6919,1.6677,1.6313,1.6036,1.588,1.5831,1.5856,1.5885,1.6363,1.6705,1.6779,1.734,1.7728,1.7897,1.732,1.6847,1.6563,1.6406,1.6383,1.6457,1.65,1.65,1.65,1.65,1.65,1.65,1.65,1.65,1.65,1.65,1.65,1.65,1.65,1.65,1.65,1.65,1.6479,1.6436,0.0,0.0,0.0,0.0,0.0,0.0,0.0,0.0,0.0,0.0,0.0,0.0,0.0,0.0,0.0,0.0,0.0,0.0,0.0,0.0,0.0,0.0,0.0,0.0,0.0,0.0,0.0,0.0,0.0,0.0,0.0,0.0,-0.663,-0.6205,-0.5987,0.0,0.0,0.0,0.0,-0.4353,0.0,0.0,-0.3188,0.0,0.0,0.0,0.0,0.0,0.0,0.0,0.0,0.0,0.0,0.0,0.0,0.0,0.0,0.0,0.0,0.0,0.0,0.0,0.0,0.9091,1.0013,1.0747,1.1539,1.2641,1.3497,1.4213,1.4867,1.539,1.5815,1.6132,1.6586,1.6978,1.7245,1.7307,1.7278,1.7218,1.6824,1.6418,1.6124,1.6089,1.6046,1.5895,1.6449,1.6818,1.6818,1.7379,1.7759,1.7875,1.7416,1.6979,1.647,1.6427,1.6436,1.65,1.65,1.65,1.65,1.65,1.65,1.65,1.65,1.65,1.65,1.65,1.65,1.65,1.65,1.65,1.6479,1.6479,1.6414,1.634,0.0,0.0,0.0,0.0,0.0,0.0,0.0,0.0,0.0,0.0,0.0,0.0,0.0,0.0,0.0,0.0,0.0,0.0,0.0,0.0,0.0,0.0,0.0,0.0,0.0,0.0,0.0,0.0,0.0,0.0,0.0,0.0,-0.6305,0.0,-0.5572,-0.5297,-0.5242,0.0,-0.4498,-0.4166,0.0,-0.3304,-0.2882,0.0,0.0,0.0,-0.1069,-0.0591,0.0,0.0281,0.0,0.0,0.0,0.0,0.0,0.0,0.0,0.0,0.0,0.0,0.0,0.0,0.0,0.0,0.9994,1.0758,1.1629,1.2744,1.3476,1.4185,1.5016,1.5692,1.6132,1.6272,1.6665,1.7047,1.7436,1.7623,1.7639,1.7451,1.7425,1.7073,1.6212,1.6357,1.6327,1.5945,1.6459,1.679,1.6818,1.7368,1.7747,1.7808,1.7676,1.7422,1.7011,1.6613,1.6436,1.65,1.65,1.65,1.65,1.65,1.65,1.65,1.65,1.65,1.65,1.65,1.65,1.65,1.65,1.6457,1.6392,1.6392,1.6318,1.6178,0.0,0.0,0.0,0.0,0.0,0.0,0.0,0.0,0.0,0.0,0.0,0.0,0.0,0.0,0.0,0.0,0.0,0.0,0.0,0.0,0.0,0.0,0.0,0.0,0.0,0.0,0.0,0.0,0.0,0.0,0.0,0.0,0.0,0.0,-0.5434,-0.5077,-0.4712,-0.4601,0.0,0.0,-0.3608,-0.3265,0.0,0.0,0.0,0.0,0.0,-0.0451,0.003,0.0,0.0993,0.1543,0.0,0.0,0.0,0.0,0.0,0.0,0.6445,0.0,0.0,0.0,0.0,0.0,0.9923,1.0712,1.1504,1.2211,1.3293,1.426,1.4739,1.56,1.6272,1.6307,1.6874,1.7358,1.747,1.7735,1.7891,1.7852,1.7568,1.7318,1.7073,1.6631,1.6357,1.6327,1.6434,1.6602,1.679,1.7562,1.7936,1.7808,1.7676,1.7422,1.7011,1.6613,1.6436,1.65,1.65,1.65,1.65,1.65,1.65,1.65,1.65,1.65,1.65,1.65,1.65,1.65,1.6457,1.6414,1.6392,1.6297,1.61,1.5903,0.0,0.0,0.0,0.0,0.0,0.0,0.0,0.0,0.0,0.0,0.0,0.0,0.0,0.0,0.0,0.0,0.0,0.0,0.0,0.0,0.0,0.0,0.0,0.0,0.0,0.0,0.0,0.0,0.0,0.0,0.0,0.0,0.0,0.0,0.0,0.0,0.0,0.0,0.0,0.0,-0.3406,0.0,0.0,-0.2238,-0.179,0.0,0.0,0.0,0.0185,0.0648,0.1277,0.2019,0.2851,0.0,0.0,0.0,0.0,0.0,0.0,0.0,0.0,0.0,0.0,0.0,0.9919,1.0624,1.1367,1.1989,1.2973,1.3944,1.4601,1.5472,1.6156,1.6289,1.6978,1.7505,1.7505,1.7779,1.8008,1.8008,1.7793,1.7578,1.7435,1.6865,1.6535,1.6518,1.6429,1.6602,1.706,1.7661,1.8055,1.8125,1.7949,1.7666,1.7343,1.6938,1.6651,1.65,1.65,1.65,1.65,1.65,1.65,1.65,1.65,1.6479,1.6457,1.6457,1.6457,1.6457,1.6414,1.6328,1.6219,1.6078,1.5915,1.5748,0.0,0.0,0.0,0.0,0.0,0.0,0.0,0.0,0.0,0.0,0.0,0.0,0.0,0.0,0.0,0.0,0.0,0.0,0.0,0.0,0.0,0.0,0.0,0.0,0.0,0.0,0.0,0.0,0.0,0.0,0.0,0.0,0.0,0.0,0.0,0.0,0.0,0.0,0.0,-0.3519,-0.3152,-0.2842,0.0,0.0,-0.1583,-0.1154,-0.0811,-0.025,0.0374,0.0748,0.1586,0.2526,0.2976,0.3647,0.0,0.0,0.5653,0.0,0.0,0.0,0.0,0.0,0.0,0.0,0.9919,1.0586,1.1262,1.1901,1.2588,1.3396,1.4461,1.5265,1.5881,1.6245,1.6978,1.7505,1.7505,1.7779,1.8008,1.8008,1.8008,1.7861,1.749,1.717,1.6852,1.6608,1.6478,1.6733,1.7412,1.7744,1.8127,1.8587,1.8327,1.8077,1.7884,1.7474,1.703,1.6588,1.6588,1.655,1.65,1.65,1.65,1.65,1.65,1.6457,1.6392,1.6392,1.6392,1.6371,1.6349,1.6234,1.6041,1.5921,1.5835,1.577,0.0,0.0,0.0,0.0,0.0,0.0,0.0,0.0,0.0,0.0,0.0,0.0,0.0,0.0,0.0,0.0,0.0,0.0,0.0,0.0,0.0,0.0,0.0,0.0,0.0,0.0,0.0,0.0,0.0,0.0,0.0,0.0,0.0,0.0,0.0,0.0,0.0,0.0,0.0,-0.3267,-0.3012,0.0,-0.2475,-0.1944,-0.1491,-0.1059,-0.0663,-0.0166,0.0431,0.1192,0.1991,0.2699,0.3066,0.3706,0.0,0.5126,0.0,0.0,0.0,0.0,0.0,0.0,0.0,0.0,0.9919,1.0586,1.1206,1.1609,1.2346,1.3219,1.4131,1.4975,1.5736,1.621,1.6978,1.7505,1.7505,1.7779,1.8008,1.8008,1.8008,1.7978,1.79,1.7533,1.7231,1.7069,1.6858,1.6864,1.7245,1.7661,1.8127,1.8587,1.8235,1.8169,1.8437,1.7933,1.752,1.7212,1.7212,1.6974,1.65,1.65,1.65,1.65,1.65,1.6457,1.6392,1.6392,1.634,1.6244,1.611,1.6234,1.6474,1.6347,1.6326,1.641,0.0,0.0,0.0,0.0,0.0,0.0,0.0,0.0,0.0,0.0,0.0,0.0,0.0,0.0,0.0,0.0,0.0,0.0,0.0,0.0,0.0,0.0,0.0,0.0,0.0,0.0,0.0,0.0,0.0,0.0,0.0,0.0,0.0,0.0,0.0,0.0,0.0,0.0,-0.3504,-0.3084,-0.2927,0.0,-0.2196,-0.1801,-0.1361,-0.0908,-0.0606,0.0,0.0808,0.1412,0.2084,0.0,0.0,0.3692,0.4456,0.0,0.5789,0.6313,0.0,0.0,0.0,0.8349,0.0,0.0,0.0,1.0586,1.1185,1.1404,1.207,1.2838,1.3664,1.4511,1.5312,1.5953,1.6702,1.7254,1.747,1.7779,1.8008,1.8008,1.8008,1.8008,1.8008,1.7627,1.7238,1.6888,1.6834,1.692,1.719,1.7579,1.8057,1.8587,1.8392,1.8404,1.8596,1.8326,1.8066,1.779,1.779,1.7639,1.734,1.734,1.734,1.734,1.7282,1.7192,1.7078,1.6941,1.6815,1.6675,1.6398,1.65,1.6776,1.6572,1.6553,1.6548,0.0,0.0,0.0,0.0,0.0,0.0,0.0,0.0,0.0,0.0,0.0,0.0,0.0,0.0,0.0,0.0,0.0,0.0,0.0,0.0,0.0,0.0,0.0,-1.0127,0.0,0.0,0.0,0.0,0.0,0.0,0.0,0.0,0.0,0.0,0.0,0.0,0.0,0.0,0.0,-0.2986,0.0,-0.2403,-0.1956,-0.1633,-0.1177,-0.0706,-0.0404,0.0303,0.1143,0.148,0.2084,0.2753,0.3092,0.3692,0.0,0.0,0.0,0.0,0.0,0.0,0.0,0.0,0.0,0.9556,0.0,0.0,0.0,1.1272,1.1809,1.2469,1.3227,1.4011,1.4789,1.5513,1.6276,1.6927,1.7279,1.7687,1.7974,1.8008,1.8008,1.8008,1.8008,1.7615,1.7155,1.6678,1.6751,1.692,1.7162,1.7507,1.7947,1.8533,1.8587,1.8625,1.8705,1.8744,1.8598,1.8307,1.8343,1.8304,1.8204,1.8204,1.818,1.8157,1.8037,1.7894,1.7714,1.7484,1.7337,1.7187,1.68,1.6811,1.7023,1.6747,1.6689,1.6667,0.0,0.0,0.0,0.0,0.0,0.0,0.0,0.0,0.0,0.0,0.0,0.0,0.0,0.0,0.0,0.0,0.0,0.0,-1.3202,0.0,0.0,0.0,0.0,0.0,-1.0203,0.0,0.0,0.0,0.0,0.0,0.0,0.0,0.0,0.0,-0.4607,0.0,0.0,0.0,-0.3236,0.0,-0.2477,-0.211,0.0,-0.1343,-0.0909,-0.0438,0.0169,0.0707,0.1143,0.0,0.2084,0.2753,0.0,0.3692,0.4456,0.5193,0.0,0.0,0.0,0.0,0.0,0.0,0.8926,0.0,0.0,0.0,1.0926,1.1247,0.0,1.2313,1.2996,0.0,0.0,1.4878,1.5752,1.6459,1.6669,1.7316,1.7784,1.7974,1.8008,1.8008,1.8008,1.7536,1.7199,1.713,1.6938,1.6864,1.7011,1.744,1.7931,1.8422,1.8545,1.8777,1.9137,1.9256,1.9103,1.8734,1.8846,1.8657,1.8204,1.8204,1.8144,1.8013,1.8013,1.7798,1.7436,1.7412,1.7365,1.7255,1.69,1.6991,1.7223,1.6972,1.7013,1.7186,0.0,0.0,0.0,0.0,0.0,0.0,0.0,0.0,0.0,0.0,0.0,0.0,0.0,0.0,0.0,0.0,0.0,-1.3459,0.0,0.0,0.0,0.0,0.0,0.0,0.0,0.0,0.0,0.0,-0.7634,0.0,0.0,0.0,0.0,0.0,-0.4531,0.0,-0.3729,0.0,-0.2959,0.0,0.0,0.0,0.0,-0.1176,-0.0808,-0.0303,0.0303,0.0775,0.1143,0.148,0.2084,0.0,0.0,0.0,0.0,0.5057,0.0,0.0,0.0,0.0,0.0,0.0,0.0,0.0,0.9798,1.0301,1.0776,1.1122,0.0,0.0,0.0,0.0,0.0,0.0,1.513,1.5821,1.6357,1.6801,1.7244,1.7755,1.793,1.8008,1.8008,1.7519,1.72,1.72,1.6959,1.6864,1.6983,1.7451,1.7877,1.822,1.8464,1.8747,1.9078,1.9223,1.9284,1.9269,1.9332,1.9258,1.9133,1.9033,1.8983,1.8933,1.877,1.8567,1.83,1.808,1.7897,1.7725,1.7254,1.7218,1.7386,1.7207,1.712,1.7088,0.0,0.0,0.0,0.0,0.0,0.0,0.0,0.0,0.0,0.0,0.0,0.0,-1.4359,-1.4288,0.0,0.0,-1.3541,-1.3246,0.0,0.0,-1.1895,0.0,0.0,0.0,0.0,0.0,0.0,0.0,0.0,0.0,0.0,0.0,0.0,0.0,0.0,-0.4,-0.3498,0.0,-0.2723,-0.2188,-0.185,-0.1412,-0.0942,-0.0908,-0.0572,-0.0067,0.0337,0.0775,0.121,0.1513,0.2084,0.2753,0.3092,0.3692,0.442,0.0,0.0,0.0,0.6544,0.0,0.0,0.0,0.8689,0.9247,0.9632,1.0149,1.0624,1.0933,1.1341,0.0,0.0,0.0,0.0,0.0,0.0,1.5151,1.582,1.6247,1.681,1.7624,1.7896,1.8008,1.8008,1.7486,1.7169,1.72,1.6881,1.6751,1.6937,1.7368,1.7739,1.8057,1.8383,1.8679,1.8946,1.9117,1.9302,1.9486,1.9539,1.9617,1.9682,1.9591,1.9539,1.9486,1.9237,1.9064,1.8854,1.8464,1.8177,1.7893,1.7462,1.7267,1.72,1.7127,1.7004,1.6797,0.0,-1.5342,0.0,0.0,0.0,0.0,0.0,0.0,0.0,0.0,0.0,0.0,0.0,0.0,0.0,0.0,0.0,-1.3125,-1.2652,0.0,-1.1646,0.0,0.0,-1.0149,0.0,0.0,0.0,0.0,0.0,0.0,0.0,0.0,0.0,0.0,0.0,-0.4,-0.3464,-0.2922,-0.252,-0.2154,-0.1547,-0.101,-0.0506,0.0,-0.0067,0.0303,0.0438,0.0842,0.1311,0.1547,0.2084,0.2753,0.3092,0.3692,0.442,0.0,0.0,0.0,0.6544,0.6937,0.7363,0.8042,0.8501,0.8926,0.939,0.9913,1.0396,1.0744,1.1216,1.1685,1.2027,0.0,0.0,0.0,0.0,0.0,0.0,1.5734,1.6667,1.759,1.7896,1.8008,1.8008,1.7389,1.7075,1.72,1.6714,1.6545,1.6779,1.7127,1.749,1.7881,1.822,1.853,1.8798,1.9076,1.9208,1.9208,1.9354,1.942,1.942,1.942,1.9354,1.9208,1.9078,1.8854,1.8587,1.8247,1.7893,1.7496,1.7351,1.6941,1.6459,1.6581,1.6534,1.6402,0.0,0.0,0.0,0.0,0.0,0.0,0.0,-1.4181,0.0,0.0,-1.386,0.0,0.0,-1.3549,-1.3428,0.0,0.0,-1.2705,-1.2428,-1.1934,0.0,0.0,0.0,-1.0079,0.0,0.0,0.0,0.0,0.0,0.0,0.0,0.0,0.0,0.0,0.0,-0.3563,0.0,0.0,0.0,0.0,0.0,-0.0606,-0.0371,-0.0303,-0.0067,0.0262,0.0426,0.0809,0.1273,0.1464,0.2029,0.2682,0.3038,0.3668,0.4389,0.4791,0.5392,0.5954,0.628,0.6773,0.7297,0.7759,0.8344,0.8899,0.9274,0.9754,1.0206,1.0586,1.0996,1.1373,1.1716,0.0,0.0,0.0,0.0,0.0,0.0,1.5479,1.6431,1.6738,1.7373,1.7784,1.7784,1.7314,1.7075,1.72,1.6714,1.6488,1.6666,1.7071,1.7407,1.7634,1.8002,1.8313,1.853,1.8798,1.8984,1.9078,1.9196,1.9302,1.9394,1.921,1.9105,1.9052,1.8827,1.856,1.8247,1.7959,1.7656,1.7323,1.6885,1.6573,1.6402,1.6459,1.6288,1.6029,-1.5105,0.0,0.0,0.0,0.0,0.0,0.0,0.0,0.0,0.0,-1.3528,0.0,-1.3155,0.0,-1.3033,0.0,-1.259,-1.2367,-1.2058,-1.1716,0.0,-1.0933,-1.046,0.0,0.0,0.0,0.0,0.0,0.0,-0.6445,0.0,0.0,0.0,0.0,0.0,-0.3261,-0.2855,0.0,-0.185,0.0,0.0,-0.0404,0.0,-0.0167,0.0066,0.0323,0.0452,0.0855,0.1329,0.1512,0.2,0.264,0.3081,0.3681,0.4336,0.4683,0.5329,0.5954,0.6148,0.6642,0.7204,0.7601,0.8149,0.87,0.9113,0.9568,1.0053,1.0434,1.0744,1.1122,1.1529,0.0,0.0,0.0,0.0,0.0,0.0,1.4988,1.5704,1.598,1.6957,1.7647,1.7706,1.7152,1.6876,1.7106,1.6566,1.6316,1.6534,1.6874,1.7183,1.7423,1.7728,1.803,1.8286,1.853,1.8744,1.8854,1.8946,1.9025,1.9105,1.8934,1.8827,1.8759,1.8545,1.8247,1.7947,1.7684,1.7351,1.7015,1.6573,1.6288,1.6144,1.6202,1.6,1.5662,0.0,0.0,0.0,0.0,-1.4742,0.0,0.0,0.0,-1.3186,0.0,-1.2981,-1.2928,-1.2775,-1.2775,-1.2621,-1.2305,-1.2274,-1.2058,-1.1622,-1.1365,0.0,0.0,-1.0206,-0.976,-0.9306,0.0,0.0,0.0,0.0,0.0,0.0,0.0,0.0,0.0,-0.3732,0.0,-0.2653,-0.2118,-0.1648,-0.1211,-0.0707,-0.0404,-0.0235,0.0065,0.0323,0.0483,0.0515,0.0946,0.1507,0.1657,0.2058,0.2598,0.3217,0.3764,0.4303,0.4692,0.5329,0.5921,0.6115,0.6544,0.7012,0.7536,0.7949,0.8333,0.8856,0.9408,0.9894,1.0212,1.0555,1.0965,1.1466,1.1591,0.0,0.0,0.0,0.0,0.0,0.0,1.4656,1.5359,1.6602,1.7463,1.7614,1.6866,1.6512,1.6941,1.6277,1.6029,1.6384,1.6534,1.6807,1.725,1.7423,1.7661,1.8057,1.8275,1.8437,1.8587,1.8587,1.8587,1.8587,1.8587,1.8518,1.8367,1.8166,1.792,1.7656,1.739,1.7015,1.6581,1.642,1.6087,1.5682,1.5827,1.5662,1.5323,-1.4622,-1.4647,-1.4536,0.0,-1.3835,-1.3498,0.0,0.0,0.0,0.0,-1.249,-1.2428,-1.2282,-1.2274,-1.2182,-1.1957,-1.184,0.0,0.0,0.0,0.0,-1.0624,-0.9977,-0.9524,-0.9306,-0.863,0.0,-0.7489,0.0,0.0,-0.5583,0.0,0.0,0.0,0.0,0.0,-0.2456,-0.1916,-0.1312,-0.0674,-0.0438,-0.0236,-0.0067,0.0131,0.0287,0.0436,0.0609,0.0947,0.1381,0.1553,0.2046,0.2666,0.318,0.3791,0.4394,0.4722,0.5226,0.5719,0.5921,0.635,0.6839,0.7237,0.7754,0.8301,0.8765,0.9242,0.9658,1.0015,1.0364,1.0713,1.0965,1.1341,1.1654,0.0,0.0,0.0,0.0,0.0,0.0,1.4444,1.5375,1.6141,1.6402,1.6144,1.6046,1.6322,1.5979,1.5875,1.6153,1.6363,1.6602,1.6931,1.7211,1.7462,1.7634,1.7909,1.81,1.822,1.8383,1.8449,1.8449,1.8302,1.8166,1.8018,1.7744,1.7562,1.7379,1.6948,1.6648,1.6402,1.6029,1.5643,1.5332,1.5362,1.5264,1.5049,-1.4458,0.0,0.0,-1.3742,0.0,0.0,-1.2939,-1.2523,0.0,-1.2081,-1.2027,0.0,-1.1778,-1.1747,-1.1685,-1.1498,-1.1404,0.0,-1.1028,0.0,0.0,-1.0136,-0.9716,-0.9332,-0.8958,-0.8404,0.0,-0.7363,0.0,0.0,-0.5488,0.0,0.0,0.0,0.0,-0.269,-0.2154,-0.1514,-0.0943,-0.0472,-0.0371,-0.0135,0.0,0.0258,0.0376,0.0553,0.0792,0.1054,0.1347,0.1654,0.2129,0.2644,0.322,0.3828,0.4388,0.4707,0.519,0.565,0.5855,0.6218,0.6679,0.7101,0.7591,0.8112,0.8576,0.9049,0.9492,0.9722,1.0142,1.0523,1.0681,1.0996,1.1341,0.0,0.0,0.0,0.0,0.0,0.0,0.0,1.4275,1.4751,1.5082,1.5408,1.5678,1.5943,1.5733,1.5662,1.5923,1.6124,1.6392,1.663,1.6874,1.7088,1.7262,1.7523,1.77,1.7838,1.8002,1.8096,1.8096,1.7986,1.781,1.7645,1.7479,1.7211,1.6885,1.662,1.6335,1.6058,1.5653,1.5235,1.4902,1.4902,1.4843,1.4725,-1.4191,0.0,0.0,0.0,0.0,0.0,-1.2334,-1.1978,-1.1709,-1.1709,-1.1591,-1.1435,-1.124,-1.1209,-1.1153,-1.0996,-1.0996,-1.087,-1.053,-1.0491,-1.0168,-0.9518,-0.9422,-0.9113,-0.8511,-0.8117,-0.7694,0.0,-0.6478,-0.5885,-0.5359,0.0,0.0,0.0,0.0,0.0,0.0,-0.1044,-0.064,-0.0472,-0.0303,-0.0034,0.0302,0.0381,0.0558,0.0766,0.1039,0.1211,0.1402,0.1847,0.2238,0.2663,0.3294,0.385,0.4328,0.4686,0.5156,0.5617,0.5855,0.6119,0.6515,0.704,0.7433,0.7824,0.8349,0.8861,0.9274,0.9454,0.9913,1.0333,1.053,1.0681,1.0965,0.0,0.0,0.0,0.0,0.0,0.0,0.0,1.3329,0.0,1.3881,1.4687,1.5345,1.5708,1.5564,1.5557,1.5811,1.6065,1.6296,1.6438,1.6589,1.6747,1.6955,1.7145,1.7295,1.744,1.7562,1.7617,1.7617,1.7617,1.7462,1.7222,1.7194,1.6885,1.6374,1.6316,1.599,1.5556,1.5235,1.4843,1.4449,1.4444,1.4432,1.4363,-1.3441,0.0,0.0,0.0,0.0,-1.1751,-1.1628,-1.1384,-1.1216,-1.1216,-1.1059,-1.0933,-1.0895,-1.0776,-1.0649,-1.046,-1.0428,0.0,0.0,0.0,0.0,-0.9518,-0.8985,-0.8608,-0.8517,-0.7884,-0.7363,-0.6946,-0.6284,-0.5686,-0.5123,0.0,0.0,0.0,0.0,0.0,-0.121,-0.0741,0.0,-0.0303,-0.0135,0.0101,0.0302,0.0422,0.0631,0.0922,0.1244,0.1436,0.16,0.1903,0.2376,0.2912,0.3352,0.3939,0.4507,0.4715,0.5093,0.5491,0.5826,0.6053,0.6346,0.6843,0.7237,0.7652,0.8139,0.8565,0.899,0.9428,0.9786,1.011,1.0333,1.0586,1.0902,1.1153,1.1466,1.1716,1.1778,0.0,0.0,0.0,0.0,1.3216,1.3571,1.4234,1.4847,1.5352,1.5611,1.597,1.6484,1.6712,1.6819,1.6715,1.6863,1.6853,1.6655,1.6807,1.6948,1.7095,1.7095,1.7123,1.7123,1.7123,1.705,1.6874,1.6658,1.6488,1.6345,1.5807,1.5303,1.4863,1.4686,1.4389,1.4105,1.4158,1.4084,1.3899,0.0,0.0,0.0,0.0,0.0,-1.1171,-1.0824,-1.0575,-1.0491,-1.0649,-1.0523,-1.0396,-1.0396,-1.0276,-1.0149,-1.0053,-0.9945,-0.9817,-0.9658,-0.9492,-0.9268,-0.8985,-0.8673,-0.8349,-0.7987,-0.7559,-0.7106,-0.6651,-0.605,-0.5455,-0.4924,0.0,0.0,0.0,0.0,-0.1648,0.0,0.0,-0.0438,-0.027,0.0034,0.027,0.0437,0.0653,0.0896,0.1161,0.1527,0.1749,0.1894,0.2169,0.2604,0.3093,0.361,0.4134,0.4596,0.4865,0.516,0.5462,0.5826,0.5954,0.6152,0.6679,0.7073,0.7461,0.7852,0.8312,0.8765,0.9145,0.9492,0.9849,1.0238,1.0523,1.0744,1.0933,1.1185,1.1404,1.1591,1.1778,1.2027,0.0,0.0,0.0,1.3216,1.3692,1.4312,1.5127,1.5411,1.5837,1.65,1.6728,1.684,1.691,1.7032,1.7073,1.7067,1.7186,1.7238,1.7158,1.7226,1.7116,1.6881,1.6825,1.6722,1.6563,1.6363,1.6095,1.5836,1.5264,1.4985,1.489,1.4608,1.4435,1.4294,1.4115,1.3891,1.368,0.0,-1.1855,0.0,0.0,-1.0895,-1.0585,-1.0111,-0.9776,-0.9702,-1.0079,-0.9983,-0.9856,-0.9856,-0.9734,-0.9606,-0.9574,-0.9434,-0.93,-0.9145,-0.9081,-0.8856,-0.8414,-0.8317,-0.8019,-0.7461,-0.7167,-0.6778,-0.6284,-0.5752,-0.5223,-0.4664,-0.4028,0.0,0.0,0.0,-0.1312,-0.0942,-0.0606,-0.0337,-0.0135,0.0169,0.0404,0.0605,0.092,0.1167,0.144,0.1801,0.209,0.2337,0.2567,0.2865,0.3252,0.3867,0.429,0.465,0.5012,0.5256,0.5462,0.5756,0.5855,0.602,0.6511,0.6872,0.7237,0.7563,0.8057,0.8511,0.8829,0.9204,0.9646,1.0142,1.0403,1.0555,1.0681,1.0902,1.1122,1.1404,1.1498,1.1654,0.0,0.0,0.0,1.2897,1.3246,1.3883,1.4935,1.523,1.5748,1.66,1.6799,1.6985,1.711,1.7236,1.7322,1.745,1.7543,1.7492,1.7271,1.7401,1.7242,1.6875,1.6655,1.6537,1.6403,1.618,1.5841,1.5446,1.5057,1.4958,1.4948,1.4633,1.4466,1.4346,1.4106,1.3804,1.3567,0.0,0.0,0.0,-1.0665,-1.0337,-1.0001,-0.9562,-0.915,-0.9055,-0.9524,-0.946,-0.937,-0.937,-0.9177,-0.9022,-0.8899,-0.8867,-0.877,-0.8576,-0.8404,-0.8236,-0.8052,-0.7754,-0.7493,-0.7237,-0.6745,-0.6288,-0.5954,-0.5422,-0.4858,-0.4334,-0.3799,-0.2993,-0.1985,-0.1412,-0.0942,-0.0539,-0.0371,-0.0101,0.0236,0.027,0.0506,0.0809,0.1006,0.1351,0.1771,0.1986,0.2448,0.294,0.3086,0.3212,0.3384,0.4,0.4362,0.465,0.5012,0.5256,0.5428,0.5587,0.5752,0.5987,0.635,0.6683,0.7045,0.7428,0.7879,0.8306,0.8511,0.9049,0.962,0.9951,1.018,1.0339,1.0333,1.0618,1.0839,1.0863,1.1153,1.1397,1.1622,0.0,0.0,1.2621,1.3064,1.3718,1.4668,1.5303,1.6169,1.7343,1.7532,1.7585,1.7566,1.7556,1.7464,1.7232,1.7232,1.7243,1.7202,1.7234,1.7213,1.7163,1.6719,1.6497,1.6467,1.6136,1.5861,1.5675,1.5633,1.5221,1.4639,1.4615,1.4214,1.3723,1.3984,1.3758,1.3367,-1.0738,-1.0625,-1.0387,-0.9809,-0.9623,-0.9358,-0.8761,-0.856,-0.8468,-0.8592,-0.8732,-0.8829,-0.8829,-0.863,-0.8495,-0.8436,-0.8247,-0.8122,-0.8025,-0.7884,-0.7684,-0.7531,-0.7269,-0.7007,-0.6712,-0.6317,-0.5921,-0.5594,-0.5057,-0.4525,-0.3995,-0.346,-0.2656,-0.1715,-0.1277,-0.0875,-0.0506,-0.0371,-0.0067,0.0303,0.0371,0.064,0.101,0.1278,0.167,0.2079,0.2399,0.2748,0.313,0.3508,0.3732,0.3897,0.4307,0.4649,0.495,0.5209,0.5326,0.5428,0.555,0.5752,0.5954,0.6218,0.6544,0.6876,0.7232,0.7559,0.7917,0.8414,0.8861,0.93,0.9652,0.9779,0.9881,1.0079,1.0333,1.0523,1.0649,1.087,1.1083,1.1404,0.0,1.1965,1.2375,1.2705,1.3401,1.4622,1.5236,1.6046,1.707,1.7417,1.7614,1.7667,1.7768,1.7866,1.7852,1.7852,1.7788,1.7634,1.7634,1.7461,1.719,1.6917,1.6682,1.6424,1.5987,1.5765,1.5657,1.5204,1.5026,1.4925,1.4487,1.4175,1.3999,1.3813,1.3438,1.3021,-1.0067,-0.9938,-0.9648,-0.9069,-0.8908,-0.869,-0.8098,-0.7944,-0.7884,-0.7787,-0.7922,-0.809,-0.8252,-0.8112,-0.7977,-0.7912,-0.7689,-0.7536,-0.747,-0.733,-0.7167,-0.6975,-0.6778,-0.6515,-0.6185,-0.5888,-0.5557,-0.516,-0.4728,-0.4192,-0.3625,-0.2989,-0.2252,-0.1446,-0.1076,-0.074,-0.0438,-0.0202,0.0067,0.0371,0.0606,0.0875,0.121,0.1614,0.1985,0.2316,0.2759,0.3095,0.3389,0.3843,0.417,0.4396,0.459,0.4846,0.5156,0.5326,0.5395,0.5428,0.5521,0.5686,0.5855,0.605,0.6379,0.6675,0.697,0.7297,0.7689,0.8349,0.87,0.8952,0.93,0.9422,0.9582,0.9817,1.0047,1.0276,1.0466,1.0649,1.0839,1.1115,1.1435,1.1716,1.2058,1.25,1.321,1.4369,1.5048,1.5842,1.6837,1.722,1.7486,1.7706,1.7852,1.7998,1.8202,1.8202,1.8121,1.7932,1.7932,1.7763,1.7422,1.7155,1.6776,1.6349,1.6035,1.5805,1.5683,1.5159,1.4976,1.4963,1.4407,1.4135,1.3985,1.3521,1.3083,1.2673,-0.962,-0.9288,-0.8881,-0.8487,-0.8231,-0.7976,-0.7555,-0.733,-0.7204,-0.7204,-0.704,-0.711,-0.7666,-0.7591,-0.7423,-0.7232,-0.7204,-0.7106,-0.6913,-0.6778,-0.6609,-0.6416,-0.628,-0.6013,-0.5617,-0.5491,-0.516,-0.4625,-0.4398,-0.393,-0.3192,-0.2321,-0.1614,-0.1076,-0.0674,-0.0438,-0.027,0.0135,0.0371,0.0539,0.0942,0.1176,0.1379,0.1951,0.2288,0.2458,0.2991,0.3458,0.3859,0.4195,0.4531,0.4794,0.4794,0.4924,0.5156,0.5326,0.5395,0.5395,0.5395,0.5488,0.565,0.5855,0.6156,0.6449,0.6675,0.7134,0.7689,0.8349,0.8517,0.8608,0.8952,0.9268,0.9486,0.9518,0.9786,1.0079,1.0276,1.0466,1.0649,1.0776,1.1279,1.1591,1.1622,1.2522,1.3324,1.3867,1.4723,1.572,1.6846,1.7107,1.7373,1.7672,1.7706,1.7784,1.8008,1.8008,1.8008,1.7998,1.7998,1.7998,1.7978,1.7373,1.6793,1.6312,1.6312,1.609,1.5788,1.5788,1.5319,1.4597,1.4374,1.3985,1.3455,1.3046,1.2636,1.2268,-0.8822,-0.8571,-0.8253,-0.7842,-0.7676,-0.7436,-0.7137,-0.704,-0.6975,-0.6872,-0.6679,-0.6581,-0.6675,-0.6937,-0.704,-0.6872,-0.6745,-0.6581,-0.6445,-0.6251,-0.6053,-0.5851,-0.5719,-0.5524,-0.5253,-0.4861,-0.4567,-0.4398,-0.383,-0.3192,-0.249,-0.1951,-0.148,-0.1076,-0.0674,-0.0438,-0.027,0.0135,0.0371,0.0539,0.0942,0.1344,0.1748,0.2087,0.2523,0.2993,0.3295,0.373,0.4164,0.4428,0.4728,0.499,0.499,0.516,0.5326,0.5395,0.5395,0.5395,0.5395,0.5488,0.5617,0.5683,0.5984,0.6313,0.6449,0.7003,0.7559,0.7787,0.7987,0.8247,0.8608,0.8732,0.8888,0.9113,0.9428,0.9684,0.9748,1.0104,1.046,1.0656,1.1028,1.1341,1.1591,1.2307,1.3032,1.366,1.4563,1.548,1.6429,1.6795,1.7176,1.7564,1.7647,1.7784,1.8008,1.8008,1.8008,1.8008,1.8008,1.793,1.7784,1.7207,1.6887,1.6691,1.6173,1.5826,1.5576,1.515,1.4713,1.4238,1.3884,1.3411,1.2826,1.2415,1.1966,1.1409,-0.8227,-0.8014,-0.7744,-0.7267,-0.7078,-0.6848,-0.6568,-0.6519,-0.6486,-0.6416,-0.6284,-0.6185,-0.6083,-0.628,-0.6416,-0.6416,-0.6284,-0.6152,-0.598,-0.5822,-0.5624,-0.5418,-0.5223,-0.4994,-0.4791,-0.4398,-0.4097,-0.3897,-0.3159,-0.2555,-0.2087,-0.1614,-0.1211,-0.0875,-0.0573,-0.0303,-0.0067,0.0236,0.0506,0.0775,0.1144,0.158,0.2052,0.2388,0.279,0.3228,0.3563,0.3966,0.4334,0.4595,0.4858,0.512,0.519,0.5292,0.5395,0.5395,0.5395,0.5395,0.5395,0.5458,0.5554,0.5583,0.5782,0.6046,0.6317,0.6806,0.7232,0.7363,0.7624,0.7884,0.8155,0.8349,0.8576,0.8765,0.9145,0.946,0.9486,0.9849,1.0212,1.0466,1.0744,1.1028,1.1373,1.2124,1.2869,1.3469,1.4346,1.5218,1.6061,1.6551,1.6934,1.7254,1.7486,1.7725,1.7896,1.7974,1.8008,1.8008,1.794,1.7725,1.7407,1.7038,1.6735,1.6456,1.6008,1.5549,1.5141,1.4669,1.4245,1.3848,1.3339,1.2826,1.2335,1.1855,1.1335,1.0812,-0.7768,-0.7545,-0.7249,-0.6743,-0.65,-0.6255,-0.5954,-0.5888,-0.5888,-0.5888,-0.5855,-0.5859,-0.5855,-0.5653,-0.5617,-0.5822,-0.5822,-0.5756,-0.555,-0.5425,-0.5259,-0.5054,-0.4725,-0.4461,-0.4233,-0.4064,-0.3661,-0.3127,-0.249,-0.2087,-0.185,-0.1344,-0.0875,-0.0472,-0.0337,-0.0067,0.0303,0.0472,0.0775,0.1143,0.148,0.1884,0.2288,0.2824,0.3125,0.3326,0.3828,0.4164,0.44,0.4697,0.496,0.5156,0.5326,0.5395,0.5395,0.5395,0.5395,0.5395,0.5395,0.5395,0.5428,0.555,0.5583,0.5749,0.6251,0.6515,0.6773,0.7073,0.7297,0.7493,0.7661,0.809,0.8447,0.8479,0.8926,0.9306,0.9454,0.9632,0.9894,1.0238,1.0466,1.0726,1.1062,1.2003,1.2811,1.3323,1.4112,1.4927,1.5691,1.6237,1.6647,1.6908,1.7289,1.7564,1.7672,1.7862,1.7974,1.7974,1.775,1.7373,1.6908,1.6839,1.6456,1.5805,1.5726,1.5292,1.4569,1.431,1.3912,1.3346,1.2783,1.2298,1.1855,1.126,1.0775,1.0368,-0.6992,-0.6747,-0.6576,-0.6375,-0.6168,-0.5987,-0.5925,-0.5888,-0.5855,-0.5683,-0.5587,-0.5458,-0.5322,-0.5123,-0.4994,-0.506,-0.5193,-0.519,-0.4994,-0.4861,-0.4694,-0.4498,-0.4261,-0.3997,-0.3699,-0.3496,-0.3092,-0.2423,-0.2288,-0.1884,-0.1277,-0.1143,-0.0841,-0.0337,-0.0169,0.0067,0.0337,0.0774,0.1008,0.1143,0.1783,0.2188,0.2423,0.296,0.336,0.3692,0.4097,0.4431,0.4731,0.496,0.5156,0.5326,0.5395,0.5395,0.5395,0.5395,0.5395,0.5395,0.5395,0.5395,0.5395,0.5425,0.5521,0.5683,0.5954,0.6251,0.6482,0.6581,0.6843,0.7138,0.7493,0.7657,0.7852,0.8209,0.8506,0.8797,0.9081,0.9364,0.969,1.0015,1.0364,1.0744,1.1154,1.2026,1.2738,1.3078,1.4041,1.4748,1.5078,1.5691,1.6281,1.6874,1.7141,1.7348,1.7564,1.7608,1.7608,1.7608,1.7254,1.7003,1.6874,1.6325,1.5973,1.5761,1.515,1.4641,1.4165,1.3666,1.3112,1.2526,1.2077,1.1669,1.1223,1.0625,1.0143,0.9733,-0.6697,-0.6492,-0.6328,-0.606,-0.5862,-0.5752,-0.569,-0.5591,-0.5488,-0.5385,-0.5223,-0.5096,-0.496,-0.4731,-0.4567,-0.4567,-0.4758,-0.4791,-0.4597,-0.4428,-0.4195,-0.3933,-0.373,-0.3527,-0.3261,-0.2993,-0.2589,-0.2052,-0.1817,-0.148,-0.1109,-0.0841,-0.0573,-0.0303,0.0,0.0236,0.0438,0.0908,0.1244,0.1513,0.2018,0.2423,0.2792,0.3194,0.3629,0.4061,0.4331,0.4661,0.496,0.5054,0.5223,0.5395,0.5395,0.5395,0.5395,0.5395,0.5395,0.5395,0.5395,0.5395,0.5395,0.5395,0.5488,0.5617,0.5752,0.5987,0.6185,0.6284,0.6515,0.6778,0.7068,0.7326,0.7587,0.7847,0.8214,0.8576,0.8732,0.9145,0.9492,0.9748,1.0226,1.0692,1.1074,1.1995,1.2687,1.2994,1.3838,1.4497,1.4756,1.5328,1.5964,1.663,1.6899,1.7176,1.7358,1.747,1.7401,1.722,1.7012,1.6735,1.6386,1.5973,1.5584,1.5221,1.4669,1.4165,1.3666,1.3156,1.2562,1.1966,1.1484,1.1037,1.0625,0.9992,0.9468,0.8975,-0.6544,-0.6419,-0.6182,-0.5849,-0.5656,-0.5517,-0.5392,-0.5223,-0.5087,-0.5054,-0.4861,-0.4731,-0.4731,-0.4431,-0.4197,-0.4167,-0.4295,-0.4328,-0.42,-0.3997,-0.3727,-0.3431,-0.3194,-0.3025,-0.2891,-0.249,-0.212,-0.1783,-0.1311,-0.1042,-0.0975,-0.0505,-0.027,-0.0202,0.0169,0.0438,0.0606,0.1009,0.148,0.1951,0.2221,0.269,0.3226,0.3496,0.3866,0.4334,0.4561,0.4824,0.512,0.5123,0.5259,0.5395,0.5395,0.5395,0.5395,0.5395,0.5395,0.5395,0.5395,0.5395,0.5395,0.5395,0.5491,0.5583,0.5583,0.5719,0.5921,0.6083,0.6247,0.6416,0.6609,0.7064,0.7391,0.7489,0.7987,0.8414,0.8484,0.8926,0.9306,0.9486,1.0093,1.0651,1.0989,1.1902,1.26,1.2969,1.3618,1.4173,1.4569,1.507,1.5638,1.6202,1.6621,1.6934,1.7132,1.7279,1.7185,1.6839,1.6769,1.6421,1.5805,1.5655,1.5221,1.4533,1.4274,1.3731,1.3083,1.2599,1.2077,1.1484,1.0887,1.0406,0.9992,0.9392,0.8784,0.825,-0.617,-0.5978,-0.5827,-0.5648,-0.5528,-0.5359,-0.519,-0.512,-0.5024,-0.4861,-0.4564,-0.4367,-0.4367,-0.4061,-0.3794,-0.3632,-0.3493,-0.346,-0.3632,-0.3429,-0.3259,-0.3092,-0.2725,-0.2456,-0.2321,-0.1918,-0.1547,-0.121,-0.1143,-0.0875,-0.0438,-0.0337,-0.0135,0.0202,0.0404,0.0674,0.1042,0.1379,0.1783,0.2188,0.269,0.2991,0.3259,0.3727,0.4064,0.4334,0.4664,0.4927,0.512,0.5292,0.5362,0.5395,0.5395,0.5395,0.5395,0.5395,0.5395,0.5395,0.5395,0.5395,0.5395,0.5395,0.5425,0.5425,0.5425,0.5554,0.565,0.5683,0.598,0.628,0.6416,0.6642,0.6966,0.7423,0.7694,0.7992,0.8452,0.8829,0.9177,0.9454,1.0093,1.0662,1.1139,1.1817,1.2443,1.2882,1.3353,1.3855,1.4389,1.4641,1.507,1.5867,1.6377,1.6751,1.6934,1.6821,1.6716,1.6647,1.6175,1.5903,1.577,1.5114,1.4641,1.431,1.3659,1.3119,1.2636,1.1892,1.1335,1.0887,1.0293,0.9809,0.9359,0.8746,0.8246,0.7821,-0.6204,-0.603,-0.5865,-0.5689,-0.5494,-0.5277,-0.5073,-0.494,-0.4758,-0.4564,-0.4298,-0.4064,-0.3899,-0.3627,-0.3426,-0.3261,-0.296,-0.2792,-0.2792,-0.2792,-0.2723,-0.2589,-0.2287,-0.1951,-0.1614,-0.1412,-0.1144,-0.0774,-0.0707,-0.0539,-0.0303,-0.0067,0.0135,0.0303,0.0673,0.0942,0.1143,0.1681,0.2087,0.2356,0.2891,0.3259,0.3558,0.3997,0.4331,0.4597,0.4861,0.5093,0.5292,0.5362,0.5395,0.5395,0.5395,0.5395,0.5395,0.5395,0.5395,0.5395,0.5395,0.5395,0.5395,0.5395,0.5395,0.5395,0.5395,0.5458,0.5521,0.5583,0.5749,0.5947,0.6247,0.6412,0.6679,0.7106,0.74,0.7727,0.8187,0.8603,0.9036,0.939,1.0211,1.0872,1.1217,1.1966,1.2565,1.2886,1.3273,1.3674,1.408,1.4397,1.4784,1.515,1.5991,1.6473,1.6586,1.6473,1.6342,1.6167,1.5903,1.5584,1.515,1.4677,1.4165,1.3695,1.3119,1.2526,1.1892,1.1335,1.07,1.0105,0.9614,0.9084,0.8599,0.7983,0.7484,0.7057,-0.63,-0.6097,-0.5878,-0.5722,-0.5483,-0.5205,-0.4934,-0.4702,-0.4492,-0.4203,-0.3961,-0.3727,-0.3462,-0.3194,-0.2958,-0.2824,-0.249,-0.2221,-0.2087,-0.2087,-0.2087,-0.2052,-0.185,-0.148,-0.0975,-0.0975,-0.0808,-0.0438,-0.0337,-0.0236,-0.0169,0.0169,0.0337,0.0438,0.0908,0.1176,0.1311,0.1951,0.2356,0.2624,0.3094,0.3527,0.3961,0.4264,0.4564,0.4894,0.5057,0.5223,0.5395,0.5395,0.5395,0.5395,0.5395,0.5395,0.5395,0.5395,0.5395,0.5395,0.5395,0.5395,0.5395,0.5395,0.5395,0.5395,0.5395,0.5395,0.5428,0.5521,0.5583,0.5716,0.6083,0.6251,0.6482,0.6848,0.7204,0.7559,0.7954,0.8522,0.9018,0.9365,1.0355,1.1058,1.1274,1.2058,1.2599,1.2826,1.3156,1.3455,1.3717,1.4145,1.4461,1.4605,1.5568,1.6132,1.6167,1.6132,1.5964,1.5655,1.5584,1.515,1.4461,1.4165,1.3695,1.3046,1.2526,1.1929,1.1223,1.0738,1.0105,0.9425,0.8965,0.8437,0.7834,0.7257,0.6756,0.6289,-0.63,-0.598,-0.5722,-0.5685,-0.5417,-0.5063,-0.4592,-0.4533,-0.4349,-0.3904,-0.3491,-0.3259,-0.3226,-0.2758,-0.2389,-0.2255,-0.2052,-0.185,-0.1648,-0.1379,-0.1344,-0.1614,-0.1344,-0.0975,-0.0539,-0.0539,-0.0472,-0.0303,-0.0303,-0.0101,0.027,0.027,0.0472,0.0776,0.1009,0.1379,0.185,0.2087,0.2555,0.3161,0.3395,0.3799,0.43,0.4495,0.4791,0.509,0.5087,0.5223,0.5395,0.5395,0.5395,0.5395,0.5395,0.5395,0.5395,0.5395,0.5395,0.5395,0.5395,0.5395,0.5395,0.5395,0.5395,0.5395,0.5395,0.5395,0.5395,0.5425,0.5521,0.565,0.5888,0.6083,0.6379,0.6815,0.7073,0.74,0.7922,0.8661,0.9243,0.9388,1.0514,1.1274,1.1293,1.1913,1.2415,1.2599,1.2826,1.3119,1.3492,1.3754,1.408,1.4569,1.5213,1.5638,1.5833,1.5638,1.5461,1.524,1.4883,1.4489,1.4129,1.3557,1.3046,1.2599,1.1818,1.1223,1.0775,0.9992,0.9425,0.9003,0.8403,0.7795,0.7219,0.6795,0.6247,0.5583,-0.6099,-0.5934,-0.5743,-0.5513,-0.5179,-0.4859,-0.4554,-0.4234,-0.3904,-0.3597,-0.3275,-0.2947,-0.2629,-0.2389,-0.2154,-0.185,-0.158,-0.1379,-0.1311,-0.0942,-0.0775,-0.0909,-0.0808,-0.0606,-0.0371,-0.0371,-0.0303,-0.0101,0.0,0.0135,0.0303,0.0506,0.0741,0.101,0.1278,0.1648,0.212,0.2522,0.2891,0.3228,0.3661,0.3997,0.4334,0.4631,0.4891,0.512,0.5256,0.5326,0.5395,0.5395,0.5395,0.5395,0.5395,0.5395,0.5395,0.5395,0.5395,0.5395,0.5395,0.5395,0.5395,0.5395,0.5395,0.5395,0.5395,0.5395,0.5395,0.5395,0.5425,0.5557,0.5855,0.5954,0.6218,0.6815,0.6979,0.7278,0.8064,0.8668,0.9242,0.9828,1.0741,1.1363,1.1535,1.2018,1.2378,1.2562,1.2673,1.29,1.3309,1.3608,1.3935,1.4274,1.4489,1.482,1.5248,1.5185,1.5007,1.4713,1.4418,1.4029,1.3521,1.2929,1.2342,1.1818,1.1149,1.0556,0.9992,0.9311,0.8737,0.8199,0.7595,0.6945,0.6328,0.5941,0.5395,0.4771,-0.5867,-0.5747,-0.5592,-0.5279,-0.498,-0.4647,-0.427,-0.3906,-0.354,-0.3203,-0.2923,-0.2575,-0.2153,-0.1995,-0.1783,-0.148,-0.1177,-0.0975,-0.0908,-0.0606,-0.0438,-0.0438,-0.0438,-0.0371,-0.0202,-0.0202,-0.0135,0.0,0.0202,0.0337,0.0371,0.0741,0.0976,0.1176,0.1614,0.1985,0.2388,0.2857,0.3226,0.3493,0.393,0.4231,0.4498,0.4794,0.5027,0.5223,0.5359,0.5395,0.5395,0.5395,0.5395,0.5395,0.5395,0.5395,0.5395,0.5395,0.5395,0.5395,0.5395,0.5395,0.5395,0.5395,0.5395,0.5395,0.5395,0.5395,0.5395,0.5395,0.5395,0.5495,0.5822,0.5888,0.6123,0.6782,0.6913,0.7239,0.8174,0.8717,0.9333,1.0107,1.0942,1.1497,1.1687,1.2077,1.2378,1.2489,1.2562,1.2746,1.3083,1.3382,1.3601,1.3804,1.3811,1.3992,1.4361,1.4469,1.4397,1.4109,1.384,1.3404,1.2783,1.2261,1.1706,1.1074,1.0481,0.9879,0.9273,0.8589,0.8012,0.7437,0.6745,0.6128,0.555,0.5162,0.4577,0.3954,-0.5637,-0.544,-0.524,-0.5043,-0.4813,-0.4428,-0.3716,-0.3588,-0.3369,-0.2704,-0.2353,-0.2105,-0.1928,-0.1539,-0.1244,-0.1109,-0.0909,-0.0708,-0.0506,-0.0371,-0.0303,-0.0303,-0.0303,-0.0202,0.0,0.0,0.0,0.0,0.0202,0.0371,0.0506,0.0908,0.1176,0.1344,0.1918,0.2388,0.272,0.3058,0.3527,0.4028,0.4233,0.45,0.4831,0.5024,0.5223,0.5395,0.5395,0.5395,0.5395,0.5395,0.5395,0.5395,0.5395,0.5395,0.5395,0.5395,0.5395,0.5395,0.5395,0.5395,0.5395,0.5395,0.5395,0.5395,0.5395,0.5395,0.5395,0.5395,0.5395,0.5495,0.5822,0.5888,0.6123,0.6782,0.6913,0.7244,0.8179,0.8888,0.9515,1.0124,1.1101,1.1706,1.1706,1.2077,1.2305,1.2305,1.2489,1.2673,1.29,1.29,1.2973,1.3193,1.32,1.32,1.32,1.3608,1.3681,1.3492,1.3083,1.2562,1.1966,1.1558,1.1074,1.0475,0.9846,0.9241,0.8627,0.7825,0.7249,0.6784,0.5931,0.5351,0.4927,0.454,0.3834,0.3054,-0.524,-0.5124,-0.4965,-0.4654,-0.4309,-0.3988,-0.3765,-0.3219,-0.2731,-0.2475,-0.2156,-0.1754,-0.1372,-0.1217,-0.1031,-0.0709,-0.0539,-0.0371,-0.0169,-0.0101,-0.0101,-0.0101,-0.0101,-0.0067,0.0,0.0,0.0067,0.0202,0.0371,0.0606,0.0942,0.1144,0.148,0.1951,0.212,0.2522,0.3058,0.3295,0.373,0.4233,0.4431,0.4728,0.5024,0.509,0.5223,0.5395,0.5395,0.5395,0.5395,0.5395,0.5395,0.5395,0.5395,0.5395,0.5395,0.5395,0.5395,0.5395,0.5395,0.5395,0.5395,0.5395,0.5395,0.5395,0.5395,0.5395,0.5395,0.5395,0.5395,0.5495,0.5822,0.5888,0.6123,0.6782,0.7189,0.7686,0.8483,0.9243,0.9882,1.0376,1.1174,1.1706,1.1706,1.2077,1.2305,1.2305,1.2489,1.2636,1.2673,1.2826,1.2936,1.2973,1.2863,1.2783,1.2783,1.3046,1.3083,1.2856,1.2335,1.1818,1.1335,1.0812,1.0218,0.962,0.9013,0.8403,0.7787,0.6938,0.6356,0.5893,0.5082,0.4579,0.4309,0.372,0.3054,0.243,-0.4929,-0.4735,-0.454,-0.4229,-0.3878,-0.3606,-0.3333,-0.2823,-0.2419,-0.2116,-0.1791,-0.1423,-0.1052,-0.0922,-0.0731,-0.0446,-0.0271,-0.0135,0.0,0.0,0.0,0.0,0.0,0.0,0.0,0.0067,0.0169,0.0303,0.0506,0.0775,0.1109,0.1412,0.1783,0.2221,0.249,0.2859,0.3328,0.3665,0.4064,0.4431,0.4691,0.4924,0.512,0.519,0.5292,0.5395,0.5395,0.5395,0.5395,0.5395,0.5395,0.5395,0.5395,0.5395,0.5395,0.5395,0.5395,0.5395,0.5395,0.5395,0.5395,0.5395,0.5395,0.5395,0.5395,0.5395,0.5395,0.5395,0.5395,0.5495,0.5822,0.5977,0.6257,0.696,0.7423,0.7932,0.8715,0.9444,1.0061,1.0447,1.1149,1.1595,1.1706,1.2003,1.2224,1.2298,1.2342,1.2395,1.2516,1.256,1.2614,1.2735,1.2621,1.2507,1.2431,1.2462,1.2426,1.2224,1.1558,1.0999,1.0625,1.0067,0.9468,0.8789,0.8289,0.7633,0.6938,0.6086,0.5506,0.504,0.4226,0.3761,0.3491,0.286,0.2313,0.1804,-0.4659,-0.4311,-0.3999,-0.3765,-0.3526,-0.3214,-0.2588,-0.2433,-0.2198,-0.165,-0.131,-0.1063,-0.0871,-0.0617,-0.0422,-0.028,-0.0103,0.0,0.0,0.0,0.0,0.0,0.0,0.0,0.0034,0.0202,0.0303,0.0303,0.0674,0.0943,0.1143,0.1681,0.2052,0.2288,0.2924,0.3328,0.3565,0.41,0.4431,0.4658,0.4957,0.512,0.5156,0.5326,0.5395,0.5395,0.5395,0.5395,0.5395,0.5395,0.5395,0.5395,0.5395,0.5395,0.5395,0.5395,0.5395,0.5395,0.5395,0.5395,0.5395,0.5395,0.5395,0.5395,0.5395,0.5395,0.5395,0.5395,0.5395,0.5498,0.5877,0.6071,0.6455,0.7185,0.7596,0.8107,0.888,0.9552,1.0084,1.0453,1.1037,1.1484,1.1669,1.1855,1.2053,1.2264,1.2116,1.2141,1.2402,1.2222,1.2226,1.2473,1.2439,1.232,1.212,1.188,1.1739,1.1633,1.0848,1.024,0.9765,0.9359,0.8751,0.7987,0.7522,0.6861,0.6047,0.5234,0.4654,0.4187,0.3327,0.2899,0.2628,0.1999,0.153,0.1139,-0.4114,-0.3919,-0.3686,-0.3098,-0.2863,-0.2627,-0.2314,-0.1884,-0.1532,-0.1375,-0.0978,-0.0658,-0.0455,-0.0375,-0.0257,-0.007,-0.0034,0.0,0.0,0.0,0.0,0.0,0.0,0.0067,0.0236,0.027,0.0337,0.0472,0.0841,0.1177,0.1513,0.1918,0.2388,0.2824,0.3092,0.346,0.3894,0.42,0.4464,0.4761,0.5024,0.519,0.5326,0.5395,0.5395,0.5395,0.5395,0.5395,0.5395,0.5395,0.5395,0.5395,0.5395,0.5395,0.5395,0.5395,0.5395,0.5395,0.5395,0.5395,0.5395,0.5395,0.5395,0.5395,0.5395,0.5395,0.5395,0.5395,0.5395,0.5566,0.6029,0.6188,0.6464,0.7333,0.7794,0.8262,0.8895,0.9649,1.0237,1.0475,1.1037,1.1409,1.1446,1.1632,1.1877,1.2113,1.2094,1.2216,1.2457,1.243,1.2376,1.228,1.212,1.184,1.1433,1.1077,1.0959,1.1074,1.0423,0.971,0.8932,0.8394,0.7787,0.7134,0.6518,0.5857,0.5198,0.4384,0.38,0.3288,0.2468,0.2117,0.1999,0.1177,0.0746,0.0393,-0.388,-0.345,-0.3059,-0.2707,-0.2395,-0.212,-0.1805,-0.1492,-0.1218,-0.0982,-0.0668,-0.043,-0.0309,-0.0229,-0.0112,0.0,0.0,0.0,0.0,0.0,0.0,0.0,0.0101,0.0202,0.0303,0.0539,0.0707,0.0774,0.1076,0.1446,0.1884,0.2154,0.2589,0.3092,0.336,0.3727,0.4164,0.4434,0.4694,0.496,0.5156,0.5292,0.5395,0.5395,0.5395,0.5395,0.5395,0.5395,0.5395,0.5395,0.5395,0.5395,0.5395,0.5395,0.5395,0.5395,0.5395,0.5395,0.5395,0.5395,0.5395,0.5395,0.5395,0.5395,0.5395,0.5395,0.5395,0.5395,0.5453,0.563,0.6127,0.6304,0.6654,0.7496,0.7964,0.8463,0.9065,0.9654,1.018,1.0475,1.085,1.1241,1.1564,1.1765,1.1999,1.2284,1.2107,1.2107,1.2379,1.2188,1.2086,1.2094,1.1922,1.1585,1.1128,1.0757,1.0383,0.9948,0.9577,0.8988,0.8182,0.7516,0.6861,0.624,0.5589,0.4968,0.4343,0.3526,0.294,0.2429,0.1608,0.1295,0.1177,0.0353,-0.0314,-0.0824,-0.3606,-0.2979,-0.247,-0.2354,-0.2042,-0.165,-0.1296,-0.1178,-0.0982,-0.0589,-0.0393,-0.0236,-0.0236,-0.0115,0.0,0.0,0.0,0.0,0.0,0.0,0.0,0.0034,0.0202,0.0337,0.0438,0.0875,0.1109,0.1109,0.1344,0.1715,0.2221,0.2423,0.2792,0.3261,0.3694,0.4061,0.4367,0.4697,0.4957,0.512,0.5326,0.5395,0.5395,0.5395,0.5395,0.5395,0.5395,0.5395,0.5395,0.5395,0.5395,0.5395,0.5395,0.5395,0.5395,0.5395,0.5395,0.5395,0.5395,0.5395,0.5395,0.5395,0.5395,0.5402,0.5429,0.5416,0.5402,0.5429,0.5535,0.5745,0.6181,0.6447,0.6857,0.7666,0.8105,0.8556,0.9132,0.9582,0.9992,1.0368,1.0634,1.1047,1.1587,1.1842,1.2062,1.2329,1.2027,1.1939,1.2195,1.1832,1.1683,1.1817,1.1639,1.1284,1.0771,1.0506,0.9809,0.87,0.8479,0.8077,0.7454,0.6695,0.5999,0.5351,0.4696,0.4114,0.3528,0.2707,0.2079,0.1608,0.0785,0.0432,0.0314,-0.051,-0.1334,-0.2037,-0.2785,-0.2588,-0.2354,-0.1807,-0.1532,-0.1296,-0.0982,-0.0668,-0.0432,-0.0353,-0.0157,-0.0039,-0.0039,0.0,0.0,0.0,0.0,0.0,0.0,0.0,0.0069,0.0236,0.027,0.0505,0.0975,0.1076,0.1109,0.1109,0.1749,0.212,0.2221,0.2824,0.3228,0.3498,0.4,0.4364,0.4595,0.4924,0.509,0.512,0.5326,0.5395,0.5395,0.5395,0.5395,0.5395,0.5395,0.5395,0.5395,0.5395,0.5395,0.5395,0.5395,0.5395,0.5395,0.5395,0.5395,0.5395,0.5395,0.5395,0.5395,0.5395,0.5395,0.5429,0.5562,0.5491,0.5433,0.5532,0.5576,0.5807,0.6438,0.6563,0.6862,0.766,0.8012,0.8293,0.8703,0.9273,0.9733,0.9954,1.0533,1.0911,1.1023,1.118,1.1451,1.1699,1.1675,1.1664,1.1781,1.1707,1.1509,1.116,1.0895,1.0419,0.9777,0.9559,0.8978,0.7946,0.7407,0.6964,0.6628,0.5771,0.5105,0.4499,0.3679,0.3056,0.2627,0.2003,0.1335,0.0707,0.0079,-0.0275,-0.055,-0.1412,-0.2118,-0.2699,-0.2392,-0.2158,-0.1885,-0.1492,-0.1218,-0.0943,-0.0628,-0.0432,-0.0275,-0.0157,-0.0039,0.0,0.0,0.0,0.0,0.0,0.0,0.0037,0.0147,0.0178,0.0244,0.0448,0.0645,0.0841,0.1109,0.1513,0.1715,0.1715,0.2052,0.2389,0.2757,0.3058,0.3393,0.3797,0.4133,0.4464,0.4728,0.499,0.5156,0.5292,0.5362,0.5395,0.5395,0.5395,0.5395,0.5395,0.5395,0.5395,0.5395,0.5395,0.5395,0.5395,0.5395,0.5395,0.5395,0.5395,0.5395,0.5395,0.5395,0.5395,0.5395,0.5395,0.546,0.5542,0.5576,0.5599,0.5627,0.5694,0.5776,0.5947,0.6374,0.6622,0.6973,0.7553,0.7799,0.8102,0.8627,0.8932,0.9281,0.983,1.0365,1.073,1.0902,1.0966,1.1125,1.1409,1.1341,1.1262,1.1322,1.1068,1.0809,1.0641,1.012,0.9598,0.8986,0.864,0.7981,0.7007,0.6499,0.611,0.5919,0.4915,0.419,0.3671,0.2797,0.2194,0.1764,0.1139,0.051,-0.0118,-0.0668,-0.1178,-0.1726,-0.235,-0.2876,-0.3299]},{"header":{"parameterUnit":"m.s-1","parameterCategory":1,"la1":30.6,"la2":28.766,"lo1":-90.7593,"lo2":-88.6598,"dx":0.0162,"dy":0.0183,"nx":116,"ny":114,"refTime":"2023-01-29T18:00:00:Z","depth":0,"parameterNumber":3,"parameterNumberName":"V-component_of_WINDS"},"data":[0.0,0.0,0.0,0.0,0.0,0.0,0.0,0.0,0.0,0.0,0.0,0.0,0.0,0.0,0.0,0.0,0.0,0.0,0.0,0.0,0.0,0.0,0.0,0.0,0.0,0.0,0.0,0.0,0.0,0.0,0.0,0.0,0.0,0.0,0.0,0.0,0.0,0.0,0.0,0.0,0.0,0.0,0.0,0.0,0.0,0.0,0.0,0.0,0.0,0.0,0.0,0.0,0.0,0.0,0.0,0.0,0.0,0.0,0.0,0.0,0.0,0.0,0.0,0.0,0.0,0.0,0.0,0.0,0.0,0.0,0.0,0.0,0.0,0.0,0.0,0.0,0.0,0.0,0.0,0.0,0.0,0.0,0.0,0.0,0.0,0.0,0.0,0.0,0.0,0.0,0.0,0.0,0.0,0.0,0.0,0.0,0.0,0.0,0.0,0.0,0.0,0.0,0.0,0.0,0.0,0.0,0.0,0.0,0.0,0.0,0.0,0.0,0.0,0.0,0.0,0.0,0.0,0.0,0.0,0.0,0.0,0.0,0.0,0.0,0.0,0.0,0.0,0.0,0.0,0.0,0.0,0.0,0.0,0.0,0.0,0.0,0.0,0.0,0.0,0.0,0.0,0.0,0.0,0.0,0.0,0.0,0.0,0.0,0.0,0.0,0.0,0.0,0.0,0.0,0.0,0.0,0.0,0.0,0.0,0.0,0.0,0.0,0.0,0.0,0.0,0.0,0.0,0.0,0.0,0.0,0.0,0.0,0.0,0.0,0.0,0.0,0.0,0.0,0.0,0.0,0.0,0.0,0.0,0.0,0.0,0.0,0.0,0.0,0.0,0.0,0.0,0.0,0.0,0.0,0.0,0.0,0.0,0.0,0.0,0.0,0.0,0.0,0.0,0.0,0.0,0.0,0.0,0.0,0.0,0.0,0.0,0.0,0.0,0.0,0.0,0.0,0.0,0.0,0.0,0.0,0.0,0.0,0.0,0.0,0.0,0.0,0.0,0.0,0.0,0.0,0.0,0.0,0.0,0.0,0.0,0.0,0.0,0.0,0.0,0.0,0.0,0.0,0.0,0.0,0.0,0.0,0.0,0.0,0.0,0.0,0.0,0.0,0.0,0.0,0.0,0.0,0.0,0.0,0.0,0.0,0.0,0.0,0.0,0.0,0.0,0.0,0.0,0.0,0.0,0.0,0.0,0.0,0.0,0.0,0.0,0.0,0.0,0.0,0.0,0.0,0.0,0.0,0.0,0.0,0.0,0.0,0.0,0.0,0.0,0.0,0.0,0.0,0.0,0.0,0.0,0.0,0.0,0.0,0.0,0.0,0.0,0.0,0.0,0.0,0.0,0.0,0.0,0.0,0.0,0.0,0.0,0.0,0.0,0.0,0.0,0.0,0.0,0.0,0.0,0.0,0.0,0.0,0.0,0.0,0.0,0.0,0.0,0.0,0.0,0.0,0.0,0.0,0.0,0.0,0.0,0.0,0.0,0.0,0.0,0.0,0.0,0.0,0.0,0.0,0.0,0.0,0.0,0.0,0.0,0.0,0.0,0.0,0.0,0.0,0.0,0.0,0.0,0.0,0.0,0.0,0.0,0.0,0.0,0.0,0.0,0.0,0.0,0.0,0.0,0.0,0.0,0.0,0.0,0.0,0.0,0.0,0.0,0.0,0.0,0.0,0.0,0.0,0.0,0.0,0.0,0.0,0.0,0.0,0.0,0.0,0.0,0.0,0.0,0.0,0.0,0.0,0.0,0.0,0.0,0.0,0.0,0.0,0.0,0.0,0.0,0.0,0.0,0.0,0.0,0.0,0.0,0.0,0.0,0.0,0.0,0.0,0.0,0.0,0.0,0.0,0.0,0.0,0.0,0.0,0.0,0.0,0.0,0.0,0.0,0.0,0.0,0.0,0.0,0.0,0.0,0.0,0.0,0.0,0.0,0.0,0.0,0.0,0.0,0.0,0.0,0.0,0.0,0.0,0.0,0.0,0.0,0.0,0.0,0.0,0.0,0.0,0.0,0.0,0.0,0.0,0.0,0.0,0.0,0.0,0.0,0.0,0.0,0.0,0.0,0.0,0.0,0.0,0.0,0.0,0.0,0.0,0.0,0.0,0.0,0.0,0.0,0.0,0.0,0.0,0.0,0.0,0.0,0.0,0.0,0.0,0.0,0.0,0.0,0.0,0.0,0.0,0.0,0.0,0.0,0.0,0.0,0.0,0.0,0.0,0.0,0.0,0.0,0.0,0.0,0.0,0.0,0.0,0.0,0.0,0.0,0.0,0.0,0.0,0.0,0.0,0.0,0.0,0.0,0.0,0.0,0.0,0.0,0.0,0.0,0.0,0.0,0.0,0.0,0.0,0.0,0.0,0.0,0.0,0.0,0.0,0.0,0.0,0.0,0.0,0.0,0.0,0.0,0.0,0.0,0.0,0.0,0.0,0.0,0.0,0.0,0.0,0.0,0.0,0.0,0.0,0.0,0.0,0.0,0.0,0.0,0.0,0.0,0.0,0.0,0.0,0.0,0.0,0.0,0.0,0.0,0.0,0.0,0.0,0.0,0.0,0.0,0.0,0.0,0.0,0.0,0.0,0.0,0.0,0.0,0.0,0.0,0.0,0.0,0.0,0.0,0.0,0.0,0.0,0.0,0.0,0.0,0.0,0.0,0.0,0.0,0.0,0.0,0.0,0.0,0.0,0.0,0.0,0.0,0.0,0.0,0.0,0.0,0.0,0.0,0.0,0.0,0.0,0.0,0.0,0.0,0.0,0.0,0.0,0.0,0.0,0.0,0.0,0.0,0.0,0.0,0.0,0.0,0.0,0.0,0.0,0.0,0.0,0.0,0.0,0.0,0.0,0.0,0.0,0.0,0.0,0.0,0.0,0.0,0.0,0.0,0.0,0.0,0.0,0.0,0.0,0.0,0.0,0.0,0.0,0.0,0.0,0.0,0.0,0.0,0.0,0.0,0.0,0.0,0.0,0.0,0.0,0.0,0.0,0.0,0.0,0.0,0.0,0.0,0.0,0.0,0.0,0.0,0.0,0.0,0.0,0.0,0.0,0.0,0.0,0.0,0.0,0.0,0.0,0.0,0.0,0.0,0.0,0.0,0.0,0.0,0.0,0.0,0.0,0.0,0.0,0.0,0.0,0.0,0.0,0.0,0.0,0.0,0.0,0.0,0.0,0.0,0.0,0.0,0.0,0.0,0.0,0.0,0.0,0.0,0.0,0.0,0.0,0.0,0.0,0.0,0.0,0.0,0.0,0.0,0.0,0.0,0.0,0.0,0.0,0.0,0.0,0.0,0.0,0.0,0.0,0.0,0.0,0.0,0.0,0.0,0.0,0.0,0.0,0.0,0.0,0.0,0.0,0.0,0.0,0.0,0.0,0.0,0.0,0.0,0.0,0.0,0.0,0.0,0.0,0.0,0.0,0.0,0.0,0.0,0.0,0.0,0.0,0.0,0.0,0.0,0.0,0.0,0.0,0.0,0.0,0.0,0.0,0.0,0.0,0.0,0.0,0.0,0.0,0.0,0.0,0.0,0.0,0.0,0.0,0.0,0.0,0.0,0.0,0.0,0.0,0.0,0.0,0.0,0.0,0.0,0.0,0.0,0.0,0.0,0.0,0.0,0.0,0.0,0.0,0.0,0.0,0.0,0.0,0.0,0.0,0.0,0.0,0.0,0.0,0.0,0.0,0.0,0.0,0.0,0.0,0.0,0.0,0.0,0.0,0.0,0.0,0.0,0.0,0.0,0.0,0.0,0.0,0.0,0.0,0.0,0.0,0.0,0.0,0.0,0.0,0.0,0.0,0.0,0.0,0.0,0.0,0.0,0.0,0.0,0.0,0.0,0.0,0.0,0.0,0.0,0.0,0.0,0.0,0.0,0.0,0.0,0.0,0.0,0.0,0.0,0.0,0.0,0.0,0.0,0.0,0.0,0.0,0.0,0.0,0.0,0.0,0.0,0.0,0.0,0.0,0.0,0.0,0.0,0.0,0.0,0.0,0.0,0.0,0.0,0.0,0.0,0.0,0.0,0.0,0.0,0.0,0.0,0.0,0.0,0.0,0.0,0.0,0.0,0.0,0.0,0.0,0.0,0.0,0.0,0.0,0.0,0.0,0.0,0.0,0.0,0.0,0.0,0.0,0.0,0.0,0.0,0.0,0.0,0.0,0.0,0.0,0.0,0.0,0.0,0.0,0.0,0.0,0.0,0.0,0.0,0.0,0.0,0.0,0.0,0.0,0.0,0.0,0.0,0.0,0.0,0.0,0.0,0.0,0.0,0.0,0.0,0.0,0.0,0.0,0.0,0.0,0.0,0.0,0.0,0.0,0.0,0.0,0.0,0.0,0.0,0.0,0.0,0.0,0.0,0.0,0.0,0.0,0.0,0.0,0.0,0.0,0.0,0.0,0.0,0.0,0.0,0.0,0.0,0.0,0.0,0.0,0.0,0.0,0.0,0.0,0.0,0.0,0.0,0.0,0.0,0.0,0.0,0.0,0.0,0.0,0.0,0.0,0.0,0.0,0.0,0.0,0.0,0.0,0.0,0.0,0.0,0.0,0.0,0.0,0.0,0.0,0.0,0.0,0.0,0.0,0.0,0.0,0.0,0.0,0.0,0.0,0.0,0.0,0.0,0.0,0.0,0.0,0.0,0.0,0.0,0.0,0.0,0.0,0.0,0.0,0.0,0.0,0.0,0.0,0.0,0.0,0.0,0.0,0.0,0.0,0.0,0.0,0.0,0.0,0.0,0.0,0.0,0.0,0.0,0.0,0.0,0.0,0.0,0.0,0.0,0.0,0.0,0.0,0.0,0.0,0.0,0.0,0.0,0.0,0.0,0.0,0.0,0.0,0.0,0.0,0.0,0.0,0.0,0.0,0.0,0.0,0.0,0.0,0.0,0.0,0.0,0.0,0.0,0.0,0.0,0.0,0.0,0.0,0.0,0.0,0.0,0.0,0.0,0.0,0.0,0.0,0.0,0.0,0.0,0.0,0.0,0.0,0.0,0.0,0.0,0.0,0.0,0.0,0.0,0.0,0.0,0.0,0.0,0.0,0.0,0.0,0.0,0.0,0.0,0.0,0.0,0.0,0.0,0.0,0.0,0.0,0.0,0.0,0.0,0.0,0.0,0.0,0.0,0.0,0.0,0.0,0.0,0.0,0.0,0.0,0.0,0.0,0.0,0.0,0.0,0.0,0.0,0.0,0.0,0.0,0.0,0.0,0.0,0.0,0.0,0.0,0.0,0.0,0.0,0.0,0.0,0.0,0.0,0.0,0.0,0.0,0.0,0.0,0.0,0.0,0.0,0.0,0.0,0.0,0.0,0.0,0.0,0.0,0.0,0.0,0.0,0.0,0.0,0.0,0.0,0.0,0.0,0.0,0.0,0.0,0.0,0.0,0.0,0.0,0.0,0.0,0.0,0.0,0.0,0.0,0.0,0.0,0.0,0.0,0.0,0.0,0.0,0.0,0.0,0.0,0.0,0.0,0.0,0.0,0.0,0.0,0.0,0.0,0.0,0.0,0.0,0.0,0.0,0.0,0.0,0.0,0.0,0.0,0.0,0.0,0.0,0.0,0.0,0.0,0.0,0.0,0.0,0.0,0.0,0.0,0.0,0.0,0.0,0.0,0.0,0.0,0.0,0.0,0.0,0.0,0.0,0.0,0.0,0.0,0.0,0.0,0.0,0.0,0.0,0.0,0.0,0.0,0.0,0.0,0.0,0.0,0.0,0.0,0.0,0.0,0.0,0.0,0.0,0.0,0.0,0.0,0.0,0.0,0.0,0.0,0.0,0.0,0.0,0.0,0.0,0.0,0.0,0.0,0.0,0.0,0.0,0.0,0.0,0.0,0.0,0.0,0.0,0.0,0.0,0.0,0.0,0.0,0.0,0.0,0.0,0.0,0.0,0.0,0.0,0.0,0.0,0.0,0.0,0.0,0.0,0.0,0.0,0.0,0.0,0.0,0.0,0.0,0.0,0.0,0.0,0.0,0.0,0.0,0.0,0.0,0.0,0.0,0.0,0.0,0.0,0.0,0.0,0.0,0.0,0.0,0.0,0.0,0.0,0.0,0.0,0.0,0.0,0.0,0.0,0.0,1.8984,1.8553,0.0,0.0,0.0,0.0,0.0,0.0,0.0,0.0,0.0,0.0,0.0,0.0,0.0,0.0,0.0,0.0,0.0,0.0,0.0,0.0,0.0,0.0,0.0,0.0,0.0,0.0,0.0,0.0,0.0,0.0,0.0,0.0,0.0,0.0,0.0,0.0,0.0,0.0,0.0,0.0,0.0,0.0,0.0,0.0,0.0,0.0,0.0,0.0,0.0,0.0,0.0,0.0,0.0,0.0,0.0,0.0,0.0,0.0,0.0,0.0,0.0,0.0,0.0,0.0,0.0,0.0,0.0,0.0,0.0,0.0,0.0,0.0,0.0,0.0,0.0,0.0,0.0,0.0,0.0,0.0,0.0,0.0,0.0,0.0,0.0,0.0,0.0,0.0,0.0,0.0,0.0,0.0,0.0,0.0,0.0,0.0,0.0,0.0,0.0,0.0,0.0,0.0,0.0,0.0,0.0,0.0,0.0,0.0,0.0,0.0,0.0,0.0,0.0,0.0,1.9819,1.9087,0.0,0.0,0.0,0.0,0.0,0.0,0.0,0.0,0.0,0.0,0.0,0.0,0.0,0.0,0.0,0.0,0.0,0.0,0.0,0.0,0.0,0.0,0.0,0.0,0.0,0.0,0.0,0.0,0.0,0.0,0.0,0.0,0.0,0.0,0.0,0.0,0.0,0.0,0.0,0.0,0.0,0.0,0.0,0.0,0.0,0.0,0.0,0.0,0.0,0.0,0.0,0.0,0.0,0.0,0.0,0.0,0.0,0.0,0.0,0.0,0.0,0.0,0.0,0.0,0.0,0.0,0.0,0.0,0.0,0.0,0.0,0.0,0.0,0.0,0.0,0.0,0.0,0.0,0.0,0.0,0.0,0.0,0.0,0.0,0.0,0.0,0.0,0.0,0.0,0.0,0.0,0.0,0.0,0.0,0.0,0.0,0.0,0.0,0.0,0.0,0.0,0.0,0.0,0.0,0.0,0.0,0.0,0.0,2.2609,2.2785,2.2823,2.2885,2.2912,2.2815,2.0852,1.9912,1.9726,1.9487,0.0,0.0,0.0,0.0,0.0,0.0,0.0,0.0,0.0,0.0,0.0,0.0,0.0,0.0,0.0,0.0,0.0,0.0,0.0,0.0,0.0,0.0,0.0,0.0,0.0,0.0,0.0,0.0,0.0,0.0,0.0,0.0,0.0,0.0,0.0,0.0,0.0,0.0,0.0,0.0,0.0,0.0,0.0,0.0,0.0,0.0,0.0,0.0,0.0,0.0,0.0,0.0,0.0,0.0,0.0,0.0,0.0,0.0,0.0,0.0,0.0,0.0,0.0,0.0,0.0,0.0,0.0,0.0,0.0,0.0,0.0,0.0,0.0,0.0,0.0,0.0,0.0,0.0,0.0,0.0,0.0,0.0,0.0,0.0,0.0,0.0,2.3473,2.344,0.0,0.0,0.0,0.0,0.0,0.0,0.0,0.0,0.0,0.0,0.0,0.0,0.0,2.2255,2.2403,2.3018,2.3448,2.3658,2.4272,2.4653,2.4792,2.4353,2.417,2.409,2.2628,0.0,2.1077,2.0352,0.0,0.0,0.0,0.0,0.0,0.0,0.0,0.0,0.0,0.0,0.0,0.0,0.0,0.0,0.0,0.0,0.0,0.0,0.0,0.0,0.0,0.0,0.0,0.0,0.0,0.0,0.0,0.0,0.0,0.0,0.0,0.0,0.0,0.0,0.0,0.0,0.0,0.0,0.0,0.0,0.0,0.0,0.0,0.0,0.0,0.0,0.0,0.0,0.0,0.0,0.0,0.0,0.0,0.0,0.0,0.0,0.0,0.0,0.0,0.0,0.0,0.0,0.0,0.0,0.0,0.0,0.0,0.0,0.0,0.0,0.0,0.0,0.0,0.0,0.0,0.0,0.0,0.0,0.0,0.0,0.0,0.0,0.0,0.0,0.0,2.4024,2.4129,2.4098,2.3885,2.3702,0.0,0.0,0.0,0.0,0.0,0.0,0.0,0.0,0.0,2.3305,2.3721,2.4021,2.4241,2.4566,2.4804,2.5042,2.541,2.5615,2.5707,2.5576,2.5516,2.545,2.4034,2.3244,2.2848,2.1372,2.0697,2.0581,0.0,0.0,0.0,0.0,2.0396,2.0516,0.0,0.0,0.0,0.0,0.0,0.0,0.0,0.0,0.0,0.0,0.0,0.0,0.0,0.0,0.0,2.5705,0.0,0.0,0.0,0.0,0.0,0.0,0.0,0.0,0.0,0.0,0.0,0.0,0.0,0.0,0.0,0.0,0.0,0.0,0.0,0.0,0.0,0.0,0.0,0.0,0.0,0.0,0.0,0.0,0.0,0.0,0.0,0.0,0.0,0.0,0.0,0.0,0.0,0.0,0.0,0.0,0.0,0.0,0.0,0.0,0.0,0.0,0.0,0.0,0.0,0.0,0.0,0.0,0.0,0.0,0.0,0.0,0.0,0.0,0.0,0.0,0.0,2.5024,2.5148,2.5289,2.5144,2.508,0.0,0.0,0.0,0.0,0.0,0.0,2.3983,2.4432,2.4689,2.4742,2.5222,2.5591,2.5793,2.583,2.5921,2.6117,2.6227,2.6315,2.6367,2.6522,2.6522,2.6286,2.5018,2.4342,2.3993,2.2141,2.1323,2.1213,2.1166,2.1103,2.1055,2.1071,2.1166,2.126,0.0,0.0,0.0,0.0,0.0,0.0,0.0,0.0,0.0,0.0,0.0,0.0,0.0,0.0,2.569,2.5699,2.57,2.57,0.0,0.0,0.0,0.0,0.0,0.0,0.0,0.0,0.0,0.0,0.0,0.0,0.0,0.0,0.0,0.0,0.0,0.0,0.0,0.0,0.0,0.0,0.0,0.0,0.0,0.0,0.0,0.0,0.0,0.0,0.0,0.0,0.0,0.0,0.0,0.0,0.0,0.0,0.0,0.0,0.0,0.0,0.0,0.0,0.0,0.0,0.0,0.0,0.0,0.0,0.0,0.0,0.0,0.0,0.0,0.0,0.0,0.0,0.0,0.0,0.0,2.8012,2.7913,0.0,0.0,0.0,0.0,2.7389,2.663,2.6144,2.6144,2.6055,2.6054,2.6193,2.6243,2.6279,2.6366,2.6419,2.6522,2.6657,2.6724,2.6857,2.7053,2.7133,2.68,2.6169,2.5458,2.4722,2.3894,2.2461,2.1853,2.1838,2.1781,2.1751,2.1751,2.1825,2.1882,2.1953,0.0,0.0,0.0,0.0,0.0,0.0,0.0,0.0,0.0,0.0,0.0,0.0,0.0,2.5696,2.5698,2.5702,2.5702,2.5702,2.5703,0.0,0.0,0.0,0.0,0.0,0.0,0.0,0.0,0.0,0.0,0.0,0.0,0.0,0.0,0.0,0.0,0.0,0.0,0.0,0.0,0.0,0.0,0.0,0.0,0.0,0.0,0.0,0.0,0.0,0.0,0.0,0.0,0.0,0.0,0.0,0.0,0.0,0.0,0.0,0.0,0.0,0.0,0.0,0.0,0.0,0.0,0.0,0.0,0.0,0.0,0.0,0.0,0.0,0.0,0.0,0.0,0.0,0.0,0.0,0.0,2.9237,2.9275,0.0,2.9505,2.9196,2.8939,2.8836,2.8493,2.8049,2.7487,2.7419,2.7216,2.6825,2.6808,2.6857,2.6987,2.7002,2.7098,2.7274,2.7352,2.7167,2.6787,2.69,2.6521,2.578,2.5094,2.465,2.4307,2.328,2.2717,2.2463,2.2399,2.2381,2.2381,2.2445,2.2512,2.2591,0.0,0.0,0.0,0.0,0.0,0.0,0.0,0.0,0.0,0.0,0.0,2.5696,2.57,2.5701,2.5702,2.5703,2.5703,2.5703,2.5703,0.0,0.0,0.0,0.0,0.0,0.0,0.0,0.0,0.0,0.0,0.0,0.0,0.0,0.0,0.0,0.0,0.0,0.0,0.0,0.0,0.0,0.0,0.0,2.4111,0.0,0.0,0.0,0.0,0.0,0.0,0.0,0.0,0.0,0.0,0.0,0.0,0.0,0.0,0.0,0.0,0.0,0.0,0.0,0.0,0.0,0.0,0.0,0.0,0.0,0.0,0.0,0.0,0.0,0.0,0.0,0.0,0.0,0.0,0.0,2.973,3.0427,3.0483,3.0557,3.0754,3.048,3.0257,3.0174,2.988,2.9327,2.8481,2.843,2.8116,2.7384,2.7367,2.7411,2.7547,2.7577,2.7683,2.7815,2.7635,2.7297,2.6868,2.6688,2.6167,2.5452,2.5003,2.4653,2.4388,2.3858,2.3488,2.3254,2.3051,2.2984,2.3009,2.3081,2.3129,2.3177,0.0,0.0,0.0,0.0,0.0,0.0,0.0,0.0,0.0,0.0,2.57,2.5701,2.5702,2.5702,2.5703,2.5703,2.5703,2.5703,2.5703,2.5703,0.0,0.0,0.0,0.0,0.0,0.0,0.0,0.0,0.0,0.0,0.0,0.0,0.0,0.0,0.0,0.0,0.0,0.0,0.0,0.0,0.0,0.0,2.5034,0.0,0.0,0.0,0.0,0.0,0.0,0.0,0.0,0.0,0.0,0.0,0.0,0.0,0.0,0.0,0.0,0.0,0.0,0.0,0.0,0.0,0.0,0.0,0.0,0.0,0.0,0.0,0.0,0.0,0.0,0.0,0.0,0.0,2.9511,3.0159,3.0913,3.1666,3.1696,3.1936,3.2647,3.203,3.1572,3.1538,3.0827,3.0029,2.9198,2.9145,2.8773,2.7943,2.7926,2.7954,2.8024,2.8156,2.8242,2.8273,2.7569,2.7259,2.732,2.6528,2.5801,2.5181,2.5181,2.4782,2.4126,2.4126,2.4154,2.4164,2.3706,2.3566,2.3631,2.3703,2.3724,2.3746,0.0,0.0,0.0,0.0,0.0,0.0,0.0,0.0,0.0,0.0,2.5702,2.5702,2.5703,2.5703,2.5703,2.5703,2.5703,2.5703,2.5703,0.0,0.0,0.0,0.0,0.0,0.0,0.0,0.0,0.0,0.0,0.0,0.0,0.0,0.0,0.0,0.0,0.0,0.0,0.0,0.0,0.0,0.0,0.0,2.6143,0.0,0.0,0.0,0.0,0.0,0.0,0.0,0.0,0.0,0.0,0.0,0.0,0.0,0.0,0.0,0.0,0.0,0.0,0.0,0.0,0.0,0.0,0.0,0.0,0.0,0.0,0.0,0.0,0.0,0.0,0.0,0.0,3.1647,3.1458,3.1614,3.2047,3.2841,3.2919,3.2976,3.3193,3.2997,3.2841,3.2729,3.2532,3.181,3.0413,3.0323,2.9755,2.8523,2.8487,2.8507,2.857,2.8663,2.8421,2.7856,2.77,2.7075,2.6013,2.5832,2.5365,2.4698,2.4741,2.4645,2.4476,2.451,2.4575,2.4596,2.4238,2.4088,2.4118,2.4183,2.4247,2.4291,0.0,0.0,0.0,0.0,0.0,0.0,0.0,0.0,0.0,0.0,2.5703,2.5703,2.5703,2.5703,2.5703,2.5703,2.5702,2.5702,2.5702,0.0,0.0,0.0,0.0,0.0,0.0,0.0,0.0,0.0,0.0,0.0,0.0,0.0,0.0,0.0,0.0,0.0,0.0,0.0,0.0,0.0,0.0,0.0,2.7249,2.7067,2.71,2.726,2.7176,2.7015,2.6787,2.6404,0.0,0.0,0.0,0.0,0.0,0.0,0.0,0.0,0.0,0.0,0.0,0.0,0.0,0.0,0.0,0.0,0.0,0.0,0.0,0.0,0.0,0.0,0.0,0.0,3.2029,3.2752,3.3036,3.2971,3.3104,3.3588,3.3643,3.3643,3.3643,3.3643,3.3629,3.3536,3.3213,3.2484,3.1203,3.0789,3.0075,2.894,2.8915,2.8785,2.8515,2.857,2.8189,2.7389,2.7127,2.6554,2.5712,2.5427,2.5099,2.4719,2.4753,2.4771,2.4811,2.4847,2.4915,2.4929,0.0,0.0,0.0,0.0,2.4652,2.4726,0.0,0.0,0.0,0.0,0.0,0.0,0.0,0.0,0.0,0.0,0.0,2.5703,2.5703,2.5703,2.5702,2.5702,2.57,2.5699,0.0,0.0,0.0,0.0,0.0,0.0,0.0,0.0,0.0,0.0,0.0,0.0,0.0,0.0,0.0,0.0,0.0,0.0,0.0,0.0,0.0,0.0,0.0,0.0,2.8351,2.8096,2.8397,2.8922,2.8725,2.8582,2.835,2.7561,0.0,0.0,0.0,0.0,0.0,0.0,0.0,0.0,0.0,0.0,0.0,0.0,0.0,0.0,0.0,0.0,0.0,0.0,0.0,0.0,0.0,0.0,0.0,0.0,3.3034,3.3396,3.4246,3.4161,3.4005,3.4049,3.4049,3.4049,3.4049,3.4049,3.4049,3.4049,3.3284,3.249,3.1693,3.0831,0.0,0.0,0.0,2.8831,2.8155,2.8129,2.7708,2.6892,2.6261,2.5936,2.5887,2.5234,2.4973,2.5032,2.5031,2.5062,2.513,2.5138,2.5168,2.5214,2.4955,2.4889,2.4942,2.4956,2.4992,2.5052,0.0,0.0,0.0,0.0,0.0,0.0,0.0,0.0,0.0,2.5703,2.5703,2.5703,2.5703,2.5702,2.57,2.57,2.5695,2.5707,0.0,0.0,0.0,0.0,0.0,0.0,0.0,0.0,0.0,0.0,0.0,0.0,0.0,0.0,0.0,0.0,0.0,0.0,0.0,0.0,0.0,0.0,0.0,0.0,2.9391,2.9288,2.9233,2.9198,2.9115,2.8991,2.8845,2.8561,2.8439,2.8328,2.8052,0.0,0.0,0.0,0.0,0.0,0.0,0.0,0.0,0.0,0.0,0.0,0.0,0.0,0.0,0.0,0.0,0.0,0.0,0.0,0.0,3.3167,3.3872,3.4435,3.4668,3.466,3.4556,3.4351,3.4316,3.4316,3.4316,3.4316,3.4316,3.4316,3.3541,3.2735,3.204,3.1179,3.0395,2.9701,2.9051,2.8654,2.8502,2.7859,2.7157,2.6361,2.6265,0.0,2.5344,2.5203,2.5185,2.5238,2.5231,2.5255,2.5264,2.5312,2.5379,2.5421,2.526,2.5201,2.5235,2.5279,2.5302,2.5315,0.0,0.0,0.0,0.0,0.0,0.0,0.0,0.0,0.0,0.0,2.5703,2.5702,2.5702,2.5699,2.5696,2.5695,2.5706,0.0,0.0,0.0,0.0,0.0,0.0,0.0,0.0,0.0,0.0,0.0,0.0,0.0,0.0,0.0,0.0,0.0,0.0,0.0,0.0,0.0,0.0,0.0,0.0,0.0,3.0038,2.9832,2.9645,2.9494,2.9424,2.9291,2.9141,2.9075,2.8966,2.8885,2.8827,2.8512,2.811,0.0,0.0,0.0,0.0,0.0,0.0,0.0,0.0,0.0,0.0,0.0,0.0,0.0,0.0,3.1679,0.0,0.0,3.3588,3.4023,3.4517,3.4869,3.4946,3.4955,3.4889,3.468,3.4649,3.4649,3.4649,3.468,3.4521,3.4067,3.3269,3.2477,3.173,3.0906,3.0116,2.9364,2.8958,2.8367,2.7558,2.7154,2.656,2.5751,2.5822,2.5673,2.5352,2.5352,2.5374,2.5395,2.5439,2.5457,2.5441,2.5482,2.5513,2.5546,2.5508,2.5485,2.5446,2.5493,2.5508,2.5446,0.0,0.0,0.0,0.0,0.0,0.0,0.0,0.0,0.0,0.0,0.0,2.5701,2.5699,2.5695,2.5708,0.0,0.0,0.0,0.0,0.0,0.0,0.0,0.0,0.0,0.0,0.0,0.0,0.0,0.0,0.0,0.0,0.0,0.0,0.0,0.0,0.0,0.0,0.0,0.0,0.0,0.0,0.0,3.0408,3.0114,2.9918,2.9769,2.9689,2.9542,2.9415,2.9375,2.9285,2.9201,2.9181,2.9178,2.9038,2.833,2.8025,0.0,0.0,0.0,0.0,0.0,0.0,0.0,0.0,0.0,3.0988,3.1365,3.2015,3.2798,3.3724,3.3894,3.414,3.485,3.501,3.5082,3.5117,3.5157,3.513,3.5018,3.4973,3.4973,3.4982,3.4858,3.4514,3.3811,3.2852,3.2027,3.1398,3.0424,2.9606,2.8977,2.8644,2.7842,2.6544,2.6376,2.5995,2.5364,2.5418,2.5478,2.5531,2.5514,2.551,2.5515,2.5585,2.5621,2.5611,2.5618,2.561,2.5616,2.5663,2.5655,2.5598,2.5614,2.5504,2.5262,0.0,0.0,0.0,0.0,0.0,0.0,0.0,0.0,0.0,0.0,0.0,0.0,0.0,0.0,0.0,0.0,0.0,0.0,0.0,0.0,0.0,0.0,0.0,0.0,0.0,0.0,0.0,0.0,0.0,0.0,0.0,0.0,0.0,0.0,0.0,0.0,0.0,0.0,0.0,0.0,0.0,0.0,3.0568,3.0476,3.0285,3.0044,2.991,2.9855,2.9813,2.9626,2.9561,2.9542,2.9464,2.9453,2.9434,2.9341,0.0,2.8222,2.8138,2.8147,2.8408,2.9242,2.9513,2.9838,0.0,0.0,3.1583,3.3076,3.3562,3.3963,3.4793,3.4971,3.5062,3.5157,3.5223,3.5278,3.5285,3.5333,3.5364,3.535,3.5235,3.5193,3.5253,3.4565,3.4075,3.3979,3.2502,3.1597,3.1565,3.0079,2.9195,2.9177,2.772,2.6867,2.6676,2.5966,2.5602,2.5571,2.5573,2.5574,2.5584,2.5595,2.5585,2.5594,2.5651,2.5681,2.5683,2.5683,2.5641,2.5596,2.5605,2.5604,2.5612,2.5664,2.5195,2.4512,0.0,0.0,0.0,0.0,0.0,0.0,0.0,0.0,0.0,0.0,0.0,0.0,0.0,0.0,0.0,0.0,0.0,0.0,0.0,0.0,0.0,0.0,0.0,0.0,0.0,0.0,0.0,0.0,0.0,0.0,0.0,0.0,0.0,0.0,0.0,0.0,0.0,0.0,0.0,0.0,0.0,0.0,3.0662,3.063,3.0525,3.0365,3.0195,3.0082,0.0,0.0,2.9872,2.9822,2.9753,2.9736,2.9728,2.9701,2.9447,0.0,2.9217,2.9284,2.9415,0.0,3.0316,3.0847,3.1241,3.2111,3.3039,3.3777,3.4381,3.4883,3.5212,3.5311,3.5319,0.0,3.5364,3.5431,3.5431,3.547,3.5519,3.5575,3.5084,3.4706,3.4658,3.4359,3.3782,3.2786,3.2075,3.1263,3.0308,2.964,2.8814,2.7834,2.7152,2.6578,2.6054,2.5732,2.5582,2.5663,2.5654,2.5665,2.5655,2.5661,2.5644,2.5604,2.564,2.5647,2.5642,2.5642,2.5591,2.5548,2.5547,2.5228,2.4793,2.4851,2.4646,2.4208,0.0,0.0,0.0,0.0,0.0,0.0,0.0,0.0,0.0,0.0,0.0,0.0,0.0,0.0,0.0,0.0,0.0,0.0,0.0,0.0,0.0,0.0,0.0,0.0,0.0,0.0,0.0,0.0,0.0,0.0,0.0,0.0,0.0,0.0,0.0,0.0,0.0,0.0,0.0,0.0,0.0,0.0,3.0726,3.0725,3.0681,3.0603,3.0414,3.0292,0.0,0.0,3.0138,3.006,3.0034,3.0003,2.9999,2.9948,2.9932,2.9948,3.0003,0.0,0.0,3.0173,3.0851,3.1555,3.1853,3.3037,3.4164,3.4462,3.5027,3.5457,3.547,3.5457,3.5457,3.5457,3.5507,3.5568,3.5568,3.5618,3.5664,3.5708,3.4976,3.4313,3.3977,3.3764,3.3146,3.1951,3.1622,3.0863,2.9431,2.9162,2.8382,2.688,2.6652,2.6261,2.563,2.5626,2.5654,2.57,2.5683,2.5663,2.568,2.5672,2.5637,2.5568,2.5564,2.5559,2.5532,2.5526,2.535,2.5108,2.5069,2.4532,2.3753,2.357,2.3514,2.3378,0.0,0.0,0.0,0.0,0.0,0.0,0.0,0.0,0.0,0.0,0.0,0.0,0.0,0.0,0.0,0.0,0.0,0.0,0.0,0.0,0.0,0.0,0.0,0.0,0.0,0.0,0.0,0.0,0.0,0.0,0.0,0.0,0.0,0.0,0.0,0.0,0.0,0.0,0.0,0.0,0.0,0.0,3.0809,3.0808,3.0755,3.0685,3.0546,0.0,0.0,0.0,3.0361,3.0292,3.0292,3.0279,0.0,3.0299,3.0279,0.0,0.0,0.0,3.0304,3.0373,3.1049,3.1917,3.2769,3.3647,3.4533,3.5388,3.5579,3.5582,3.5582,3.5582,3.5582,3.5582,3.5649,3.5684,3.5684,3.5745,3.5783,3.5807,3.5083,3.4267,0.0,3.2509,3.1972,3.1994,3.1207,3.0373,2.9533,2.8684,2.7822,2.6932,2.6144,2.572,2.5703,2.5702,2.5698,2.5709,2.564,2.5609,2.5597,2.5609,2.5578,2.5504,2.5496,2.5478,2.5395,2.5335,2.4851,2.4139,2.3991,2.3448,2.2646,2.179,2.1569,2.167,0.0,0.0,0.0,0.0,0.0,0.0,0.0,0.0,0.0,0.0,0.0,0.0,0.0,0.0,0.0,0.0,0.0,0.0,0.0,0.0,0.0,0.0,0.0,0.0,0.0,0.0,0.0,0.0,0.0,0.0,0.0,0.0,0.0,0.0,0.0,0.0,0.0,0.0,0.0,0.0,0.0,0.0,3.0797,3.0809,3.0789,3.0754,0.0,0.0,0.0,0.0,0.0,0.0,2.9561,0.0,0.0,3.0263,0.0,0.0,0.0,0.0,3.0506,3.053,3.1197,3.2063,3.2924,3.3805,3.4686,3.5558,3.5722,3.5732,3.5732,3.5732,3.5732,3.5732,3.5752,3.5764,3.5764,3.5824,3.5644,3.5073,3.4294,0.0,0.0,0.0,0.0,3.1256,3.0409,2.9545,2.8741,2.7885,2.699,2.6133,2.5838,2.5677,2.563,2.5637,2.5621,2.5623,2.5564,2.5507,2.5476,2.5417,2.5395,2.5365,2.5321,2.5255,2.5147,2.456,2.4121,2.379,2.3212,2.2429,2.1597,2.1256,2.0795,2.0359,0.0,0.0,0.0,0.0,0.0,0.0,0.0,0.0,0.0,0.0,0.0,0.0,0.0,0.0,0.0,0.0,0.0,0.0,0.0,0.0,0.0,0.0,0.0,0.0,0.0,0.0,0.0,0.0,0.0,0.0,0.0,0.0,0.0,0.0,0.0,0.0,0.0,0.0,0.0,0.0,0.0,0.0,3.08,3.0801,3.0795,0.0,0.0,0.0,0.0,0.0,0.0,0.0,0.0,0.0,0.0,0.0,0.0,0.0,0.0,3.0603,3.0633,3.0641,3.1281,3.2101,3.2667,3.3467,3.4322,3.5192,3.5371,3.5468,3.5783,3.5841,3.5841,3.5841,3.5833,3.5839,3.5839,3.5639,3.5252,3.4695,3.3635,3.2727,0.0,0.0,0.0,3.0832,2.9995,2.914,2.8319,2.7437,2.6553,2.568,2.5645,2.5613,2.5563,2.5547,2.5529,2.5486,2.5456,2.5382,2.5326,2.525,2.522,2.5195,2.5121,2.5043,2.493,2.4056,2.3474,2.3082,2.223,2.1337,2.0521,2.0456,2.0072,1.9623,0.0,0.0,0.0,0.0,0.0,0.0,0.0,0.0,0.0,0.0,0.0,0.0,0.0,0.0,0.0,0.0,0.0,0.0,0.0,0.0,0.0,0.0,2.5407,2.5361,0.0,0.0,0.0,0.0,0.0,0.0,0.0,0.0,0.0,0.0,0.0,0.0,0.0,0.0,0.0,0.0,0.0,0.0,3.0809,3.0795,0.0,0.0,0.0,0.0,0.0,0.0,0.0,0.0,0.0,0.0,0.0,0.0,0.0,3.0709,3.0709,3.0709,3.0712,3.0708,3.1332,3.1974,3.2087,3.2694,3.349,3.4366,3.4542,3.4795,0.0,0.0,3.5836,3.5836,3.5875,3.591,3.591,3.521,3.4677,0.0,0.0,0.0,0.0,0.0,0.0,3.0722,2.9915,2.9047,2.8186,2.7301,2.6459,2.5613,2.5526,2.5495,2.5492,2.5421,2.5352,2.5298,2.5274,2.5252,2.5181,2.5109,2.5031,2.4981,2.4915,2.4847,2.47,2.3794,2.2935,2.2083,2.1097,2.021,1.9465,1.9416,1.9376,1.9413,0.0,0.0,0.0,0.0,0.0,0.0,0.0,0.0,0.0,0.0,0.0,0.0,0.0,0.0,0.0,0.0,0.0,0.0,0.0,0.0,0.0,0.0,0.0,0.0,0.0,0.0,0.0,0.0,0.0,0.0,0.0,0.0,0.0,0.0,0.0,0.0,0.0,0.0,0.0,0.0,0.0,0.0,3.0799,0.0,0.0,0.0,0.0,0.0,0.0,0.0,0.0,0.0,0.0,0.0,3.0765,0.0,0.0,3.0776,3.0762,3.0764,3.0764,3.0767,3.0942,3.1274,3.1959,3.2266,3.2652,3.3528,3.3717,3.3774,0.0,0.0,0.0,3.5002,3.5545,0.0,3.5964,3.5233,0.0,3.3808,0.0,3.1831,3.1193,3.0893,0.0,0.0,2.9002,2.8147,2.7283,2.6362,2.5721,2.5453,2.5432,2.5391,2.5344,2.523,2.5163,2.5154,2.5056,2.4994,2.4968,2.4865,2.4794,2.4772,2.4647,2.4567,2.4387,2.2904,2.211,2.1691,2.0239,1.9488,1.9201,1.9174,1.9135,1.9102,0.0,0.0,0.0,0.0,0.0,0.0,0.0,0.0,0.0,0.0,0.0,0.0,0.0,0.0,0.0,0.0,0.0,0.0,0.0,0.0,0.0,0.0,0.0,0.0,0.0,0.0,0.0,0.0,0.0,0.0,0.0,0.0,0.0,0.0,0.0,0.0,0.0,0.0,0.0,0.0,0.0,0.0,0.0,0.0,0.0,0.0,0.0,0.0,0.0,0.0,0.0,2.9614,2.9965,3.0417,3.0792,3.0794,0.0,3.0797,3.0797,3.0797,3.0797,3.0795,3.0795,3.0931,3.1455,3.157,3.1803,3.2658,3.283,0.0,0.0,0.0,0.0,0.0,0.0,0.0,3.4863,3.4117,3.3383,0.0,3.2026,0.0,3.08,3.0704,3.0139,0.0,2.8388,2.7759,2.6864,2.5957,2.5426,2.5352,2.5335,2.5274,2.5179,2.5049,2.5006,2.4974,2.4861,2.4808,2.4753,2.4623,2.4553,2.4522,2.4373,2.4284,2.4128,2.2803,2.198,2.1434,2.0142,1.9392,1.9018,1.8949,1.8887,1.8816,0.0,0.0,0.0,0.0,0.0,0.0,0.0,0.0,0.0,0.0,0.0,0.0,0.0,0.0,0.0,0.0,0.0,0.0,0.0,0.0,0.0,0.0,0.0,0.0,0.0,0.0,0.0,0.0,0.0,0.0,0.0,0.0,0.0,0.0,0.0,0.0,0.0,0.0,0.0,0.0,0.0,0.0,0.0,0.0,0.0,0.0,0.0,0.0,0.0,0.0,3.0344,2.9883,3.0586,3.08,3.0798,3.0798,3.0796,3.0795,3.0797,3.0798,3.0798,3.08,3.08,3.082,3.0879,3.0898,3.1092,3.1794,0.0,3.2164,3.2926,3.3162,3.3222,3.3222,0.0,3.3392,3.3392,3.2631,3.2097,3.2084,3.1265,3.0675,3.0676,3.0517,2.9739,2.8104,2.7903,2.7485,2.6562,2.5777,2.5332,2.5248,2.5176,2.5086,2.4961,2.4895,2.4818,2.4749,2.4673,2.4613,2.4539,2.4408,2.433,2.4247,2.4107,2.4009,2.3901,2.3031,2.2208,2.1398,2.0439,1.9621,1.8967,1.8723,1.8604,1.8565,0.0,0.0,0.0,0.0,0.0,0.0,0.0,0.0,0.0,0.0,0.0,0.0,0.0,0.0,0.0,0.0,0.0,0.0,0.0,0.0,0.0,0.0,0.0,0.0,0.0,0.0,0.0,0.0,0.0,0.0,0.0,0.0,0.0,0.0,0.0,0.0,0.0,0.0,0.0,0.0,0.0,0.0,0.0,0.0,0.0,0.0,0.0,0.0,0.0,0.0,3.0711,3.0613,3.0769,3.0805,3.0799,3.0799,3.0794,3.0809,3.0798,3.0799,3.0801,3.0806,3.0791,3.0794,3.0814,3.0857,0.0,0.0,3.1055,3.1094,3.1308,3.1874,3.2322,3.2339,0.0,0.0,0.0,0.0,3.2024,0.0,0.0,0.0,0.0,2.9868,0.0,0.0,2.7135,2.6353,2.5577,2.5294,2.5103,2.4981,2.4902,2.4837,2.4749,2.4692,2.4594,2.4466,2.44,2.4321,2.4266,2.4125,2.4057,2.4046,2.3858,2.3753,2.3682,2.2804,2.2264,2.1832,2.0415,1.9689,1.9386,1.8646,1.8361,1.8341,0.0,0.0,0.0,0.0,0.0,0.0,0.0,0.0,0.0,0.0,0.0,0.0,0.0,0.0,0.0,0.0,0.0,0.0,0.0,0.0,0.0,0.0,0.0,0.0,0.0,0.0,0.0,0.0,0.0,0.0,0.0,0.0,0.0,0.0,0.0,0.0,0.0,0.0,0.0,0.0,0.0,0.0,0.0,0.0,0.0,0.0,0.0,0.0,0.0,0.0,3.0745,3.0741,3.0792,3.081,3.0802,3.0802,3.0774,3.0767,3.08,3.0802,3.0806,3.0799,3.0806,3.0792,3.08,0.0,0.0,0.0,3.0817,3.0817,3.0835,0.0,0.0,0.0,0.0,0.0,0.0,0.0,0.0,0.0,0.0,0.0,0.0,2.9615,2.8712,2.7772,2.6784,2.592,2.5172,2.5013,2.4895,2.4808,2.4727,2.4642,2.4543,2.4488,2.4374,2.4238,2.4173,2.4114,2.4047,2.3915,2.3842,2.3821,2.3598,2.3486,2.3452,2.2963,2.2452,2.1908,2.1096,2.0269,1.9443,1.8949,1.8497,1.8121,0.0,0.0,0.0,0.0,0.0,0.0,0.0,0.0,0.0,0.0,0.0,0.0,0.0,0.0,0.0,0.0,0.0,0.0,0.0,0.0,0.0,0.0,0.0,0.0,0.0,0.0,0.0,0.0,0.0,0.0,0.0,0.0,0.0,0.0,0.0,0.0,0.0,0.0,0.0,0.0,0.0,0.0,0.0,0.0,0.0,0.0,0.0,0.0,0.0,0.0,3.058,3.0428,3.0484,3.062,3.077,3.0787,3.0733,3.0685,3.0761,3.0634,3.0506,3.0509,3.0362,3.0234,3.0235,3.0381,0.0,0.0,3.0668,3.0805,3.0803,0.0,0.0,0.0,0.0,0.0,0.0,0.0,0.0,0.0,0.0,0.0,0.0,2.9315,0.0,2.7585,2.6438,2.5532,2.4946,2.4816,2.4704,2.4621,2.4555,2.4452,2.4329,2.4257,2.4154,2.4009,2.3958,2.3894,2.3803,2.3671,2.3611,2.36,2.3348,2.3229,2.3205,2.3095,2.2646,2.2026,2.1757,2.0887,1.974,1.9469,1.887,1.8166,0.0,0.0,0.0,0.0,0.0,0.0,0.0,0.0,0.0,0.0,0.0,0.0,0.0,0.0,0.0,0.0,0.0,0.0,0.0,0.0,0.0,0.0,0.0,0.0,0.0,0.0,0.0,0.0,0.0,0.0,0.0,0.0,0.0,0.0,0.0,0.0,0.0,0.0,0.0,0.0,0.0,0.0,0.0,0.0,0.0,0.0,0.0,0.0,0.0,0.0,0.0,2.9512,2.9525,3.0069,3.0717,3.0718,0.0,0.0,3.0684,3.012,2.9538,2.9537,2.8979,2.8437,2.8433,0.0,0.0,2.9613,3.0256,3.0799,3.081,3.0795,0.0,0.0,0.0,0.0,0.0,0.0,0.0,0.0,0.0,0.0,0.0,2.867,2.7623,2.7357,2.571,2.4714,2.4629,2.4639,2.453,2.4339,2.4321,2.4238,2.4046,2.4036,2.3925,2.3743,2.3732,2.3656,2.3522,2.3395,2.3336,2.3324,2.3132,2.2977,2.2932,2.2868,2.2699,2.2478,2.1777,2.1327,2.0947,2.0204,1.9415,1.8713,0.0,0.0,0.0,0.0,0.0,0.0,0.0,0.0,0.0,0.0,0.0,0.0,0.0,0.0,0.0,0.0,0.0,0.0,0.0,0.0,0.0,0.0,0.0,0.0,0.0,0.0,0.0,0.0,0.0,0.0,0.0,0.0,0.0,0.0,0.0,0.0,0.0,0.0,0.0,0.0,0.0,0.0,0.0,0.0,0.0,0.0,0.0,0.0,0.0,0.0,0.0,0.0,2.8773,2.8856,0.0,0.0,2.9125,2.9102,2.9133,2.8888,2.863,2.8618,2.8384,2.8146,2.8192,0.0,2.95,2.9503,3.0185,3.0784,3.075,3.0748,3.072,0.0,0.0,0.0,0.0,0.0,0.0,0.0,0.0,0.0,0.0,0.0,2.7614,2.6382,2.5122,2.4366,2.4257,2.4357,2.433,2.4124,2.4124,2.4026,2.381,2.381,2.3732,2.3522,2.3487,2.3418,2.3313,2.318,2.3107,2.3057,2.2893,2.2777,2.2712,2.2646,2.2552,2.244,2.2109,2.162,2.1026,2.0632,1.997,1.9271,0.0,0.0,0.0,0.0,0.0,0.0,0.0,0.0,0.0,0.0,0.0,0.0,0.0,0.0,0.0,0.0,0.0,0.0,0.0,0.0,0.0,0.0,0.0,0.0,0.0,0.0,0.0,0.0,0.0,0.0,0.0,0.0,0.0,0.0,0.0,0.0,0.0,0.0,0.0,0.0,0.0,0.0,0.0,0.0,0.0,0.0,0.0,0.0,0.0,0.0,0.0,0.0,0.0,0.0,0.0,0.0,2.8063,2.8078,2.8078,2.7908,2.7725,2.7715,2.7534,2.7375,0.0,0.0,2.9118,2.9099,2.9975,3.0764,3.0704,3.0674,3.0642,0.0,0.0,3.0525,0.0,0.0,0.0,0.0,0.0,2.9951,0.0,2.8697,2.7289,2.5652,2.4718,2.4134,2.3947,2.4066,2.4066,2.3935,2.3915,2.3821,2.3645,2.36,2.3499,2.3313,2.3241,2.318,2.3107,2.2982,2.2893,2.2842,2.2699,2.2579,2.2515,2.246,2.2391,2.2276,2.2223,2.1785,2.1214,2.1121,2.053,1.9805,0.0,0.0,0.0,0.0,0.0,0.0,0.0,0.0,0.0,0.0,0.0,0.0,0.0,0.0,0.0,0.0,0.0,0.0,0.0,0.0,0.0,0.0,0.0,0.0,0.0,0.0,0.0,0.0,0.0,0.0,0.0,0.0,0.0,0.0,0.0,0.0,0.0,0.0,0.0,0.0,0.0,0.0,0.0,0.0,0.0,0.0,0.0,0.0,0.0,0.0,0.0,0.0,0.0,0.0,0.0,0.0,2.8008,2.7991,2.7991,2.7427,2.6804,2.6804,2.6213,2.5622,0.0,0.0,2.8193,2.8132,2.9492,3.0704,3.0707,3.0641,3.0593,3.0607,0.0,0.0,0.0,0.0,0.0,0.0,0.0,2.9746,2.9617,2.7854,2.6351,2.5462,2.4534,2.3937,2.3806,2.3747,2.3732,2.3804,2.3732,2.3634,2.3505,2.336,2.3241,2.3107,2.3045,2.2982,2.2906,2.2764,2.2699,2.2699,2.2569,2.2419,2.231,2.2296,2.2192,2.1998,2.1926,2.1869,2.1781,2.1723,2.1096,2.0282,0.0,0.0,0.0,0.0,0.0,0.0,0.0,0.0,0.0,0.0,0.0,0.0,0.0,0.0,0.0,0.0,0.0,0.0,0.0,0.0,0.0,0.0,0.0,0.0,0.0,0.0,0.0,0.0,0.0,0.0,0.0,0.0,0.0,0.0,0.0,0.0,0.0,0.0,0.0,0.0,0.0,0.0,0.0,0.0,0.0,0.0,0.0,0.0,0.0,0.0,0.0,0.0,0.0,0.0,0.0,0.0,0.0,0.0,2.6285,2.6107,2.591,2.5902,2.5723,2.5698,2.6278,0.0,2.8297,2.8876,2.9862,3.0622,3.0619,3.0606,3.0574,3.0477,3.0389,0.0,0.0,0.0,0.0,0.0,2.9664,2.9472,0.0,2.7651,2.6408,2.6045,2.4646,2.3743,2.3594,2.3499,2.3476,2.3596,2.3487,2.3372,2.3229,2.3144,2.3057,2.297,2.2855,2.279,2.2764,2.2619,2.2542,2.2487,2.2391,2.231,2.2211,2.2118,2.2001,2.1855,2.184,2.1706,2.1509,2.1449,2.121,2.0907,0.0,0.0,0.0,0.0,0.0,0.0,0.0,0.0,0.0,0.0,0.0,0.0,0.0,0.0,0.0,0.0,0.0,0.0,0.0,0.0,0.0,0.0,0.0,0.0,0.0,0.0,0.0,0.0,0.0,0.0,0.0,0.0,0.0,0.0,0.0,0.0,0.0,0.0,0.0,0.0,0.0,0.0,2.7099,0.0,0.0,0.0,0.0,0.0,0.0,0.0,0.0,0.0,0.0,0.0,0.0,0.0,0.0,0.0,0.0,2.5503,2.5495,2.5495,2.5503,0.0,0.0,0.0,2.8342,2.919,3.0019,3.0586,3.0579,3.0535,3.0488,3.0385,3.0305,0.0,0.0,0.0,0.0,0.0,0.0,0.0,0.0,2.772,2.6668,2.6215,2.4881,2.3889,2.3448,2.3301,2.3253,2.3313,2.3229,2.3156,2.3052,2.2957,2.2868,2.2829,2.2685,2.2619,2.2619,2.2515,2.2419,2.2366,2.2282,2.2197,0.0,2.1972,2.1855,2.1753,2.1663,2.1509,2.134,2.1198,2.1103,2.1038,0.0,0.0,0.0,0.0,0.0,0.0,0.0,0.0,0.0,0.0,0.0,0.0,0.0,0.0,0.0,0.0,0.0,0.0,0.0,0.0,0.0,0.0,0.0,0.0,0.0,0.0,0.0,0.0,2.7515,2.7069,2.6972,0.0,0.0,0.0,0.0,0.0,0.0,0.0,0.0,0.0,0.0,0.0,0.0,0.0,0.0,0.0,0.0,0.0,0.0,0.0,0.0,0.0,0.0,0.0,0.0,0.0,0.0,0.0,0.0,0.0,0.0,0.0,0.0,0.0,0.0,0.0,0.0,0.0,3.0027,3.0579,3.0509,3.0444,3.0373,3.0304,3.0227,0.0,0.0,0.0,0.0,0.0,2.9171,0.0,2.8893,2.7967,2.7001,2.6063,2.5165,2.4272,2.3354,2.3139,2.3057,2.2982,2.2965,2.2965,2.2982,2.279,2.2685,2.2685,2.2538,2.2487,2.2487,2.2422,2.2352,2.2265,2.2197,2.208,2.1899,2.1827,2.1738,2.1649,2.1387,2.1294,2.123,2.099,2.0844,2.0761,0.0,0.0,0.0,0.0,0.0,0.0,0.0,0.0,0.0,0.0,0.0,0.0,0.0,0.0,0.0,0.0,0.0,0.0,0.0,0.0,0.0,0.0,0.0,0.0,0.0,0.0,0.0,2.9214,2.8348,2.7593,2.6974,2.6101,0.0,0.0,0.0,0.0,0.0,0.0,0.0,0.0,0.0,0.0,0.0,0.0,0.0,0.0,2.6308,2.6171,0.0,0.0,0.0,0.0,0.0,0.0,0.0,0.0,2.5645,0.0,0.0,0.0,0.0,0.0,0.0,0.0,0.0,0.0,0.0,0.0,0.0,3.05,3.0444,3.0379,3.0311,3.0221,3.0109,3.0007,2.9876,0.0,0.0,2.916,2.9033,2.8863,2.8687,2.7758,2.6833,2.5988,2.4961,2.4033,2.3191,2.2982,2.2842,2.2777,2.2725,2.2725,2.2777,2.2619,2.2555,2.2555,2.246,2.2408,2.2352,2.2282,2.218,2.2073,2.1945,2.1871,2.1811,2.1694,2.1542,2.1403,2.1324,2.1135,2.0909,2.086,2.0728,2.0561,0.0,0.0,0.0,0.0,0.0,0.0,0.0,0.0,0.0,0.0,0.0,0.0,0.0,0.0,0.0,0.0,0.0,0.0,0.0,0.0,0.0,0.0,0.0,0.0,0.0,0.0,0.0,0.0,0.0,2.7985,0.0,0.0,0.0,0.0,0.0,0.0,0.0,0.0,0.0,0.0,0.0,0.0,0.0,0.0,0.0,0.0,2.57,2.5702,0.0,2.5703,2.57,2.5696,0.0,0.0,0.0,0.0,2.5675,0.0,0.0,0.0,0.0,0.0,0.0,0.0,0.0,0.0,0.0,0.0,0.0,0.0,3.0379,3.0299,0.0,3.0176,3.0038,0.0,0.0,0.0,0.0,2.9033,2.887,2.8687,2.8484,2.7932,2.7232,2.6295,2.5337,2.4401,2.3458,2.3007,2.2712,2.2605,2.2538,2.2542,2.2605,2.2515,2.2432,2.2422,2.2338,2.2251,2.2147,2.2135,2.2032,2.1897,2.1825,2.1721,2.1601,2.1495,2.1372,2.1246,2.1119,2.0958,2.0794,2.0661,2.0526,2.0392,0.0,0.0,0.0,0.0,0.0,0.0,0.0,0.0,0.0,0.0,0.0,0.0,0.0,0.0,0.0,0.0,0.0,0.0,0.0,0.0,0.0,0.0,0.0,0.0,0.0,0.0,0.0,0.0,0.0,0.0,0.0,0.0,0.0,0.0,0.0,0.0,0.0,0.0,0.0,0.0,2.5664,0.0,0.0,0.0,0.0,0.0,0.0,0.0,0.0,2.5702,2.5703,2.5702,2.5698,0.0,0.0,0.0,0.0,0.0,0.0,0.0,0.0,0.0,0.0,0.0,0.0,0.0,0.0,0.0,0.0,0.0,0.0,0.0,0.0,0.0,0.0,0.0,2.9412,2.9246,2.9089,2.8881,2.8687,2.8497,2.83,2.8196,2.7709,2.668,2.5816,2.4892,2.3867,2.3068,2.2605,2.2487,2.2432,2.2422,2.2446,2.2391,2.2338,2.2282,2.2211,2.2092,2.1969,2.1969,2.1899,2.1768,2.1753,2.1586,2.1371,2.1293,2.1215,2.1119,2.0876,2.0778,2.0712,2.0458,2.0339,2.0252,0.0,0.0,0.0,0.0,0.0,0.0,0.0,0.0,0.0,0.0,0.0,0.0,0.0,0.0,0.0,0.0,0.0,0.0,0.0,0.0,0.0,0.0,0.0,0.0,0.0,0.0,0.0,0.0,0.0,0.0,2.8089,2.6324,2.5546,0.0,0.0,0.0,0.0,0.0,0.0,0.0,0.0,0.0,0.0,0.0,0.0,0.0,0.0,0.0,0.0,2.5691,2.57,2.5703,2.5703,0.0,0.0,0.0,0.0,0.0,2.5697,2.6188,0.0,0.0,0.0,0.0,0.0,0.0,0.0,0.0,0.0,0.0,0.0,0.0,0.0,0.0,0.0,2.9482,0.0,0.0,2.8947,2.8675,2.851,2.8367,2.8223,2.795,2.7446,2.6665,2.5634,2.4697,2.3853,2.3004,2.2501,2.2419,2.2422,2.2352,2.2257,2.2242,2.2228,2.2197,2.2089,2.1957,2.1825,2.1825,2.1753,2.1619,2.1465,2.1356,2.1325,2.1183,2.1022,2.086,2.0811,2.0661,2.0457,2.0339,2.0252,2.01,0.0,0.0,0.0,0.0,0.0,0.0,0.0,0.0,0.0,0.0,0.0,0.0,0.0,0.0,0.0,0.0,0.0,0.0,0.0,0.0,0.0,0.0,0.0,0.0,0.0,0.0,0.0,0.0,0.0,2.7733,2.7325,2.608,2.552,2.5557,0.0,0.0,0.0,0.0,0.0,0.0,0.0,0.0,0.0,0.0,0.0,0.0,0.0,0.0,0.0,0.0,2.5696,2.5702,2.5703,0.0,0.0,0.0,0.0,0.0,2.5708,2.6304,2.7051,0.0,0.0,0.0,0.0,0.0,0.0,0.0,0.0,0.0,0.0,0.0,0.0,2.9763,0.0,2.9322,2.9167,2.8998,2.8798,2.8574,2.8411,2.8205,2.7993,2.7803,2.7487,2.6959,2.6113,2.5203,2.4284,2.3477,2.2827,2.2352,2.231,2.2254,2.22,2.2051,2.1976,2.1976,2.1913,2.1811,2.1694,2.1617,2.1541,2.1434,2.1294,2.1167,2.1023,2.0957,2.0826,2.0628,2.061,2.0492,2.0321,2.0113,1.9993,1.9922,0.0,0.0,0.0,0.0,0.0,0.0,0.0,0.0,0.0,0.0,0.0,0.0,0.0,0.0,0.0,0.0,0.0,0.0,0.0,0.0,0.0,0.0,0.0,0.0,0.0,0.0,0.0,2.9048,2.8261,2.7349,2.6367,2.576,2.5476,0.0,0.0,0.0,0.0,0.0,0.0,0.0,0.0,0.0,0.0,0.0,0.0,0.0,0.0,0.0,0.0,0.0,0.0,0.0,0.0,0.0,0.0,0.0,2.5698,2.5693,2.5696,2.6468,2.7431,0.0,0.0,2.9609,3.0412,0.0,0.0,0.0,0.0,0.0,0.0,3.0038,0.0,2.9626,2.9412,2.9217,2.9078,2.8881,2.8675,2.8484,2.8291,2.8053,2.7803,2.7686,2.7507,2.7213,2.6494,2.5699,2.4902,2.3988,2.3197,2.2552,2.2312,2.2168,2.2111,2.1886,2.1812,2.1812,2.1753,2.1648,2.1528,2.1402,2.1309,2.1198,2.1135,2.0974,2.0761,2.0745,2.0628,2.046,2.039,2.0287,2.0148,1.9887,1.978,1.9762,0.0,0.0,0.0,0.0,0.0,0.0,0.0,0.0,0.0,0.0,0.0,0.0,0.0,0.0,0.0,0.0,0.0,0.0,0.0,0.0,0.0,0.0,0.0,0.0,0.0,3.0117,2.9715,2.8912,2.8109,2.6926,2.5398,2.5418,2.5407,0.0,0.0,0.0,0.0,0.0,0.0,0.0,0.0,0.0,0.0,0.0,0.0,0.0,0.0,0.0,0.0,0.0,0.0,0.0,0.0,0.0,0.0,0.0,2.57,2.5697,2.5697,2.6871,2.8121,2.8181,0.0,0.0,3.0419,0.0,0.0,0.0,0.0,0.0,0.0,2.9904,2.9673,2.9522,2.9349,2.9145,2.8952,2.8749,2.8536,2.834,2.8136,2.794,2.773,2.7526,2.7359,2.7197,2.64,2.583,2.5636,2.4216,2.3361,2.3222,2.2567,2.208,2.1827,2.1812,2.1812,2.1812,2.154,2.1386,2.1325,2.1246,2.1103,2.0942,2.086,2.0777,2.0693,2.0561,2.0475,2.0405,2.0321,2.0098,1.9833,1.9797,1.9762,1.9708,0.0,0.0,0.0,0.0,0.0,0.0,0.0,0.0,0.0,0.0,0.0,0.0,0.0,0.0,0.0,0.0,0.0,0.0,0.0,0.0,0.0,0.0,0.0,2.9608,2.98,2.9901,2.9334,2.8027,2.6721,2.579,2.5245,2.5266,0.0,0.0,0.0,0.0,0.0,0.0,0.0,0.0,0.0,0.0,0.0,0.0,0.0,0.0,0.0,0.0,0.0,0.0,0.0,0.0,0.0,0.0,0.0,0.0,0.0,2.5691,2.5694,2.6924,2.8188,2.8146,0.0,0.0,0.0,0.0,0.0,0.0,0.0,0.0,0.0,0.0,3.0288,3.0195,2.9555,2.901,2.8858,2.8625,2.8406,2.8264,2.7979,2.7777,2.7644,2.7417,2.7231,2.7087,2.6718,2.6263,2.5658,2.5053,2.4264,2.3339,2.2916,2.2412,2.1812,2.1631,2.1525,2.1495,2.1387,2.1246,2.1055,2.0974,2.0892,2.0777,2.0662,2.0594,2.0508,2.0407,2.0321,2.02,2.0061,1.9904,1.978,1.9744,1.9726,1.9708,0.0,0.0,0.0,0.0,0.0,0.0,0.0,0.0,0.0,0.0,0.0,0.0,0.0,0.0,0.0,0.0,0.0,0.0,0.0,0.0,0.0,0.0,0.0,2.9421,2.9511,2.941,2.8714,2.74,2.5835,2.5095,2.5136,0.0,0.0,0.0,0.0,0.0,0.0,0.0,0.0,0.0,0.0,2.5425,0.0,0.0,0.0,0.0,0.0,0.0,0.0,0.0,0.0,0.0,0.0,0.0,0.0,0.0,0.0,0.0,2.6001,2.7112,0.0,0.0,0.0,0.0,0.0,0.0,0.0,0.0,0.0,0.0,0.0,0.0,0.0,0.0,2.9657,2.8905,2.8761,2.8523,2.83,2.8154,2.785,2.763,2.7559,2.7308,2.7119,2.7007,2.6942,2.6622,2.5981,2.5662,2.4923,2.3663,2.3177,2.2557,2.1738,2.1479,2.1293,2.1183,2.1151,2.1055,2.086,2.0761,2.0677,2.0609,2.0492,2.039,2.0304,2.0235,2.0131,1.9977,1.9851,1.978,1.9762,1.9726,1.9708,1.9708,0.0,0.0,0.0,0.0,0.0,0.0,0.0,0.0,0.0,0.0,0.0,0.0,0.0,0.0,0.0,0.0,0.0,0.0,0.0,0.0,0.0,0.0,0.0,2.9296,2.9293,2.8563,2.7839,2.718,2.5716,2.4998,2.4993,0.0,0.0,0.0,0.0,0.0,0.0,0.0,0.0,0.0,0.0,2.5404,2.541,0.0,0.0,0.0,0.0,0.0,0.0,0.0,0.0,0.0,0.0,0.0,0.0,0.0,2.5695,2.5878,2.6674,2.7546,0.0,0.0,0.0,0.0,0.0,0.0,0.0,0.0,0.0,0.0,3.2161,0.0,0.0,3.0431,2.9559,2.8834,2.8625,2.8419,2.8219,2.8011,2.7766,2.7559,2.7407,2.7215,2.707,2.6991,2.6942,2.6842,2.6725,2.5932,2.5143,2.4323,2.3399,2.2482,2.1621,2.1403,2.1151,2.0893,2.0828,2.0794,2.0794,2.0595,2.0458,2.0388,2.0321,2.022,2.0083,2.0025,1.9919,1.9797,1.9797,1.9762,1.9708,1.9708,1.9708,1.9708,0.0,0.0,0.0,0.0,0.0,0.0,0.0,0.0,0.0,0.0,0.0,0.0,0.0,0.0,0.0,0.0,0.0,0.0,0.0,0.0,0.0,0.0,0.0,0.0,0.0,0.0,2.6411,2.6365,2.5356,2.4875,0.0,0.0,0.0,2.5139,0.0,0.0,0.0,0.0,0.0,0.0,2.5384,2.5395,2.5408,0.0,0.0,0.0,0.0,0.0,0.0,0.0,0.0,0.0,0.0,0.0,0.0,2.5694,2.5705,2.5887,2.6683,0.0,0.0,0.0,0.0,0.0,0.0,0.0,0.0,0.0,0.0,3.3223,3.363,3.243,0.0,3.1133,2.9783,2.87,2.8484,2.8291,2.8067,2.7821,2.763,2.7465,2.7279,2.712,2.7007,2.6942,2.6825,2.6725,2.6623,2.6353,2.5548,2.4131,2.3769,2.2882,2.1404,2.1278,2.1103,2.0828,2.0678,2.0561,2.0525,2.0407,2.0289,2.0185,2.0113,2.0061,2.0025,1.9902,1.9797,1.9726,1.9726,1.9726,1.9708,1.9708,1.9708,1.9708,0.0,0.0,0.0,0.0,0.0,0.0,0.0,0.0,0.0,0.0,0.0,0.0,0.0,0.0,0.0,0.0,0.0,0.0,0.0,0.0,0.0,0.0,0.0,0.0,0.0,2.6097,2.5549,0.0,0.0,0.0,0.0,0.0,0.0,2.5069,0.0,0.0,0.0,0.0,0.0,0.0,2.5379,2.541,2.54,0.0,0.0,0.0,0.0,0.0,0.0,0.0,0.0,0.0,0.0,0.0,0.0,2.571,2.5928,2.6355,2.7188,0.0,0.0,0.0,0.0,0.0,0.0,0.0,0.0,0.0,0.0,3.3892,3.4265,3.3072,3.1906,3.1402,3.0092,2.8962,2.8394,2.8182,2.7954,2.7704,2.7494,2.7324,2.7165,2.7039,2.6925,2.6909,2.6742,2.664,2.6589,2.6486,2.5796,2.4481,2.4017,2.3129,2.1762,2.1279,2.0941,2.076,2.056,2.0407,2.0287,2.0252,2.015,2.0061,1.9955,1.9902,1.9866,1.978,1.9744,1.9708,1.9708,1.9708,1.9708,1.9708,1.9708,1.9708,0.0,0.0,0.0,0.0,0.0,0.0,0.0,0.0,0.0,0.0,0.0,0.0,0.0,0.0,0.0,0.0,0.0,0.0,0.0,0.0,0.0,0.0,0.0,0.0,0.0,0.0,0.0,0.0,0.0,0.0,0.0,0.0,2.499,0.0,0.0,0.0,0.0,0.0,0.0,2.5292,2.5379,2.541,2.54,2.5467,0.0,0.0,0.0,0.0,0.0,0.0,0.0,0.0,0.0,0.0,2.5711,2.5784,2.6329,2.7113,0.0,0.0,0.0,0.0,0.0,0.0,0.0,0.0,0.0,3.3374,0.0,3.434,3.4209,3.3326,3.2287,3.1334,3.0389,2.9413,2.8344,2.8053,2.7882,2.7617,2.7371,2.7165,2.7103,2.6991,2.6893,2.6893,2.6708,2.6606,2.6606,2.6399,2.5927,2.511,2.4112,2.3207,2.2361,2.1308,2.076,2.0676,2.0491,2.0287,2.0098,2.0098,2.0045,1.997,1.9848,1.9762,1.9708,1.9708,1.9708,1.9708,1.9708,1.9708,1.9708,1.9708,1.9708,1.9708,0.0,0.0,0.0,0.0,0.0,0.0,0.0,0.0,0.0,0.0,0.0,0.0,0.0,0.0,0.0,0.0,0.0,0.0,0.0,0.0,0.0,0.0,0.0,0.0,0.0,0.0,0.0,0.0,0.0,0.0,0.0,0.0,0.0,0.0,0.0,0.0,0.0,0.0,0.0,2.5228,2.5351,2.541,2.54,2.5467,2.5535,0.0,0.0,0.0,0.0,0.0,0.0,0.0,2.5702,2.5697,2.5822,2.6468,2.6763,0.0,0.0,0.0,0.0,0.0,0.0,0.0,0.0,0.0,0.0,3.3395,3.3867,3.4209,3.4074,3.3263,3.2261,3.1206,3.0261,2.9291,2.8261,2.7908,2.7686,2.7542,2.734,2.7151,2.704,2.6959,2.6859,2.6742,2.664,2.6589,2.652,2.6328,2.5802,2.4903,2.3991,2.3055,2.2111,2.1242,2.0694,2.0457,2.0371,2.0218,2.0008,2.0008,1.9937,1.9762,1.9726,1.9708,1.9708,1.9708,1.9708,1.9708,1.9708,1.9708,1.9708,1.9708,1.9708,1.9708,0.0,0.0,0.0,0.0,0.0,0.0,0.0,0.0,0.0,0.0,0.0,0.0,0.0,0.0,0.0,0.0,0.0,0.0,0.0,0.0,0.0,0.0,0.0,0.0,0.0,0.0,0.0,0.0,0.0,0.0,0.0,0.0,0.0,0.0,0.0,0.0,0.0,0.0,0.0,2.5203,2.5351,2.5395,2.5412,2.5471,2.5541,2.5596,2.56,0.0,0.0,0.0,0.0,0.0,0.0,0.0,2.6401,2.6786,2.7461,0.0,0.0,0.0,0.0,0.0,0.0,0.0,0.0,0.0,3.3401,3.3717,3.3936,3.4061,3.3934,3.3391,3.2643,3.1598,3.0671,2.9715,2.8626,2.8009,2.7585,2.7386,2.7215,2.7055,2.6958,2.6859,2.6759,2.6657,2.6589,2.6485,2.6363,2.6203,2.5808,2.5196,2.4031,2.3095,2.2433,2.1249,2.0544,2.0354,2.0252,2.0113,1.9902,1.9866,1.9797,1.9708,1.9708,1.9708,1.9708,1.9708,1.9708,1.9708,1.9708,1.9708,1.9708,1.9708,1.9708,1.9708,0.0,0.0,0.0,0.0,0.0,0.0,0.0,0.0,0.0,0.0,0.0,0.0,0.0,0.0,0.0,0.0,0.0,0.0,0.0,0.0,0.0,0.0,0.0,0.0,0.0,0.0,0.0,0.0,0.0,0.0,0.0,0.0,0.0,0.0,0.0,0.0,0.0,0.0,0.0,2.5203,2.5351,2.5404,2.541,2.5478,2.5547,2.5607,2.5611,2.5641,2.5702,2.5698,0.0,0.0,0.0,0.0,2.6996,2.7104,0.0,0.0,0.0,0.0,0.0,0.0,0.0,0.0,0.0,0.0,3.3545,3.4067,3.4061,3.3921,3.3793,3.3549,3.3048,3.2038,3.1213,3.029,2.9081,2.8229,2.7604,2.7246,2.7071,2.6959,2.6909,2.6792,2.6674,2.6606,2.6537,2.6398,2.6203,2.6026,2.5844,2.5616,2.4048,2.3115,2.2896,2.1283,2.0424,2.027,2.0115,1.9942,1.978,1.9726,1.9708,1.9708,1.9708,1.9708,1.9708,1.9708,1.9708,1.9708,1.9708,1.9708,1.9708,1.9708,1.9708,1.9708,0.0,0.0,0.0,0.0,0.0,0.0,0.0,0.0,0.0,0.0,0.0,0.0,0.0,0.0,0.0,0.0,0.0,0.0,0.0,0.0,0.0,0.0,0.0,0.0,0.0,0.0,0.0,0.0,0.0,0.0,0.0,0.0,0.0,0.0,0.0,0.0,0.0,0.0,0.0,0.0,2.5351,2.5404,2.541,2.5469,2.5537,2.5609,2.5677,2.5684,2.5703,2.57,2.5703,0.0,0.0,0.0,2.7053,2.7812,0.0,0.0,0.0,0.0,0.0,0.0,0.0,0.0,0.0,0.0,3.4127,0.0,3.3921,3.3793,3.3643,3.3415,3.2892,3.189,3.1426,3.0672,2.9121,2.8541,2.8021,2.7283,2.7023,2.6909,2.6893,2.6792,2.6674,2.6606,2.6537,2.6398,2.6203,2.5917,2.5698,2.5597,2.3882,2.2914,2.282,2.1227,2.0321,2.0133,1.9922,1.9797,1.9708,1.9708,1.9708,1.9708,1.9708,1.9708,1.9708,1.9708,1.9708,1.9708,1.9708,1.9708,1.9708,1.9708,1.9708,1.9708,0.0,0.0,0.0,0.0,0.0,0.0,0.0,0.0,0.0,0.0,0.0,0.0,0.0,0.0,0.0,0.0,0.0,0.0,0.0,0.0,0.0,0.0,0.0,0.0,0.0,0.0,0.0,0.0,0.0,0.0,0.0,2.4564,2.4671,0.0,0.0,0.0,0.0,0.0,0.0,0.0,0.0,0.0,0.0,0.0,0.0,0.0,0.0,0.0,0.0,0.0,0.0,2.5698,2.5707,0.0,0.0,0.0,0.0,0.0,0.0,0.0,0.0,0.0,0.0,0.0,0.0,0.0,3.3598,3.3828,3.3753,3.3605,3.3509,3.3241,3.2836,3.2291,3.1672,3.0931,3.0086,2.9053,2.8232,2.7755,2.723,2.6859,2.6792,2.6708,2.6623,2.6554,2.6415,2.6239,2.6025,2.5787,2.5581,2.5445,2.379,2.2825,2.2695,2.1124,2.0218,1.9922,1.9797,1.9726,1.9708,1.9708,1.9708,1.9708,1.9708,1.9708,1.9708,1.9708,1.9708,1.9708,1.9708,1.9708,1.9708,1.9708,1.9708,1.9708,0.0,0.0,0.0,0.0,0.0,0.0,0.0,0.0,0.0,0.0,0.0,0.0,0.0,0.0,0.0,0.0,0.0,0.0,0.0,0.0,0.0,0.0,0.0,0.0,0.0,0.0,0.0,0.0,0.0,0.0,2.4539,2.4588,2.4695,0.0,2.482,0.0,0.0,0.0,0.0,0.0,0.0,0.0,0.0,0.0,0.0,0.0,0.0,0.0,0.0,0.0,0.0,0.0,0.0,2.6846,0.0,0.0,0.0,0.0,0.0,0.0,0.0,0.0,0.0,0.0,0.0,0.0,3.305,3.3642,3.3591,3.3408,3.3289,3.3042,3.2804,3.2573,3.1912,3.1271,3.0838,2.9696,2.8716,2.8135,2.7504,2.7029,2.6725,2.664,2.6571,2.6502,2.631,2.6114,2.5915,2.5675,2.5467,2.5259,2.3663,2.2734,2.2583,2.1,2.0078,1.9797,1.9726,1.9708,1.9708,1.9708,1.9708,1.9708,1.9708,1.9708,1.9708,1.9708,1.9708,1.9708,1.9708,1.9708,1.9708,1.9708,1.9708,1.9708,0.0,0.0,0.0,0.0,0.0,0.0,0.0,0.0,0.0,0.0,0.0,0.0,0.0,0.0,0.0,0.0,0.0,0.0,0.0,0.0,0.0,0.0,0.0,0.0,0.0,0.0,0.0,0.0,0.0,0.0,2.4607,2.466,2.4738,2.4794,2.487,2.4965,2.5108,0.0,0.0,0.0,0.0,0.0,0.0,0.0,0.0,0.0,0.0,0.0,0.0,0.0,0.0,0.0,0.0,0.0,0.0,0.0,0.0,0.0,0.0,0.0,0.0,0.0,0.0,0.0,0.0,0.0,3.2963,3.3492,3.3452,3.3232,3.2963,3.287,3.2725,3.2457,3.2197,3.1741,3.0836,3.0467,2.9723,2.8185,2.786,2.7486,2.6759,2.664,2.6571,2.6502,2.631,2.6114,2.5915,2.5602,2.532,2.5127,2.3494,2.2583,2.2506,2.0855,1.9937,1.9797,1.9726,1.9708,1.9708,1.9708,1.9708,1.9708,1.9708,1.9708,1.9708,1.9708,1.9708,1.9708,1.9708,1.9708,1.9708,1.9708,1.9708,1.9708,0.0,0.0,0.0,0.0,0.0,0.0,0.0,0.0,0.0,0.0,0.0,0.0,0.0,0.0,0.0,0.0,0.0,0.0,0.0,0.0,0.0,0.0,0.0,0.0,0.0,0.0,0.0,0.0,0.0,2.4559,2.4666,2.4695,2.4776,2.4936,2.4957,2.4999,2.5095,2.5178,0.0,0.0,0.0,0.0,0.0,0.0,0.0,0.0,0.0,0.0,0.0,0.0,0.0,0.0,0.0,0.0,0.0,0.0,0.0,0.0,0.0,0.0,0.0,0.0,0.0,3.0263,3.0857,3.1503,3.2114,3.2666,3.2987,3.3088,3.2886,3.2707,3.2541,3.2301,3.2072,3.177,3.1347,3.07,3.0057,2.9476,2.847,2.7705,2.7435,2.6875,2.652,2.6502,2.6187,2.597,2.5899,2.5527,2.5259,2.5091,2.3459,2.2055,2.0916,2.0215,1.983,1.9744,1.9708,1.9708,1.9708,1.9708,1.9708,1.9708,1.9708,1.9708,1.9708,1.9708,1.9708,1.9708,1.9708,1.9708,1.9708,1.9708,1.9726,1.9762,0.0,0.0,0.0,0.0,0.0,0.0,0.0,0.0,0.0,0.0,0.0,0.0,0.0,0.0,0.0,0.0,0.0,0.0,0.0,0.0,0.0,0.0,0.0,0.0,0.0,0.0,0.0,0.0,0.0,0.0,0.0,0.0,2.4853,2.5003,2.5056,0.0,0.0,0.0,0.0,2.5332,0.0,0.0,2.5505,0.0,0.0,0.0,0.0,0.0,0.0,0.0,0.0,0.0,0.0,0.0,0.0,0.0,0.0,0.0,0.0,0.0,0.0,0.0,0.0,2.9735,3.0364,3.0775,3.1279,3.2092,3.2483,3.2688,3.2718,3.254,3.2336,3.2179,3.1947,3.1763,3.1596,3.0982,3.0461,3.0202,2.9213,2.8365,2.7858,2.7245,2.677,2.6519,2.6133,2.5897,2.5897,2.5524,2.507,2.4602,2.3217,2.1781,2.0339,1.9972,1.9762,1.9708,1.9708,1.9708,1.9708,1.9708,1.9708,1.9708,1.9708,1.9708,1.9708,1.9708,1.9708,1.9708,1.9708,1.9708,1.9726,1.9726,1.978,1.9866,0.0,0.0,0.0,0.0,0.0,0.0,0.0,0.0,0.0,0.0,0.0,0.0,0.0,0.0,0.0,0.0,0.0,0.0,0.0,0.0,0.0,0.0,0.0,0.0,0.0,0.0,0.0,0.0,0.0,0.0,0.0,0.0,2.4938,0.0,2.5132,2.5191,2.5203,0.0,2.5346,2.5403,0.0,2.5529,2.5541,0.0,0.0,0.0,2.5779,2.5774,0.0,2.578,0.0,0.0,0.0,0.0,0.0,0.0,0.0,0.0,0.0,0.0,0.0,0.0,0.0,0.0,3.0309,3.0274,3.0494,3.1841,3.1941,3.1954,3.2478,3.2352,3.2179,3.2108,3.1928,3.1726,3.1536,3.1387,3.1019,3.0226,3.0106,2.9497,2.801,2.7699,2.7308,2.6603,2.615,2.5915,2.5897,2.5508,2.4766,2.3631,2.2675,2.1805,2.1007,2.0198,1.9762,1.9708,1.9708,1.9708,1.9708,1.9708,1.9708,1.9708,1.9708,1.9708,1.9708,1.9708,1.9708,1.9708,1.9708,1.9744,1.9797,1.9797,1.9884,2.0023,0.0,0.0,0.0,0.0,0.0,0.0,0.0,0.0,0.0,0.0,0.0,0.0,0.0,0.0,0.0,0.0,0.0,0.0,0.0,0.0,0.0,0.0,0.0,0.0,0.0,0.0,0.0,0.0,0.0,0.0,0.0,0.0,0.0,0.0,2.5162,2.5236,2.5268,2.5288,0.0,0.0,2.5468,2.5889,0.0,0.0,0.0,0.0,0.0,2.7574,2.7578,0.0,2.758,2.7711,0.0,0.0,0.0,0.0,0.0,0.0,3.0159,0.0,0.0,0.0,0.0,0.0,2.955,2.9834,3.0166,3.0414,3.1128,3.1749,3.1788,3.1984,3.2108,3.209,3.1818,3.1557,3.1517,3.1346,3.1145,3.092,3.0429,2.992,2.9497,2.8376,2.7562,2.7308,2.6557,2.6059,2.5915,2.5375,2.463,2.3631,2.2675,2.1805,2.1007,2.0198,1.9762,1.9708,1.9708,1.9708,1.9708,1.9708,1.9708,1.9708,1.9708,1.9708,1.9708,1.9708,1.9708,1.9708,1.9744,1.978,1.9797,1.9902,2.0061,2.0218,0.0,0.0,0.0,0.0,0.0,0.0,0.0,0.0,0.0,0.0,0.0,0.0,0.0,0.0,0.0,0.0,0.0,0.0,0.0,0.0,0.0,0.0,0.0,0.0,0.0,0.0,0.0,0.0,0.0,0.0,0.0,0.0,0.0,0.0,0.0,0.0,0.0,0.0,0.0,0.0,2.587,0.0,0.0,2.7291,2.7774,0.0,0.0,0.0,2.83,2.8293,2.8526,2.8875,2.9275,0.0,0.0,0.0,0.0,0.0,0.0,0.0,0.0,0.0,0.0,0.0,2.9222,2.9389,2.9612,2.9766,3.0288,3.0864,3.14,3.1547,3.1707,3.2056,3.1763,3.1498,3.1498,3.1344,3.119,3.119,3.0818,3.0446,3.0123,2.8918,2.8002,2.7626,2.6744,2.6059,2.5715,2.5282,2.4737,2.4053,2.313,2.2259,2.1417,2.0639,2.0065,1.9708,1.9708,1.9708,1.9708,1.9708,1.9708,1.9708,1.9708,1.9726,1.9744,1.9744,1.9744,1.9744,1.978,1.9851,1.994,2.0078,2.0233,2.0339,0.0,0.0,0.0,0.0,0.0,0.0,0.0,0.0,0.0,0.0,0.0,0.0,0.0,0.0,0.0,0.0,0.0,0.0,0.0,0.0,0.0,0.0,0.0,0.0,0.0,0.0,0.0,0.0,0.0,0.0,0.0,0.0,0.0,0.0,0.0,0.0,0.0,0.0,0.0,2.5855,2.663,2.7039,0.0,0.0,2.8432,2.857,2.8582,2.8593,2.8591,2.8584,2.9058,2.9619,2.9557,2.9974,0.0,0.0,3.0317,0.0,0.0,0.0,0.0,0.0,0.0,0.0,2.9222,2.8987,2.8961,2.9549,2.9475,2.9739,3.1099,3.1126,3.1168,3.1969,3.1763,3.1498,3.1498,3.1344,3.119,3.119,3.119,3.0937,3.0294,2.9441,2.8609,2.7777,2.6759,2.5952,2.5454,2.5224,2.495,2.4609,2.3776,2.2931,2.2135,2.1386,2.0613,1.9813,1.9813,1.9768,1.9708,1.9708,1.9708,1.9708,1.9708,1.9744,1.9797,1.9797,1.9797,1.9815,1.9833,2.0003,2.0257,2.0377,2.0543,2.0691,0.0,0.0,0.0,0.0,0.0,0.0,0.0,0.0,0.0,0.0,0.0,0.0,0.0,0.0,0.0,0.0,0.0,0.0,0.0,0.0,0.0,0.0,0.0,0.0,0.0,0.0,0.0,0.0,0.0,0.0,0.0,0.0,0.0,0.0,0.0,0.0,0.0,0.0,0.0,2.76,2.7786,0.0,2.9016,2.9174,2.9689,3.0313,3.0364,3.039,3.0387,3.0328,3.0384,3.0467,3.0451,3.0459,0.0,3.0431,0.0,0.0,0.0,0.0,0.0,0.0,0.0,0.0,2.9222,2.8987,2.8816,2.8824,2.9175,2.969,3.0391,3.0789,3.1219,3.1986,3.1763,3.1498,3.1498,3.1344,3.119,3.119,3.119,3.114,3.1004,3.0292,2.9473,2.8548,2.6914,2.5844,2.5567,2.5282,2.495,2.4609,2.3871,2.3255,2.2818,2.2146,2.1348,2.0513,2.0513,2.0228,1.9708,1.9708,1.9708,1.9708,1.9708,1.9744,1.9797,1.9797,1.9866,1.997,2.0028,2.0454,2.1085,2.1159,2.1715,2.2431,0.0,0.0,0.0,0.0,0.0,0.0,0.0,0.0,0.0,0.0,0.0,0.0,0.0,0.0,0.0,0.0,0.0,0.0,0.0,0.0,0.0,0.0,0.0,0.0,0.0,0.0,0.0,0.0,0.0,0.0,0.0,0.0,0.0,0.0,0.0,0.0,0.0,0.0,2.828,2.8741,2.8758,0.0,2.9547,2.9985,3.0419,3.0807,3.0873,3.0879,3.0849,3.0807,3.0769,0.0,0.0,3.0618,3.0496,0.0,3.0311,3.0187,0.0,0.0,0.0,2.9729,0.0,0.0,0.0,2.8987,2.8761,2.8675,2.8783,2.909,2.9639,3.0168,3.0711,3.1394,3.1578,3.1614,3.1517,3.1344,3.119,3.119,3.119,3.119,3.119,3.0531,2.9559,2.8246,2.6745,2.5807,2.5605,2.5339,2.5025,2.4609,2.4242,2.3716,2.3016,2.2682,2.2063,2.1201,2.1201,2.1021,2.0711,2.0711,2.0711,2.0711,2.0734,2.0809,2.0903,2.1014,2.114,2.12,2.0847,2.1214,2.1962,2.2092,2.2472,2.2934,0.0,0.0,0.0,0.0,0.0,0.0,0.0,0.0,0.0,0.0,0.0,0.0,0.0,0.0,0.0,0.0,0.0,0.0,0.0,0.0,0.0,0.0,0.0,2.6907,0.0,0.0,0.0,0.0,0.0,0.0,0.0,0.0,0.0,0.0,0.0,0.0,0.0,0.0,0.0,2.9655,0.0,2.9708,2.9838,3.0523,3.0817,3.0832,3.0876,3.0858,3.0799,3.0804,3.0769,3.0697,3.0704,3.0618,0.0,0.0,0.0,0.0,0.0,0.0,0.0,0.0,0.0,2.9301,0.0,0.0,0.0,2.8706,2.851,2.8506,2.9108,2.9541,2.9989,3.061,3.1183,3.1502,3.1333,3.1261,3.121,3.119,3.119,3.119,3.119,3.0357,2.9269,2.7894,2.6612,2.5807,2.5624,2.5413,2.5103,2.465,2.4609,2.4163,2.3254,2.3198,2.2763,2.1914,2.1909,2.1814,2.1695,2.1695,2.1714,2.1734,2.1783,2.1901,2.2071,2.2229,2.2492,2.2705,2.1895,2.2108,2.2901,2.3104,2.329,2.3474,0.0,0.0,0.0,0.0,0.0,0.0,0.0,0.0,0.0,0.0,0.0,0.0,0.0,0.0,0.0,0.0,0.0,0.0,2.7525,0.0,0.0,0.0,0.0,0.0,2.8813,0.0,0.0,0.0,0.0,0.0,0.0,0.0,0.0,0.0,2.7903,0.0,0.0,0.0,2.9845,0.0,3.0623,3.065,0.0,3.0752,3.0846,3.0895,3.0898,3.0851,3.0799,0.0,3.0769,3.0697,0.0,3.0618,3.0496,3.0419,0.0,0.0,0.0,0.0,0.0,0.0,2.954,0.0,0.0,0.0,2.8839,2.8737,0.0,2.8573,2.9191,0.0,0.0,2.9923,3.0421,3.0711,3.062,3.0999,3.1274,3.121,3.119,3.119,3.119,2.977,2.8766,2.858,2.691,2.5844,2.5701,2.5435,2.5139,2.4782,2.4666,2.4415,2.4059,2.3939,2.3485,2.2676,2.2609,2.2283,2.1695,2.1695,2.1719,2.1803,2.1803,2.1979,2.2267,2.2286,2.2888,2.3749,2.2944,2.3119,2.3869,2.4071,2.4638,2.5301,0.0,0.0,0.0,0.0,0.0,0.0,0.0,0.0,0.0,0.0,0.0,0.0,0.0,0.0,0.0,0.0,0.0,2.7748,0.0,0.0,0.0,0.0,0.0,0.0,0.0,0.0,0.0,0.0,2.9517,0.0,0.0,0.0,0.0,0.0,2.9438,0.0,3.0102,0.0,3.0384,0.0,0.0,0.0,0.0,3.0798,3.0849,3.0897,3.0897,3.0869,3.0799,3.0804,3.0769,0.0,0.0,0.0,0.0,3.0422,0.0,0.0,0.0,0.0,0.0,0.0,0.0,0.0,2.9283,2.9089,2.8917,2.8785,0.0,0.0,0.0,0.0,0.0,0.0,2.9775,3.0231,3.0522,3.0704,3.095,3.1223,3.1213,3.119,3.119,2.9667,2.8697,2.8697,2.6943,2.5844,2.5719,2.5451,2.5178,2.4906,2.4726,2.4487,2.4255,2.4166,2.3867,2.3375,2.3348,2.3155,2.2802,2.2885,2.2926,2.2968,2.3127,2.329,2.3476,2.367,2.4077,2.4566,2.447,2.4591,2.483,2.4979,2.5322,2.5696,0.0,0.0,0.0,0.0,0.0,0.0,0.0,0.0,0.0,0.0,0.0,0.0,2.7293,2.7374,0.0,0.0,2.7686,2.785,0.0,0.0,2.8453,0.0,0.0,0.0,0.0,0.0,0.0,0.0,0.0,0.0,0.0,0.0,0.0,0.0,0.0,3.0638,3.07,0.0,3.0739,3.0801,3.0804,3.0807,3.0825,3.0826,3.0854,3.0898,3.0897,3.0869,3.0796,3.0803,3.0769,3.0697,3.0704,3.0618,3.0482,0.0,0.0,0.0,3.0138,0.0,0.0,0.0,2.957,2.9441,2.9318,2.9163,2.8994,2.8858,2.87,0.0,0.0,0.0,0.0,0.0,0.0,2.9655,2.9989,3.0315,3.0721,3.123,3.1232,3.119,3.119,2.9686,2.8716,2.8697,2.7015,2.5917,2.5772,2.5508,2.5275,2.5025,2.4786,2.4564,2.4359,2.425,2.4103,2.3903,2.3861,2.3797,2.3717,2.3818,2.3861,2.3903,2.413,2.4291,2.4405,2.4726,2.4962,2.5143,2.5467,2.56,2.5621,2.5694,2.5752,2.5864,0.0,2.6775,0.0,0.0,0.0,0.0,0.0,0.0,0.0,0.0,0.0,0.0,0.0,0.0,0.0,0.0,0.0,2.7908,2.8168,0.0,2.8556,0.0,0.0,2.9163,0.0,0.0,0.0,0.0,0.0,0.0,0.0,0.0,0.0,0.0,0.0,3.0638,3.0704,3.0701,3.0737,3.0804,3.0801,3.0843,3.0894,0.0,3.0898,3.0897,3.0895,3.0867,3.0792,3.0801,3.0769,3.0697,3.0704,3.0618,3.0482,0.0,0.0,0.0,3.0138,3.0049,2.9948,2.9753,2.9645,2.954,2.9334,2.9203,2.9055,2.8929,2.8749,2.8562,2.8419,0.0,0.0,0.0,0.0,0.0,0.0,2.9748,3.0777,3.1249,3.1232,3.119,3.119,2.9743,2.8772,2.8697,2.7141,2.6096,2.5899,2.5694,2.5448,2.5127,2.4906,2.4701,2.4498,2.4307,2.4202,2.4202,2.4061,2.3982,2.3982,2.3982,2.4061,2.4202,2.4255,2.4405,2.4609,2.4886,2.5143,2.5397,2.5543,2.584,2.615,2.6026,2.6079,2.6185,0.0,0.0,0.0,0.0,0.0,0.0,0.0,2.7386,0.0,0.0,2.7572,0.0,0.0,2.7704,2.7763,0.0,0.0,2.8122,2.8246,2.8458,0.0,0.0,0.0,2.9167,0.0,0.0,0.0,0.0,0.0,0.0,0.0,0.0,0.0,0.0,0.0,3.0673,0.0,0.0,0.0,0.0,0.0,3.0873,3.0896,3.0897,3.0547,3.0038,3.0036,2.9657,2.9152,2.9143,2.9481,2.9899,2.9846,3.0149,3.0506,3.0465,3.0385,3.0279,3.0194,3.0087,2.9964,2.9868,2.971,2.9569,2.9412,2.9257,2.9123,2.8987,2.8834,2.8687,2.8549,0.0,0.0,0.0,0.0,0.0,0.0,2.9815,3.066,3.0827,3.1102,3.1274,3.1274,2.9764,2.8772,2.8697,2.7141,2.6132,2.5972,2.5731,2.5505,2.5301,2.5064,2.4862,2.4701,2.4498,2.4354,2.4255,2.4187,2.4103,2.4003,2.4151,2.4234,2.4276,2.4426,2.463,2.4886,2.5119,2.5333,2.5562,2.5877,2.6078,2.6185,2.615,2.6257,2.6415,2.871,0.0,0.0,0.0,0.0,0.0,0.0,0.0,0.0,0.0,2.7736,0.0,2.7893,0.0,2.795,0.0,2.8196,2.8273,2.8406,2.8549,0.0,2.8858,2.9033,0.0,0.0,0.0,0.0,0.0,0.0,3.0159,0.0,0.0,0.0,0.0,0.0,3.0706,3.0707,0.0,3.0804,0.0,0.0,3.0896,0.0,3.0566,3.0098,2.9608,2.9606,2.903,2.8309,2.826,2.8602,2.908,2.9311,2.9714,3.0139,3.0423,3.0416,3.0279,3.0221,3.0116,3.0007,2.9929,2.9764,2.9608,2.9463,2.9339,2.9197,2.9062,2.8929,2.8785,2.8625,0.0,0.0,0.0,0.0,0.0,0.0,2.9496,3.0006,3.0214,3.0908,3.1351,3.1295,2.9858,2.8866,2.8753,2.7232,2.6239,2.6079,2.586,2.5656,2.547,2.5259,2.5045,2.4882,2.4701,2.4539,2.4405,2.4359,2.4297,2.4234,2.4343,2.4426,2.4503,2.4666,2.4886,2.5103,2.5314,2.5543,2.5768,2.6078,2.6257,2.6345,2.631,2.6433,2.6589,0.0,0.0,0.0,0.0,2.9248,0.0,0.0,0.0,2.7879,0.0,2.7996,2.8042,2.8112,2.8112,2.8182,2.83,2.8313,2.8406,2.8587,2.8669,0.0,0.0,2.9123,2.9275,2.9402,0.0,0.0,0.0,0.0,0.0,0.0,0.0,0.0,0.0,3.0672,0.0,3.0706,3.0767,3.0796,3.0816,3.0871,3.0896,3.08,2.9922,2.9568,2.9527,2.9488,2.891,2.8163,2.8096,2.8108,2.8279,2.908,2.933,2.9453,3.0263,3.0416,3.0286,3.0227,3.0138,3.0072,2.9945,2.9798,2.9672,2.9541,2.939,2.9251,2.9141,2.8998,2.8846,2.865,2.86,0.0,0.0,0.0,0.0,0.0,0.0,2.892,2.9503,3.0657,3.1342,3.1213,2.9886,2.8964,2.876,2.736,2.6415,2.622,2.6079,2.5881,2.5635,2.547,2.5282,2.5025,2.4866,2.4746,2.4609,2.4609,2.4609,2.4609,2.4609,2.4686,2.4822,2.4946,2.5123,2.5333,2.554,2.5768,2.6026,2.6151,2.638,2.6623,2.6537,2.6589,2.6741,3.0916,3.168,3.1989,0.0,3.0097,2.9113,0.0,0.0,0.0,0.0,2.8219,2.8246,2.8331,2.8313,2.8353,2.8427,2.8497,0.0,0.0,0.0,0.0,2.8994,2.9181,2.9312,2.9402,2.9608,0.0,2.9897,0.0,0.0,3.031,0.0,0.0,0.0,0.0,0.0,3.0781,3.078,3.0831,3.0871,3.0895,3.0897,3.0801,2.9922,2.9198,2.8551,2.7903,2.7112,2.635,2.6341,2.6738,2.737,2.818,2.8794,2.94,3.0239,3.0414,3.0305,3.0286,3.0199,3.0072,2.9999,2.9849,2.9681,2.9589,2.9423,2.9289,2.9189,2.9067,2.894,2.8846,2.87,2.8574,0.0,0.0,0.0,0.0,0.0,0.0,2.9049,2.9693,3.004,2.9898,2.8902,2.8218,2.8059,2.7128,2.6486,2.6294,2.6187,2.6059,2.5824,2.5637,2.5467,2.5301,2.5107,2.497,2.4906,2.4786,2.4762,2.4762,2.4846,2.4946,2.5029,2.5224,2.5375,2.5524,2.5789,2.6007,2.6185,2.6415,2.6623,2.6826,2.6809,2.6842,2.6941,3.2003,0.0,0.0,3.2571,0.0,0.0,2.9494,2.8801,0.0,2.8375,2.8419,0.0,2.8523,2.8536,2.8562,2.8637,2.8675,0.0,2.8822,0.0,0.0,2.9127,2.9249,2.9373,2.9531,2.9673,0.0,2.9948,0.0,0.0,3.0348,0.0,0.0,0.0,0.0,3.0742,3.0804,3.0822,3.0864,3.0895,3.0896,3.0898,0.0,2.9511,2.8728,2.8139,2.6883,2.6111,2.5707,2.5669,2.5967,2.6548,2.7724,2.8356,2.8927,3.0142,3.04,3.0298,3.0299,3.0226,3.0128,3.0011,2.9891,2.9754,2.9664,2.9482,2.9322,2.9267,2.9145,2.901,2.8952,2.8834,2.87,0.0,0.0,0.0,0.0,0.0,0.0,0.0,2.8631,2.8718,2.859,2.8304,2.8066,2.7894,2.7114,2.6589,2.6434,2.6312,2.6169,2.6041,2.586,2.5696,2.5532,2.5378,2.5278,2.5182,2.5064,2.5021,2.5021,2.51,2.5201,2.5317,2.5432,2.5637,2.5877,2.6025,2.6205,2.6398,2.664,2.6859,2.7023,2.7023,2.7055,2.712,3.2932,0.0,0.0,0.0,0.0,0.0,2.9963,2.9096,2.8531,2.8531,2.86,2.8662,2.8718,2.8731,2.8773,2.8834,2.8834,2.8881,2.9028,2.9021,2.9115,2.9293,2.9324,2.9463,2.9683,2.9773,2.9885,0.0,3.0152,3.0273,3.039,0.0,0.0,0.0,0.0,0.0,0.0,3.0861,3.0892,3.0895,3.0897,3.0898,3.0721,2.9099,2.8393,2.8095,2.6444,2.5792,2.5684,2.5617,2.5586,2.5879,2.7577,2.8057,2.8324,3.0007,3.0406,3.0304,3.0299,3.0246,3.0164,3.0046,2.9951,2.9851,2.9729,2.956,2.9412,2.9314,2.9203,2.9078,2.9028,2.8952,2.8846,0.0,0.0,0.0,0.0,0.0,0.0,0.0,2.7789,0.0,2.7539,2.7915,2.8116,2.8049,2.7301,2.6877,2.6909,2.6736,2.6527,2.637,2.6229,2.6036,2.5738,2.5659,2.5581,2.5435,2.5375,2.5336,2.5336,2.5336,2.5467,2.5654,2.5672,2.5877,2.6203,2.6239,2.6416,2.6674,2.6859,2.7055,2.7246,2.7381,2.7431,2.7445,3.3371,0.0,0.0,0.0,0.0,3.1221,3.11,2.9752,2.8749,2.8749,2.881,2.8858,2.8851,2.8917,2.8964,2.9033,2.9044,0.0,0.0,0.0,0.0,2.9293,2.9502,2.9655,2.9701,2.9815,2.9948,3.0087,3.0213,3.0311,3.0411,0.0,0.0,0.0,0.0,0.0,3.0796,3.087,0.0,3.0897,3.0898,3.0898,3.0799,2.9763,2.8938,2.8168,2.7139,2.6308,2.5692,2.5613,2.5554,2.5813,2.7551,2.8025,2.8256,2.9983,3.0436,3.0367,3.0324,3.026,3.018,3.0091,2.9999,2.9855,2.9726,2.9626,2.9521,2.9343,2.9246,2.9156,2.9078,2.8987,2.887,2.8773,2.865,2.8549,2.8523,0.0,0.0,0.0,0.0,2.7864,2.7672,2.749,2.7631,2.8201,2.7947,2.8013,2.8552,2.8442,2.7992,2.721,2.7118,2.671,2.5956,2.5881,2.5789,2.5645,2.5645,2.5626,2.5626,2.5626,2.5698,2.586,2.6023,2.6132,2.6221,2.6503,2.6775,2.7022,2.7119,2.7277,2.7535,2.8318,2.8638,2.8576,0.0,0.0,0.0,0.0,0.0,3.133,3.0996,2.9863,2.9021,2.8964,2.901,2.9055,2.9055,2.9119,2.9163,2.9197,2.9192,2.9235,2.9289,2.9322,2.9394,2.9502,2.9636,2.9729,2.9808,2.9899,3.003,3.0154,3.0241,3.0354,3.0444,0.0,0.0,0.0,0.0,3.0796,0.0,0.0,3.0895,3.0897,3.0898,3.0897,3.0798,2.9934,2.9322,2.8746,2.7418,2.6681,2.626,2.5768,2.5865,2.6382,2.7656,2.8293,2.8815,3.0078,3.0425,3.0392,3.0324,3.0279,3.024,3.0128,3.0038,2.9924,2.9823,2.9719,2.9589,2.9453,2.9322,2.9225,2.9112,2.901,2.8929,2.8858,2.8761,2.8675,2.86,2.8523,2.8419,0.0,0.0,0.0,2.7864,2.7612,2.7714,2.8301,2.8236,2.8425,2.9016,2.8975,2.8661,2.8142,2.8068,2.7792,2.7313,2.7238,2.6928,2.6421,2.64,2.6169,2.5809,2.5846,2.5936,2.6061,2.6187,2.6329,2.6486,2.6775,2.7244,2.7785,2.7912,2.8331,2.8905,2.9427,2.9705,2.976,0.0,3.3947,0.0,0.0,3.2211,3.1409,3.0661,2.9866,2.9315,2.9167,2.92,2.9243,2.9243,2.9304,2.9347,2.9357,2.9361,2.9384,2.9453,2.9472,2.9541,2.971,2.9738,2.9799,2.9924,2.9996,3.0106,3.0213,3.0299,3.0394,3.0525,3.0595,0.0,0.0,0.0,3.0812,3.0825,3.0873,3.0897,3.0898,3.0898,3.0896,3.0814,3.0123,2.9704,2.932,2.795,2.7322,2.7048,2.636,2.6427,2.6973,2.7956,2.8705,2.9361,3.0153,3.0389,3.0392,3.0318,3.0299,3.0266,3.0145,3.0064,2.9999,2.9918,2.9809,2.9683,2.9569,2.9414,2.9251,2.9145,2.9074,2.8998,2.8952,2.887,2.8785,2.8675,2.8637,2.8574,0.0,0.0,0.0,2.8056,2.785,2.7997,2.8689,2.8644,2.8853,2.9565,2.9542,2.9345,2.9046,2.8971,2.8829,2.8546,2.8489,2.813,2.7439,2.738,2.7064,2.6488,2.6396,2.6401,2.6507,2.6598,2.6892,2.7301,2.7517,2.8059,2.8792,2.8953,2.9495,3.0247,3.051,3.0734,3.0924,0.0,0.0,0.0,3.3192,3.2415,3.16,3.0796,3.0044,2.9501,2.9312,2.9332,2.9382,2.9382,2.9443,2.9511,2.9569,2.9578,2.9607,2.9664,2.9673,2.9699,2.979,2.9849,2.9916,2.9999,3.0113,3.0232,3.0279,3.0359,3.0455,3.0593,3.0664,3.0733,3.0795,3.0807,3.0825,3.0894,3.0896,3.0898,3.0897,3.0897,3.0894,3.0888,3.0745,3.0185,2.9478,2.9327,2.8704,2.7971,2.7896,2.739,2.7074,2.8687,2.9187,2.9361,3.0153,3.0389,3.0398,3.0329,3.0299,3.0273,3.0199,3.0147,3.0065,2.9932,2.9796,2.97,2.9683,2.9482,2.928,2.9211,2.9152,2.9096,2.9078,2.8975,2.8893,2.8863,2.8773,2.8657,2.8587,0.0,0.0,2.8182,2.7936,2.8361,2.9744,2.9554,2.9936,3.1208,3.1147,3.069,2.982,2.9804,2.9427,2.8678,2.8678,2.8626,2.8559,2.854,2.8507,2.8423,2.7756,2.7456,2.7474,2.767,2.8322,2.9248,2.9248,2.9553,2.9932,2.9966,3.0223,3.0642,3.1316,3.1736,3.2072,3.4316,3.4351,3.3975,3.2721,3.2227,3.1592,3.0302,2.9852,2.9654,2.9598,2.9598,2.9569,2.9569,2.9608,2.9626,2.9664,2.9737,2.9792,2.9818,2.9815,2.9847,2.9926,2.9991,3.0053,3.0121,3.0206,3.0286,3.0368,3.0422,3.0506,3.06,3.0665,3.0745,3.0792,3.0794,3.0847,3.0894,3.0896,3.0898,3.0897,3.0896,3.0872,3.0843,3.0813,3.0579,3.0202,2.9649,2.9207,2.8874,2.883,2.8586,2.8406,2.9038,2.9559,2.9985,3.0317,3.0396,3.0398,3.0316,3.0299,3.0279,3.0226,3.0138,3.0083,2.998,2.9899,2.9806,2.971,2.956,2.9384,2.927,2.9228,2.9214,2.9167,2.9078,2.901,2.8964,2.8881,2.8779,2.8675,0.0,2.8445,2.8291,2.8122,2.8576,2.9897,2.9742,3.0179,3.1603,3.1502,3.1213,3.0755,3.0697,3.0482,3.0082,3.0082,2.9825,2.9348,2.9348,2.9133,2.868,2.8434,2.8391,2.8519,2.8766,2.9111,2.9523,2.9759,3.022,3.0771,3.0979,3.1466,3.21,3.2541,3.2846,3.3055,3.4539,3.4373,3.3786,3.2427,3.1986,3.1337,2.996,2.9779,2.9815,2.9841,2.9825,2.98,2.9756,2.9754,2.977,2.9787,2.9866,2.9945,2.9962,2.9956,2.9996,3.0061,3.0106,3.0164,3.0233,3.0292,3.0355,3.0425,3.0495,3.0554,3.0626,3.0695,3.0757,3.0806,3.0821,3.085,3.0895,3.0898,3.0898,3.0896,3.0873,3.0847,3.0796,3.0798,3.0795,3.0714,3.003,2.9761,2.9749,2.9694,2.9669,2.9637,2.9607,2.9962,3.0406,3.0396,3.0404,3.0398,3.0342,3.0311,3.0299,3.0241,3.0173,3.0109,3.0042,2.9964,2.9866,2.9729,2.9608,2.9512,2.9384,2.9324,2.9272,2.9235,2.9178,2.9119,2.9051,2.8964,2.8893,2.8767,2.8662,2.8549,2.8406,2.8492,2.8987,3.0041,3.01,3.0595,3.1749,3.1632,3.1464,3.1295,3.1235,3.1173,3.1055,3.1055,3.0763,3.0216,3.0216,2.9931,2.9429,2.9269,2.9353,2.957,2.9764,3.0041,3.0369,3.0656,3.1136,3.1727,3.1983,3.2509,3.3147,3.336,3.3534,3.3671,3.4687,3.4069,3.3289,3.2524,3.1683,3.0841,3.0021,2.9956,3.0007,3.0007,3.0046,3.0049,2.9912,2.9891,2.9913,2.998,3.0007,3.003,3.0095,3.0106,3.0123,3.0185,3.0194,3.0228,3.0304,3.0367,3.0425,3.0491,3.0564,3.0628,3.0694,3.0772,3.0798,3.0801,3.0871,3.0895,3.0897,3.0898,3.0896,3.0894,3.0825,3.0798,3.0809,3.0798,3.0794,3.08,3.0714,3.0645,3.0597,3.0573,3.0545,3.0485,3.0485,3.0444,3.0406,3.0396,3.0404,3.0404,3.0404,3.0348,3.0298,3.0299,3.0259,3.0178,3.0109,3.0003,2.9866,2.9729,2.9701,2.9655,2.9512,2.9394,2.9304,2.9293,2.9246,2.9167,2.9119,2.9051,2.8964,2.8917,2.8724,2.86,2.8587,2.9057,2.9665,3.0341,3.0868,3.1358,3.1766,3.1671,3.1504,3.1315,3.1295,3.1274,3.119,3.119,3.119,3.1173,3.1173,3.1173,3.114,3.0474,3.0374,3.0679,3.0679,3.1324,3.2371,3.2371,3.2574,3.2882,3.2959,3.3147,3.3408,3.3549,3.3684,3.382,3.4898,3.4216,3.341,3.2665,3.1821,3.0975,3.0163,3.0046,3.0061,3.0064,3.0128,3.015,3.0109,3.0049,3.0046,3.0064,3.0113,3.015,3.0159,3.0219,3.026,3.028,3.0305,3.0361,3.0369,3.0474,3.0559,3.0564,3.064,3.0694,3.0778,3.0798,3.0804,3.0801,3.0871,3.0895,3.0897,3.0898,3.0896,3.0894,3.0825,3.0791,3.079,3.0808,3.0776,3.0733,3.0703,3.0653,3.0597,3.054,3.0495,3.0433,3.0433,3.0425,3.0396,3.0404,3.0404,3.0404,3.0404,3.0348,3.0304,3.0292,3.0254,3.0187,3.0178,3.0034,2.9899,2.9841,2.9808,2.9737,2.9655,2.9598,2.9531,2.9463,2.9343,2.9259,2.9238,2.9138,2.9033,2.8982,2.8822,2.87,2.86,2.917,2.9794,3.0413,3.0965,3.1477,3.1984,3.1838,3.1634,3.1443,3.1351,3.1274,3.119,3.119,3.119,3.119,3.119,3.1213,3.1274,3.1283,3.1346,3.1473,3.1742,3.2091,3.2473,3.2674,3.2852,3.3039,3.3211,3.3404,3.3633,3.3766,3.3908,3.4099,3.4602,3.3869,3.305,3.2278,3.144,3.0731,3.0252,3.0183,3.019,3.0185,3.0213,3.0233,3.0234,3.0194,3.0185,3.0185,3.0213,3.024,3.0235,3.0305,3.0343,3.034,3.0394,3.0453,3.0465,3.0564,3.0606,3.0632,3.0697,3.0753,3.0808,3.0798,3.0816,3.0847,3.0874,3.0897,3.0898,3.0897,3.0894,3.0869,3.0819,3.0799,3.0791,3.0767,3.0733,3.071,3.0673,3.0643,3.0593,3.0515,3.0455,3.0392,3.04,3.0402,3.0404,3.0404,3.0404,3.0404,3.0404,3.0373,3.0336,3.031,3.0273,3.0221,3.0206,3.0079,2.998,2.9948,2.9883,2.9815,2.9783,2.9729,2.9664,2.9589,2.9453,2.9332,2.9304,2.9225,2.9141,2.9051,2.8929,2.8822,2.8687,2.9543,3.0226,3.0519,3.1389,3.1995,3.2214,3.1965,3.1764,3.1614,3.1464,3.1329,3.1232,3.121,3.119,3.119,3.123,3.1329,3.1485,3.1709,3.1892,3.2036,3.2284,3.2508,3.2657,3.285,3.3057,3.3226,3.3433,3.3633,3.3775,3.3947,3.4124,3.4293,3.3987,3.3176,3.2362,3.1553,3.0746,3.0239,3.0279,3.0292,3.0292,3.0292,3.0299,3.0318,3.0299,3.0317,3.0304,3.0305,3.0305,3.0318,3.0316,3.0379,3.0408,3.0403,3.0476,3.0535,3.0607,3.061,3.0641,3.072,3.0778,3.0808,3.0804,3.0791,3.0847,3.0895,3.0897,3.0898,3.0897,3.0895,3.0869,3.0799,3.0804,3.0802,3.0794,3.073,3.0701,3.068,3.0621,3.0597,3.0583,3.0519,3.0458,3.0406,3.0396,3.0404,3.0404,3.0404,3.0404,3.0404,3.0404,3.0404,3.0398,3.0316,3.031,3.0279,3.0219,3.0164,3.0087,3.0038,2.9964,2.9916,2.9893,2.98,2.9701,2.9692,2.954,2.9402,2.9314,2.9318,2.9251,2.9112,2.9051,2.8977,2.8913,3.0181,3.0928,3.0732,3.2072,3.2755,3.244,3.2126,3.1893,3.18,3.1595,3.1443,3.1315,3.1252,3.121,3.121,3.1293,3.1504,3.18,3.1837,3.2036,3.2406,3.2422,3.2608,3.2916,3.3008,3.3178,3.3452,3.3629,3.3788,3.3947,3.4148,3.4305,3.445,3.4175,3.3348,3.2505,3.1689,3.0834,3.0273,3.0305,3.0292,3.0299,3.0292,3.0329,3.0373,3.0377,3.0411,3.0453,3.0442,3.0419,3.04,3.0453,3.0474,3.05,3.055,3.0564,3.0619,3.0676,3.068,3.0704,3.0784,3.0794,3.0802,3.0794,3.0799,3.0848,3.0897,3.0898,3.0898,3.0897,3.085,3.0804,3.0799,3.0808,3.0801,3.0784,3.0737,3.0676,3.0618,3.0606,3.0559,3.0514,3.0458,3.0406,3.0396,3.0404,3.0404,3.0404,3.0404,3.0404,3.0404,3.0404,3.0404,3.0404,3.0379,3.0342,3.0292,3.0279,3.0219,3.0171,3.015,3.0091,3.0022,2.9916,2.9874,2.9823,2.9727,2.9664,2.9579,2.9472,2.9363,2.9278,2.9189,2.9067,2.922,2.9734,3.0529,3.1233,3.1769,3.2486,3.2836,3.2707,3.244,3.2126,3.1818,3.1653,3.154,3.1443,3.144,3.144,3.144,3.1614,3.1727,3.1818,3.2125,3.2301,3.2405,3.2674,3.2884,3.307,3.3301,3.3502,3.3726,3.3868,3.4011,3.4161,3.4351,3.4517,3.4655,3.4254,3.3398,3.2555,3.1731,3.0874,3.0299,3.033,3.0349,3.0348,3.0346,3.0394,3.0455,3.0458,3.0514,3.0559,3.0559,3.0471,3.0465,3.0535,3.054,3.0573,3.0647,3.0653,3.0657,3.0706,3.0733,3.0751,3.0791,3.0806,3.0804,3.08,3.0828,3.0874,3.0897,3.0898,3.0897,3.0895,3.0826,3.0795,3.0803,3.0793,3.0784,3.0752,3.0713,3.0665,3.0591,3.0574,3.0505,3.0458,3.0403,3.0394,3.0404,3.0404,3.0404,3.0404,3.0404,3.0404,3.0404,3.0404,3.0404,3.0404,3.0404,3.0348,3.0304,3.0299,3.0273,3.0233,3.0213,3.0164,3.0106,3.0019,2.9937,2.9872,2.9805,2.9746,2.9664,2.9598,2.9453,2.9322,2.9238,2.9488,2.9779,3.0118,3.1045,3.1801,3.2162,3.27,3.2948,3.2854,3.2591,3.2284,3.1946,3.1783,3.1634,3.1557,3.1517,3.1555,3.1632,3.1744,3.1892,3.2072,3.2301,3.2491,3.2641,3.285,3.307,3.3301,3.3506,3.3712,3.3908,3.4074,3.4221,3.4351,3.4561,3.4728,3.4859,3.4263,3.3412,3.2563,3.1751,3.0893,3.0322,3.0385,3.0394,3.0398,3.0403,3.0474,3.0514,3.0514,3.0559,3.0592,3.0616,3.0559,3.0554,3.0612,3.0619,3.0633,3.0707,3.0713,3.0711,3.0724,3.0778,3.0806,3.0808,3.0792,3.0803,3.0824,3.0875,3.0897,3.0898,3.0898,3.0895,3.0873,3.0823,3.0804,3.0798,3.0799,3.0742,3.069,3.068,3.0656,3.0593,3.052,3.046,3.0392,3.0411,3.0408,3.0404,3.0404,3.0404,3.0404,3.0404,3.0404,3.0404,3.0404,3.0404,3.0404,3.0404,3.0367,3.031,3.031,3.0305,3.0286,3.0234,3.02,3.0185,3.0123,3.0,2.9921,2.9897,2.9808,2.971,2.9711,2.954,2.9402,2.9304,2.9946,3.0395,3.0399,3.1623,3.2402,3.2403,3.2877,3.3088,3.2916,3.269,3.2422,3.2144,3.1929,3.1764,3.1635,3.1578,3.1651,3.1837,3.1873,3.2054,3.2406,3.2457,3.2641,3.2932,3.3024,3.3253,3.3534,3.3698,3.3868,3.4074,3.4269,3.4439,3.4561,3.4749,3.4908,3.5038,3.4333,3.3474,3.2628,3.1827,3.0956,3.039,3.04,3.0392,3.0428,3.0474,3.054,3.0588,3.0588,3.0591,3.0625,3.0684,3.0661,3.0665,3.0684,3.0688,3.0687,3.0704,3.0758,3.0781,3.0772,3.08,3.0801,3.0796,3.0799,3.0827,3.0876,3.0897,3.0898,3.0898,3.0896,3.0871,3.0803,3.0809,3.0808,3.0801,3.0742,3.0714,3.0687,3.0633,3.061,3.0593,3.0525,3.0463,3.0392,3.0402,3.041,3.0404,3.0404,3.0404,3.0404,3.0404,3.0404,3.0404,3.0404,3.0404,3.0404,3.0404,3.0379,3.0379,3.0379,3.0336,3.0298,3.0292,3.0235,3.0194,3.0185,3.0116,3.0023,2.9913,2.9885,2.9827,2.972,2.9569,2.9443,2.9314,2.9946,3.0639,3.1238,3.203,3.2734,3.334,3.3364,3.3244,3.2995,3.2884,3.269,3.2354,3.2055,3.1839,3.1764,3.1802,3.1857,3.1893,3.2179,3.2336,3.2423,3.2691,3.2884,3.3008,3.3283,3.352,3.3684,3.3934,3.4124,3.4269,3.4473,3.4634,3.4778,3.4917,3.5019,3.5096,3.4962,3.4199,3.3474,3.3108,3.1973,3.1118,3.1152,3.0758,3.0471,3.054,3.0578,3.061,3.0651,3.0645,3.0668,3.0706,3.0737,3.0752,3.0752,3.0752,3.0739,3.0751,3.0774,3.0798,3.0798,3.0807,3.0819,3.085,3.0851,3.0874,3.0897,3.0898,3.0898,3.0897,3.0852,3.0825,3.0799,3.0794,3.0808,3.0789,3.0724,3.0687,3.0634,3.0619,3.0574,3.0535,3.0474,3.0436,3.0402,3.041,3.0404,3.0404,3.0404,3.0404,3.0404,3.0404,3.0404,3.0404,3.0404,3.0404,3.0404,3.0404,3.0404,3.0404,3.0404,3.0373,3.0342,3.031,3.0279,3.0241,3.02,3.0166,3.0128,3.003,2.9959,2.9876,2.9774,2.9636,2.967,3.001,3.0628,3.1352,3.2121,3.2766,3.3273,3.3569,3.3481,3.3319,3.317,3.3013,3.282,3.2674,3.2249,3.1984,3.1947,3.1984,3.2073,3.2161,3.2336,3.2491,3.2674,3.2868,3.307,3.3268,3.352,3.3726,3.3934,3.4124,3.4328,3.4528,3.4668,3.4811,3.4974,3.51,3.5209,3.5278,3.55,3.4802,3.4206,3.4192,3.2985,3.1962,3.1827,3.123,3.0748,3.0631,3.0604,3.0633,3.0684,3.0713,3.0717,3.073,3.0778,3.0799,3.0808,3.0808,3.0808,3.0791,3.0804,3.0804,3.0824,3.0824,3.0849,3.0895,3.0897,3.0897,3.0898,3.0898,3.0897,3.0895,3.0826,3.0798,3.0792,3.0798,3.0789,3.0767,3.0723,3.0657,3.0604,3.0583,3.054,3.0469,3.0422,3.0394,3.0404,3.0404,3.0404,3.0404,3.0404,3.0404,3.0404,3.0404,3.0404,3.0404,3.0404,3.0404,3.0404,3.0404,3.0404,3.0404,3.0404,3.0404,3.0398,3.0342,3.031,3.0286,3.0234,3.0219,3.0171,3.011,3.0007,2.9899,2.9816,2.9842,3.0084,3.0632,3.1403,3.2114,3.2742,3.3356,3.3698,3.3633,3.3506,3.3408,3.3322,3.3122,3.2963,3.29,3.2456,3.2179,3.2161,3.2179,3.2284,3.2457,3.2491,3.2674,3.2963,3.307,3.3268,3.3549,3.3726,3.3921,3.4161,3.4316,3.4528,3.472,3.4821,3.4973,3.5153,3.5277,3.5376,3.5442,3.55,3.4802,3.4192,3.4199,3.349,3.2657,3.1917,3.1748,3.1439,3.069,3.0642,3.0687,3.069,3.0755,3.0786,3.0796,3.0791,3.0804,3.0796,3.0809,3.0791,3.0798,3.0791,3.0824,3.0894,3.0894,3.0895,3.0897,3.0897,3.0898,3.0897,3.0897,3.0895,3.0908,3.0823,3.0809,3.0804,3.0808,3.0753,3.0717,3.0692,3.0664,3.0598,3.053,3.0465,3.0417,3.0398,3.0394,3.0404,3.0404,3.0404,3.0404,3.0404,3.0404,3.0404,3.0404,3.0404,3.0404,3.0404,3.0404,3.0404,3.0404,3.0404,3.0404,3.0404,3.0404,3.0404,3.0379,3.0342,3.0298,3.0292,3.0234,3.0173,3.0117,3.0038,2.9959,2.9825,3.033,3.071,3.0706,3.1885,3.2742,3.2798,3.3408,3.3766,3.3698,3.3633,3.352,3.3393,3.3307,3.317,3.2916,3.2623,3.2422,3.2283,3.2422,3.2506,3.2589,3.2753,3.293,3.3086,3.3345,3.3549,3.3698,3.3959,3.4161,3.4305,3.4561,3.472,3.4812,3.5001,3.5162,3.5285,3.5369,3.543,3.5501,3.5495,3.5226,3.502,3.5057,3.4397,3.3773,3.3461,3.2991,3.2383,3.1573,3.149,3.1326,3.0826,3.0786,3.0804,3.0804,3.0799,3.0809,3.0792,3.0845,3.0869,3.0865,3.0868,3.0873,3.0896,3.0896,3.0897,3.0898,3.0898,3.0898,3.0897,3.0894,3.0889,3.0843,3.0813,3.0796,3.0806,3.0756,3.0724,3.071,3.0641,3.0619,3.0593,3.053,3.0449,3.0392,3.0389,3.0396,3.0404,3.0404,3.0404,3.0404,3.0404,3.0404,3.0404,3.0404,3.0404,3.0404,3.0404,3.0404,3.0404,3.0404,3.0404,3.0404,3.0404,3.0404,3.0404,3.0404,3.0379,3.0355,3.0299,3.0279,3.0226,3.0117,3.008,3.017,3.0495,3.0735,3.1199,3.2144,3.2572,3.3001,3.3499,3.3703,3.378,3.3712,3.3671,3.3605,3.3466,3.3367,3.3232,3.3024,3.293,3.2804,3.2607,3.2658,3.274,3.2852,3.2961,3.315,3.336,3.3573,3.3793,3.3959,3.4185,3.4393,3.4561,3.4751,3.4879,3.499,3.5166,3.532,3.5435,3.5502,3.557,3.5639,3.5534,3.5534,3.5559,3.5587,3.5157,3.471,3.4463,3.3956,3.3328,3.2518,3.2192,3.183,3.1274,3.0951,3.0808,3.0804,3.0817,3.0824,3.0826,3.0873,3.0895,3.0895,3.0895,3.0896,3.0898,3.0898,3.0898,3.0898,3.0898,3.0897,3.0896,3.087,3.0844,3.0798,3.0798,3.0795,3.0767,3.0727,3.069,3.0661,3.0628,3.0588,3.055,3.0485,3.0447,3.0394,3.039,3.0404,3.0404,3.0404,3.0404,3.0404,3.0404,3.0404,3.0404,3.0404,3.0404,3.0404,3.0404,3.0404,3.0404,3.0404,3.0404,3.0404,3.0404,3.0404,3.0404,3.0404,3.0404,3.0386,3.0305,3.0292,3.0266,3.0125,3.0095,3.0299,3.091,3.1167,3.1763,3.306,3.3184,3.3389,3.3943,3.3868,3.378,3.3739,3.3712,3.3643,3.3534,3.3437,3.3349,3.3223,3.3241,3.3165,3.3028,3.2981,3.3013,3.3137,3.3208,3.3386,3.3629,3.3802,3.3998,3.4209,3.4416,3.4594,3.4761,3.4936,3.5053,3.5179,3.5319,3.5431,3.5546,3.5604,3.5664,3.5739,3.5591,3.5602,3.5593,3.5602,3.5653,3.5427,3.4625,3.4501,3.4209,3.3426,3.263,3.2119,3.2091,3.1329,3.0815,3.08,3.0865,3.089,3.0894,3.0896,3.0897,3.0897,3.0897,3.0898,3.0898,3.0898,3.0898,3.0898,3.0898,3.0896,3.0894,3.0826,3.0798,3.0791,3.08,3.0767,3.07,3.0707,3.0657,3.0595,3.0607,3.0569,3.0499,3.0428,3.0394,3.0404,3.0404,3.0404,3.0404,3.0404,3.0404,3.0404,3.0404,3.0404,3.0404,3.0404,3.0404,3.0404,3.0404,3.0404,3.0404,3.0404,3.0404,3.0404,3.0404,3.0404,3.0404,3.0404,3.0404,3.0386,3.0305,3.0292,3.0266,3.0125,3.0095,3.0318,3.0929,3.1647,3.2381,3.3116,3.3666,3.3998,3.3998,3.3868,3.3807,3.3807,3.3739,3.3671,3.3605,3.3605,3.3577,3.3491,3.3509,3.3509,3.3509,3.3367,3.3337,3.3393,3.3534,3.3712,3.3908,3.4049,3.4209,3.4397,3.4623,3.479,3.4927,3.5115,3.5239,3.5311,3.5445,3.5537,3.5618,3.5689,3.5732,3.5807,3.5593,3.561,3.5612,3.5654,3.5737,3.5696,3.5445,3.546,3.5187,3.4325,3.4033,3.347,3.2236,3.1871,3.1487,3.0929,3.0894,3.0896,3.0898,3.0898,3.0898,3.0898,3.0898,3.0898,3.0898,3.0898,3.0898,3.0898,3.0896,3.0873,3.0825,3.0819,3.0804,3.0798,3.0806,3.0756,3.0707,3.0703,3.0653,3.0607,3.0559,3.0495,3.0428,3.0417,3.0394,3.0404,3.0404,3.0404,3.0404,3.0404,3.0404,3.0404,3.0404,3.0404,3.0404,3.0404,3.0404,3.0404,3.0404,3.0404,3.0404,3.0404,3.0404,3.0404,3.0404,3.0404,3.0404,3.0404,3.0404,3.0386,3.0305,3.0292,3.0266,3.0125,3.0532,3.1116,3.1798,3.25,3.3229,3.3938,3.4012,3.3998,3.3998,3.3868,3.3807,3.3807,3.3739,3.3684,3.3671,3.3633,3.3591,3.3577,3.3619,3.3629,3.3629,3.3549,3.3534,3.3601,3.3775,3.3959,3.4124,3.4293,3.4495,3.4687,3.4849,3.5001,3.5124,3.5281,3.5371,3.5451,3.5596,3.5684,3.5737,3.5764,3.5807,3.5875,3.5637,3.5664,3.5689,3.5727,3.5767,3.5815,3.5841,3.5866,3.5719,3.5229,3.4895,3.4306,3.3245,3.2506,3.1906,3.1423,3.1073,3.0898,3.0898,3.0898,3.0898,3.0898,3.0898,3.0898,3.0898,3.0898,3.0898,3.0897,3.0894,3.0869,3.08,3.0807,3.0808,3.0799,3.0778,3.0746,3.0699,3.068,3.061,3.0559,3.0481,3.0444,3.0392,3.04,3.0402,3.0404,3.0404,3.0404,3.0404,3.0404,3.0404,3.0404,3.0404,3.0404,3.0404,3.0404,3.0404,3.0404,3.0404,3.0404,3.0404,3.0404,3.0404,3.0404,3.0404,3.0404,3.0404,3.0404,3.0404,3.0386,3.0305,3.0573,3.0757,3.0605,3.1219,3.196,3.2666,3.3072,3.3563,3.4304,3.4185,3.4036,3.3998,3.3895,3.3815,3.3788,3.3793,3.394,3.427,3.4275,3.4422,3.4752,3.4793,3.4834,3.4862,3.483,3.449,3.3815,3.4049,3.4233,3.4351,3.4539,3.4728,3.4927,3.5029,3.5157,3.5281,3.5418,3.5513,3.5582,3.5708,3.5779,3.5846,3.5843,3.5883,3.5931,3.5693,3.5757,3.5793,3.5818,3.5803,3.5833,3.5883,3.5914,3.5929,3.5997,3.5308,3.4788,3.4716,3.3275,3.2263,3.2128,3.1367,3.0898,3.0898,3.0898,3.0898,3.0898,3.0898,3.0898,3.0898,3.0898,3.0897,3.0897,3.0891,3.0864,3.0799,3.0794,3.0791,3.0794,3.072,3.0699,3.0692,3.0625,3.0559,3.0486,3.0439,3.0392,3.0406,3.0396,3.0404,3.0404,3.0404,3.0404,3.0404,3.0404,3.0404,3.0404,3.0404,3.0404,3.0404,3.0404,3.0404,3.0404,3.0404,3.0404,3.0404,3.0404,3.0404,3.0404,3.0404,3.0404,3.0404,3.0404,3.0404,3.0405,3.0414,3.1053,3.1553,3.1435,3.2102,3.2822,3.3431,3.3448,3.3638,3.4323,3.4221,3.4074,3.4011,3.3947,3.3918,3.3925,3.3979,3.4405,3.5266,3.537,3.5761,3.6481,3.6513,3.6554,3.6621,3.6699,3.5862,3.4147,3.4405,3.457,3.4626,3.4778,3.4936,3.5119,3.5201,3.5296,3.5425,3.5554,3.5654,3.5712,3.5783,3.584,3.59,3.5901,3.5944,3.5998,3.576,3.5782,3.5826,3.5862,3.5882,3.588,3.5902,3.5947,3.5983,3.6009,3.5846,3.5463,3.4763,3.4353,3.3612,3.2285,3.1387,3.0898,3.0898,3.0898,3.0898,3.0898,3.0898,3.0898,3.0897,3.0897,3.0897,3.0895,3.0848,3.0817,3.0803,3.08,3.0767,3.073,3.0704,3.0665,3.0613,3.0612,3.0554,3.049,3.0428,3.04,3.0396,3.0404,3.0404,3.0404,3.0404,3.0404,3.0404,3.0404,3.0404,3.0404,3.0404,3.0404,3.0404,3.0404,3.0404,3.0404,3.0404,3.0404,3.0404,3.0404,3.0404,3.0404,3.0404,3.0404,3.0404,3.0404,3.0404,3.0591,3.12,3.1468,3.1771,3.2243,3.2938,3.3448,3.3487,3.3928,3.4285,3.4397,3.4221,3.4099,3.4086,3.4023,3.4249,3.4932,3.5,3.5351,3.6177,3.6228,3.6329,3.6567,3.6621,3.6712,3.682,3.695,3.6414,3.5255,3.5473,3.531,3.485,3.4963,3.5124,3.5262,3.5381,3.5477,3.5579,3.5708,3.5775,3.5787,3.5853,3.5895,3.5901,3.5957,3.5988,3.5994,3.5786,3.583,3.5866,3.5894,3.5936,3.5953,3.5951,3.5985,3.5995,3.6002,3.6009,3.5837,3.537,3.4941,3.4179,3.2891,3.1992,3.1523,3.1523,3.1133,3.0898,3.0898,3.0898,3.0898,3.0897,3.0874,3.0851,3.085,3.0821,3.0806,3.0802,3.0804,3.0751,3.0704,3.0676,3.0633,3.0597,3.0579,3.05,3.0458,3.0406,3.0402,3.0404,3.0404,3.0404,3.0404,3.0404,3.0404,3.0404,3.0404,3.0404,3.0404,3.0404,3.0404,3.0404,3.0404,3.0404,3.0404,3.0404,3.0404,3.0404,3.0404,3.0404,3.0404,3.0404,3.0404,3.0404,3.0404,3.0731,3.1136,3.1519,3.2241,3.2888,3.3127,3.3821,3.4263,3.4129,3.4373,3.4506,3.4397,3.4281,3.434,3.4686,3.4659,3.4971,3.5803,3.5925,3.6316,3.7131,3.7236,3.7474,3.7923,3.7957,3.8041,3.8177,3.8303,3.7921,3.7128,3.6377,3.5883,3.5615,3.5362,3.5296,3.5391,3.554,3.5632,3.5694,3.5803,3.5856,3.5855,3.5921,3.5953,3.5957,3.5994,3.5975,3.5948,3.5815,3.5853,3.5892,3.5919,3.5958,3.5997,3.5992,3.5996,3.6002,3.5991,3.5994,3.5995,3.5995,3.5215,3.4414,3.3691,3.2871,3.2344,3.2207,3.1523,3.1055,3.0918,3.0898,3.0897,3.0876,3.0827,3.08,3.08,3.0791,3.0792,3.0799,3.0784,3.0752,3.0706,3.0637,3.0591,3.0588,3.0519,3.0439,3.0392,3.0396,3.0404,3.0404,3.0404,3.0404,3.0404,3.0404,3.0404,3.0404,3.0404,3.0404,3.0404,3.0404,3.0404,3.0404,3.0404,3.0404,3.0404,3.0404,3.0404,3.0404,3.0404,3.0404,3.0442,3.0596,3.0519,3.0442,3.0596,3.1192,3.177,3.1986,3.3168,3.4083,3.405,3.459,3.4964,3.4839,3.4697,3.4561,3.445,3.4512,3.4772,3.5398,3.5519,3.5919,3.6716,3.6877,3.7296,3.8096,3.8251,3.8664,3.9419,3.9452,3.9514,3.9677,3.9728,3.9524,3.9042,3.7471,3.662,3.6433,3.5904,3.5611,3.5537,3.5669,3.576,3.5823,3.5894,3.5916,3.5921,3.5987,3.5993,3.5995,3.5992,3.5952,3.588,3.5888,3.5883,3.5919,3.599,3.5983,3.5992,3.6002,3.6009,3.5993,3.5994,3.5996,3.5996,3.5996,3.5215,3.4648,3.4531,3.373,3.2949,3.2246,3.209,3.1699,3.0937,3.0897,3.0875,3.0805,3.0801,3.08,3.08,3.081,3.0806,3.0799,3.073,3.071,3.07,3.0638,3.0569,3.0515,3.0444,3.0417,3.0392,3.0396,3.0404,3.0404,3.0404,3.0404,3.0404,3.0404,3.0404,3.0404,3.0404,3.0404,3.0404,3.0404,3.0404,3.0404,3.0404,3.0404,3.0404,3.0404,3.0404,3.0404,3.0404,3.0404,3.0596,3.1346,3.0942,3.0615,3.1371,3.1621,3.2116,3.3508,3.3961,3.4301,3.4912,3.5053,3.5048,3.4908,3.4761,3.4655,3.4572,3.5135,3.5551,3.5639,3.6285,3.7019,3.7822,3.7891,3.8302,3.9144,3.9207,3.9327,3.957,3.9623,3.9751,3.9954,4.0007,4.0081,4.0179,3.9248,3.804,3.6652,3.6697,3.6323,3.5674,3.5749,3.5827,3.588,3.596,3.5991,3.5989,3.5996,3.5995,3.5992,3.5929,3.5914,3.5797,3.5897,3.5931,3.5966,3.5985,3.5995,3.6003,3.5991,3.5993,3.5995,3.5996,3.5996,3.5996,3.5996,3.5664,3.543,3.543,3.4629,3.3984,3.3613,3.2675,3.1972,3.1598,3.1107,3.0828,3.08,3.0803,3.0792,3.0792,3.0791,3.0786,3.0736,3.0707,3.0672,3.0645,3.0621,3.0554,3.0495,3.0433,3.0406,3.0402,3.041,3.0404,3.0404,3.0404,3.0404,3.0404,3.0404,3.0404,3.0404,3.0404,3.0404,3.0404,3.0404,3.0404,3.0404,3.0404,3.0404,3.0404,3.0404,3.0404,3.0404,3.0404,3.0769,3.1231,3.1621,3.1756,3.191,3.2295,3.2756,3.3301,3.3978,3.4467,3.4856,3.5155,3.5181,3.5092,3.4927,3.485,3.4941,3.5297,3.5998,3.6665,3.7103,3.7471,3.8015,3.8827,3.8908,3.9114,3.9483,3.9575,3.9647,3.9712,3.9848,3.9977,4.0119,4.0215,4.0351,4.0512,4.0181,3.9412,3.8177,3.7334,3.6774,3.6456,3.6044,3.587,3.5914,3.5978,3.5992,3.5996,3.6009,3.5977,3.5935,3.586,3.5548,3.506]}]]